<?xml version="1.0" encoding="UTF-8" standalone="no" ?>
<gpx xmlns="http://www.topografix.com/GPX/1/1" xmlns:xsi="http://www.w3.org/2001/XMLSchema-instance" xsi:schemaLocation="http://www.topografix.com/GPX/1/1 http://www.topografix.com/GPX/1/1/gpx.xsd" version="1.1" creator="VisuGPX - https://www.visugpx.com">
  <metadata>
    <name>Mont Veyrier</name>
    <desc><![CDATA[Départ du port d'albigny et casse-croute sur la plate-forme de l'ancien téléphérique]]></desc>
  </metadata>
  <trk>
    <name><![CDATA[mercredi 22 juin 2016]]></name>
    <trkseg>
      <trkpt lat="45.9047" lon="6.15968">
        <ele>504.28</ele>
        <time>2016-06-22T14:52:56Z</time>
      </trkpt>
      <trkpt lat="45.9046" lon="6.15968">
        <ele>503.28</ele>
        <time>2016-06-22T14:53:06Z</time>
      </trkpt>
      <trkpt lat="45.90442" lon="6.15973">
        <ele>497.84</ele>
        <time>2016-06-22T14:53:17Z</time>
      </trkpt>
      <trkpt lat="45.90428" lon="6.15978">
        <ele>499.25</ele>
        <time>2016-06-22T14:53:27Z</time>
      </trkpt>
      <trkpt lat="45.90411" lon="6.15988">
        <ele>497.95</ele>
        <time>2016-06-22T14:53:38Z</time>
      </trkpt>
      <trkpt lat="45.90399" lon="6.16007">
        <ele>496.46</ele>
        <time>2016-06-22T14:53:49Z</time>
      </trkpt>
      <trkpt lat="45.90394" lon="6.16024">
        <ele>497.57</ele>
        <time>2016-06-22T14:54:00Z</time>
      </trkpt>
      <trkpt lat="45.90399" lon="6.16045">
        <ele>497.57</ele>
        <time>2016-06-22T14:54:11Z</time>
      </trkpt>
      <trkpt lat="45.90403" lon="6.16067">
        <ele>497.57</ele>
        <time>2016-06-22T14:54:22Z</time>
      </trkpt>
      <trkpt lat="45.90413" lon="6.16084">
        <ele>497.57</ele>
        <time>2016-06-22T14:54:33Z</time>
      </trkpt>
      <trkpt lat="45.90418" lon="6.16102">
        <ele>497.57</ele>
        <time>2016-06-22T14:54:44Z</time>
      </trkpt>
      <trkpt lat="45.90421" lon="6.16113">
        <ele>497.57</ele>
        <time>2016-06-22T14:54:55Z</time>
      </trkpt>
      <trkpt lat="45.90424" lon="6.16124">
        <ele>497.57</ele>
        <time>2016-06-22T14:55:06Z</time>
      </trkpt>
      <trkpt lat="45.90429" lon="6.16138">
        <ele>499.7</ele>
        <time>2016-06-22T14:55:17Z</time>
      </trkpt>
      <trkpt lat="45.90435" lon="6.1615">
        <ele>500.3</ele>
        <time>2016-06-22T14:55:28Z</time>
      </trkpt>
      <trkpt lat="45.9044" lon="6.16156">
        <ele>501.21</ele>
        <time>2016-06-22T14:55:38Z</time>
      </trkpt>
      <trkpt lat="45.90441" lon="6.16161">
        <ele>503.14</ele>
        <time>2016-06-22T14:55:48Z</time>
      </trkpt>
      <trkpt lat="45.90447" lon="6.16168">
        <ele>506.26</ele>
        <time>2016-06-22T14:55:59Z</time>
      </trkpt>
      <trkpt lat="45.90453" lon="6.16176">
        <ele>509.82</ele>
        <time>2016-06-22T14:56:10Z</time>
      </trkpt>
      <trkpt lat="45.90453" lon="6.1618">
        <ele>511.56</ele>
        <time>2016-06-22T14:56:20Z</time>
      </trkpt>
      <trkpt lat="45.90453" lon="6.1618">
        <ele>511.82</ele>
        <time>2016-06-22T14:56:31Z</time>
      </trkpt>
      <trkpt lat="45.90453" lon="6.1618">
        <ele>512.63</ele>
        <time>2016-06-22T14:56:42Z</time>
      </trkpt>
      <trkpt lat="45.90453" lon="6.16181">
        <ele>513.45</ele>
        <time>2016-06-22T14:56:53Z</time>
      </trkpt>
      <trkpt lat="45.90448" lon="6.1618">
        <ele>514.59</ele>
        <time>2016-06-22T14:57:04Z</time>
      </trkpt>
      <trkpt lat="45.90446" lon="6.1618">
        <ele>516.9</ele>
        <time>2016-06-22T14:57:15Z</time>
      </trkpt>
      <trkpt lat="45.9045" lon="6.16207">
        <ele>519.52</ele>
        <time>2016-06-22T14:57:36Z</time>
      </trkpt>
      <trkpt lat="45.90454" lon="6.16233">
        <ele>523.1</ele>
        <time>2016-06-22T14:57:47Z</time>
      </trkpt>
      <trkpt lat="45.90455" lon="6.16244">
        <ele>527.82</ele>
        <time>2016-06-22T14:57:57Z</time>
      </trkpt>
      <trkpt lat="45.9045" lon="6.16261">
        <ele>532.63</ele>
        <time>2016-06-22T14:58:08Z</time>
      </trkpt>
      <trkpt lat="45.9045" lon="6.16273">
        <ele>535.37</ele>
        <time>2016-06-22T14:58:18Z</time>
      </trkpt>
      <trkpt lat="45.90451" lon="6.16291">
        <ele>538.32</ele>
        <time>2016-06-22T14:58:29Z</time>
      </trkpt>
      <trkpt lat="45.90449" lon="6.16303">
        <ele>542.14</ele>
        <time>2016-06-22T14:58:40Z</time>
      </trkpt>
      <trkpt lat="45.90448" lon="6.16318">
        <ele>546.02</ele>
        <time>2016-06-22T14:58:50Z</time>
      </trkpt>
      <trkpt lat="45.90447" lon="6.16326">
        <ele>549.73</ele>
        <time>2016-06-22T14:59:00Z</time>
      </trkpt>
      <trkpt lat="45.90443" lon="6.16333">
        <ele>553.95</ele>
        <time>2016-06-22T14:59:11Z</time>
      </trkpt>
      <trkpt lat="45.90446" lon="6.16346">
        <ele>556.7</ele>
        <time>2016-06-22T14:59:22Z</time>
      </trkpt>
      <trkpt lat="45.90447" lon="6.16355">
        <ele>558.43</ele>
        <time>2016-06-22T14:59:33Z</time>
      </trkpt>
      <trkpt lat="45.90452" lon="6.16367">
        <ele>560.31</ele>
        <time>2016-06-22T14:59:43Z</time>
      </trkpt>
      <trkpt lat="45.90453" lon="6.16372">
        <ele>562.69</ele>
        <time>2016-06-22T14:59:54Z</time>
      </trkpt>
      <trkpt lat="45.90455" lon="6.16374">
        <ele>566.01</ele>
        <time>2016-06-22T15:00:05Z</time>
      </trkpt>
      <trkpt lat="45.90463" lon="6.1638">
        <ele>568.27</ele>
        <time>2016-06-22T15:00:15Z</time>
      </trkpt>
      <trkpt lat="45.90474" lon="6.16385">
        <ele>570.89</ele>
        <time>2016-06-22T15:00:26Z</time>
      </trkpt>
      <trkpt lat="45.90483" lon="6.16388">
        <ele>573.71</ele>
        <time>2016-06-22T15:00:37Z</time>
      </trkpt>
      <trkpt lat="45.90507" lon="6.16395">
        <ele>573.53</ele>
        <time>2016-06-22T15:00:47Z</time>
      </trkpt>
      <trkpt lat="45.90517" lon="6.16402">
        <ele>571.12</ele>
        <time>2016-06-22T15:00:58Z</time>
      </trkpt>
      <trkpt lat="45.90519" lon="6.16408">
        <ele>568.88</ele>
        <time>2016-06-22T15:01:09Z</time>
      </trkpt>
      <trkpt lat="45.90512" lon="6.16411">
        <ele>568.2</ele>
        <time>2016-06-22T15:01:20Z</time>
      </trkpt>
      <trkpt lat="45.90497" lon="6.1642">
        <ele>567.58</ele>
        <time>2016-06-22T15:01:31Z</time>
      </trkpt>
      <trkpt lat="45.90488" lon="6.1642">
        <ele>567.71</ele>
        <time>2016-06-22T15:01:41Z</time>
      </trkpt>
      <trkpt lat="45.90481" lon="6.16424">
        <ele>568.98</ele>
        <time>2016-06-22T15:01:52Z</time>
      </trkpt>
      <trkpt lat="45.90478" lon="6.16427">
        <ele>570.66</ele>
        <time>2016-06-22T15:02:02Z</time>
      </trkpt>
      <trkpt lat="45.90464" lon="6.16432">
        <ele>573.68</ele>
        <time>2016-06-22T15:02:12Z</time>
      </trkpt>
      <trkpt lat="45.90449" lon="6.16426">
        <ele>576.69</ele>
        <time>2016-06-22T15:02:23Z</time>
      </trkpt>
      <trkpt lat="45.90443" lon="6.16425">
        <ele>580.56</ele>
        <time>2016-06-22T15:02:34Z</time>
      </trkpt>
      <trkpt lat="45.90446" lon="6.16427">
        <ele>584.63</ele>
        <time>2016-06-22T15:02:44Z</time>
      </trkpt>
      <trkpt lat="45.90451" lon="6.16428">
        <ele>589.28</ele>
        <time>2016-06-22T15:02:54Z</time>
      </trkpt>
      <trkpt lat="45.90467" lon="6.16437">
        <ele>593</ele>
        <time>2016-06-22T15:03:05Z</time>
      </trkpt>
      <trkpt lat="45.90473" lon="6.16445">
        <ele>596.16</ele>
        <time>2016-06-22T15:03:16Z</time>
      </trkpt>
      <trkpt lat="45.90462" lon="6.16442">
        <ele>599.52</ele>
        <time>2016-06-22T15:03:27Z</time>
      </trkpt>
      <trkpt lat="45.90457" lon="6.16441">
        <ele>603.28</ele>
        <time>2016-06-22T15:03:38Z</time>
      </trkpt>
      <trkpt lat="45.90453" lon="6.16441">
        <ele>605.43</ele>
        <time>2016-06-22T15:03:48Z</time>
      </trkpt>
      <trkpt lat="45.90444" lon="6.16444">
        <ele>606.35</ele>
        <time>2016-06-22T15:03:59Z</time>
      </trkpt>
      <trkpt lat="45.90437" lon="6.16449">
        <ele>606.88</ele>
        <time>2016-06-22T15:04:10Z</time>
      </trkpt>
      <trkpt lat="45.90428" lon="6.16455">
        <ele>609.16</ele>
        <time>2016-06-22T15:04:21Z</time>
      </trkpt>
      <trkpt lat="45.9043" lon="6.16458">
        <ele>610.47</ele>
        <time>2016-06-22T15:04:31Z</time>
      </trkpt>
      <trkpt lat="45.9043" lon="6.1646">
        <ele>611.41</ele>
        <time>2016-06-22T15:04:42Z</time>
      </trkpt>
      <trkpt lat="45.90432" lon="6.16461">
        <ele>612.81</ele>
        <time>2016-06-22T15:04:52Z</time>
      </trkpt>
      <trkpt lat="45.90437" lon="6.16463">
        <ele>616.58</ele>
        <time>2016-06-22T15:05:03Z</time>
      </trkpt>
      <trkpt lat="45.90443" lon="6.16467">
        <ele>620.94</ele>
        <time>2016-06-22T15:05:14Z</time>
      </trkpt>
      <trkpt lat="45.90451" lon="6.1647">
        <ele>624.86</ele>
        <time>2016-06-22T15:05:25Z</time>
      </trkpt>
      <trkpt lat="45.90449" lon="6.16469">
        <ele>626.38</ele>
        <time>2016-06-22T15:05:36Z</time>
      </trkpt>
      <trkpt lat="45.90455" lon="6.16477">
        <ele>627.51</ele>
        <time>2016-06-22T15:05:47Z</time>
      </trkpt>
      <trkpt lat="45.90467" lon="6.16488">
        <ele>628.52</ele>
        <time>2016-06-22T15:05:58Z</time>
      </trkpt>
      <trkpt lat="45.9047" lon="6.16498">
        <ele>629.39</ele>
        <time>2016-06-22T15:06:09Z</time>
      </trkpt>
      <trkpt lat="45.90478" lon="6.16498">
        <ele>631.08</ele>
        <time>2016-06-22T15:06:20Z</time>
      </trkpt>
      <trkpt lat="45.90481" lon="6.16498">
        <ele>633.41</ele>
        <time>2016-06-22T15:06:31Z</time>
      </trkpt>
      <trkpt lat="45.90484" lon="6.16504">
        <ele>634.7</ele>
        <time>2016-06-22T15:06:41Z</time>
      </trkpt>
      <trkpt lat="45.90494" lon="6.16512">
        <ele>635.77</ele>
        <time>2016-06-22T15:06:52Z</time>
      </trkpt>
      <trkpt lat="45.90505" lon="6.1652">
        <ele>638.67</ele>
        <time>2016-06-22T15:07:03Z</time>
      </trkpt>
      <trkpt lat="45.90516" lon="6.16522">
        <ele>640.92</ele>
        <time>2016-06-22T15:07:13Z</time>
      </trkpt>
      <trkpt lat="45.90528" lon="6.16524">
        <ele>643.93</ele>
        <time>2016-06-22T15:07:24Z</time>
      </trkpt>
      <trkpt lat="45.90535" lon="6.16528">
        <ele>646.01</ele>
        <time>2016-06-22T15:07:34Z</time>
      </trkpt>
      <trkpt lat="45.90537" lon="6.16531">
        <ele>647.12</ele>
        <time>2016-06-22T15:07:45Z</time>
      </trkpt>
      <trkpt lat="45.90539" lon="6.16536">
        <ele>648.57</ele>
        <time>2016-06-22T15:07:56Z</time>
      </trkpt>
      <trkpt lat="45.90539" lon="6.16538">
        <ele>650.65</ele>
        <time>2016-06-22T15:08:07Z</time>
      </trkpt>
      <trkpt lat="45.90542" lon="6.16543">
        <ele>652.64</ele>
        <time>2016-06-22T15:08:17Z</time>
      </trkpt>
      <trkpt lat="45.90537" lon="6.16543">
        <ele>653.72</ele>
        <time>2016-06-22T15:08:28Z</time>
      </trkpt>
      <trkpt lat="45.90535" lon="6.16548">
        <ele>655</ele>
        <time>2016-06-22T15:08:39Z</time>
      </trkpt>
      <trkpt lat="45.90536" lon="6.16552">
        <ele>655.24</ele>
        <time>2016-06-22T15:08:50Z</time>
      </trkpt>
      <trkpt lat="45.9054" lon="6.16556">
        <ele>656.73</ele>
        <time>2016-06-22T15:09:01Z</time>
      </trkpt>
      <trkpt lat="45.90537" lon="6.16557">
        <ele>658.07</ele>
        <time>2016-06-22T15:09:12Z</time>
      </trkpt>
      <trkpt lat="45.9053" lon="6.16551">
        <ele>659.24</ele>
        <time>2016-06-22T15:09:22Z</time>
      </trkpt>
      <trkpt lat="45.90525" lon="6.16552">
        <ele>660.45</ele>
        <time>2016-06-22T15:09:32Z</time>
      </trkpt>
      <trkpt lat="45.90519" lon="6.16553">
        <ele>661.81</ele>
        <time>2016-06-22T15:09:43Z</time>
      </trkpt>
      <trkpt lat="45.90516" lon="6.1656">
        <ele>663.27</ele>
        <time>2016-06-22T15:09:54Z</time>
      </trkpt>
      <trkpt lat="45.9051" lon="6.16564">
        <ele>664.77</ele>
        <time>2016-06-22T15:10:05Z</time>
      </trkpt>
      <trkpt lat="45.90505" lon="6.16566">
        <ele>666.84</ele>
        <time>2016-06-22T15:10:16Z</time>
      </trkpt>
      <trkpt lat="45.90496" lon="6.16565">
        <ele>669.42</ele>
        <time>2016-06-22T15:10:26Z</time>
      </trkpt>
      <trkpt lat="45.90488" lon="6.16565">
        <ele>672.15</ele>
        <time>2016-06-22T15:10:36Z</time>
      </trkpt>
      <trkpt lat="45.90477" lon="6.16565">
        <ele>675.79</ele>
        <time>2016-06-22T15:10:47Z</time>
      </trkpt>
      <trkpt lat="45.90471" lon="6.16566">
        <ele>677.65</ele>
        <time>2016-06-22T15:10:58Z</time>
      </trkpt>
      <trkpt lat="45.90468" lon="6.16569">
        <ele>678.8</ele>
        <time>2016-06-22T15:11:09Z</time>
      </trkpt>
      <trkpt lat="45.90472" lon="6.16571">
        <ele>680.02</ele>
        <time>2016-06-22T15:11:19Z</time>
      </trkpt>
      <trkpt lat="45.9048" lon="6.16576">
        <ele>682.44</ele>
        <time>2016-06-22T15:11:30Z</time>
      </trkpt>
      <trkpt lat="45.90487" lon="6.16582">
        <ele>684.25</ele>
        <time>2016-06-22T15:11:41Z</time>
      </trkpt>
      <trkpt lat="45.90485" lon="6.16588">
        <ele>685.95</ele>
        <time>2016-06-22T15:11:52Z</time>
      </trkpt>
      <trkpt lat="45.90497" lon="6.16594">
        <ele>687.2</ele>
        <time>2016-06-22T15:12:02Z</time>
      </trkpt>
      <trkpt lat="45.90507" lon="6.16598">
        <ele>689.31</ele>
        <time>2016-06-22T15:12:13Z</time>
      </trkpt>
      <trkpt lat="45.90516" lon="6.16603">
        <ele>692.21</ele>
        <time>2016-06-22T15:12:24Z</time>
      </trkpt>
      <trkpt lat="45.90526" lon="6.16611">
        <ele>695.12</ele>
        <time>2016-06-22T15:12:35Z</time>
      </trkpt>
      <trkpt lat="45.90529" lon="6.16617">
        <ele>697.81</ele>
        <time>2016-06-22T15:12:46Z</time>
      </trkpt>
      <trkpt lat="45.90527" lon="6.16625">
        <ele>704.02</ele>
        <time>2016-06-22T15:13:18Z</time>
      </trkpt>
      <trkpt lat="45.90538" lon="6.16629">
        <ele>706.74</ele>
        <time>2016-06-22T15:13:29Z</time>
      </trkpt>
      <trkpt lat="45.9055" lon="6.16642">
        <ele>707.98</ele>
        <time>2016-06-22T15:13:40Z</time>
      </trkpt>
      <trkpt lat="45.90554" lon="6.16649">
        <ele>708.77</ele>
        <time>2016-06-22T15:13:50Z</time>
      </trkpt>
      <trkpt lat="45.9056" lon="6.16656">
        <ele>709.8</ele>
        <time>2016-06-22T15:14:01Z</time>
      </trkpt>
      <trkpt lat="45.90567" lon="6.16663">
        <ele>711.48</ele>
        <time>2016-06-22T15:14:11Z</time>
      </trkpt>
      <trkpt lat="45.90574" lon="6.16674">
        <ele>713.63</ele>
        <time>2016-06-22T15:14:22Z</time>
      </trkpt>
      <trkpt lat="45.90576" lon="6.16683">
        <ele>714.99</ele>
        <time>2016-06-22T15:14:32Z</time>
      </trkpt>
      <trkpt lat="45.90582" lon="6.16684">
        <ele>717.41</ele>
        <time>2016-06-22T15:14:43Z</time>
      </trkpt>
      <trkpt lat="45.90602" lon="6.16675">
        <ele>722.29</ele>
        <time>2016-06-22T15:15:04Z</time>
      </trkpt>
      <trkpt lat="45.90609" lon="6.16674">
        <ele>724.14</ele>
        <time>2016-06-22T15:15:14Z</time>
      </trkpt>
      <trkpt lat="45.90613" lon="6.16673">
        <ele>724.77</ele>
        <time>2016-06-22T15:15:25Z</time>
      </trkpt>
      <trkpt lat="45.90613" lon="6.16673">
        <ele>724.97</ele>
        <time>2016-06-22T15:15:35Z</time>
      </trkpt>
      <trkpt lat="45.90613" lon="6.16673">
        <ele>726.51</ele>
        <time>2016-06-22T15:15:46Z</time>
      </trkpt>
      <trkpt lat="45.90613" lon="6.16673">
        <ele>726.69</ele>
        <time>2016-06-22T15:15:57Z</time>
      </trkpt>
      <trkpt lat="45.90613" lon="6.16673">
        <ele>726.82</ele>
        <time>2016-06-22T15:16:08Z</time>
      </trkpt>
      <trkpt lat="45.90612" lon="6.16672">
        <ele>727.07</ele>
        <time>2016-06-22T15:16:18Z</time>
      </trkpt>
      <trkpt lat="45.90609" lon="6.1667">
        <ele>729.17</ele>
        <time>2016-06-22T15:16:50Z</time>
      </trkpt>
      <trkpt lat="45.9061" lon="6.16669">
        <ele>729.33</ele>
        <time>2016-06-22T15:17:01Z</time>
      </trkpt>
      <trkpt lat="45.90611" lon="6.16669">
        <ele>729.31</ele>
        <time>2016-06-22T15:17:11Z</time>
      </trkpt>
      <trkpt lat="45.90612" lon="6.16669">
        <ele>729.84</ele>
        <time>2016-06-22T15:17:21Z</time>
      </trkpt>
      <trkpt lat="45.90612" lon="6.16669">
        <ele>729.65</ele>
        <time>2016-06-22T15:17:32Z</time>
      </trkpt>
      <trkpt lat="45.90613" lon="6.16669">
        <ele>729.7</ele>
        <time>2016-06-22T15:17:43Z</time>
      </trkpt>
      <trkpt lat="45.90613" lon="6.16669">
        <ele>729.85</ele>
        <time>2016-06-22T15:17:54Z</time>
      </trkpt>
      <trkpt lat="45.90613" lon="6.16669">
        <ele>729.92</ele>
        <time>2016-06-22T15:18:05Z</time>
      </trkpt>
      <trkpt lat="45.90613" lon="6.16669">
        <ele>729.96</ele>
        <time>2016-06-22T15:18:16Z</time>
      </trkpt>
      <trkpt lat="45.90614" lon="6.16668">
        <ele>730.18</ele>
        <time>2016-06-22T15:18:27Z</time>
      </trkpt>
      <trkpt lat="45.90614" lon="6.16668">
        <ele>730.3</ele>
        <time>2016-06-22T15:18:38Z</time>
      </trkpt>
      <trkpt lat="45.90614" lon="6.16668">
        <ele>730.56</ele>
        <time>2016-06-22T15:18:49Z</time>
      </trkpt>
      <trkpt lat="45.90614" lon="6.16668">
        <ele>730.78</ele>
        <time>2016-06-22T15:19:00Z</time>
      </trkpt>
      <trkpt lat="45.90614" lon="6.16668">
        <ele>731.03</ele>
        <time>2016-06-22T15:19:11Z</time>
      </trkpt>
      <trkpt lat="45.90614" lon="6.16668">
        <ele>731.21</ele>
        <time>2016-06-22T15:19:21Z</time>
      </trkpt>
      <trkpt lat="45.90614" lon="6.16668">
        <ele>731.41</ele>
        <time>2016-06-22T15:19:31Z</time>
      </trkpt>
      <trkpt lat="45.90614" lon="6.16668">
        <ele>731.57</ele>
        <time>2016-06-22T15:19:42Z</time>
      </trkpt>
      <trkpt lat="45.90614" lon="6.16668">
        <ele>732.14</ele>
        <time>2016-06-22T15:19:52Z</time>
      </trkpt>
      <trkpt lat="45.90613" lon="6.16665">
        <ele>734.47</ele>
        <time>2016-06-22T15:20:03Z</time>
      </trkpt>
      <trkpt lat="45.90613" lon="6.16664">
        <ele>734.8</ele>
        <time>2016-06-22T15:20:14Z</time>
      </trkpt>
      <trkpt lat="45.90613" lon="6.16664">
        <ele>735.04</ele>
        <time>2016-06-22T15:20:24Z</time>
      </trkpt>
      <trkpt lat="45.90613" lon="6.16664">
        <ele>735.19</ele>
        <time>2016-06-22T15:20:35Z</time>
      </trkpt>
      <trkpt lat="45.90613" lon="6.16664">
        <ele>735.23</ele>
        <time>2016-06-22T15:20:46Z</time>
      </trkpt>
      <trkpt lat="45.90613" lon="6.16664">
        <ele>735.2</ele>
        <time>2016-06-22T15:21:18Z</time>
      </trkpt>
      <trkpt lat="45.90613" lon="6.16664">
        <ele>735.13</ele>
        <time>2016-06-22T15:21:29Z</time>
      </trkpt>
      <trkpt lat="45.90613" lon="6.16664">
        <ele>735.19</ele>
        <time>2016-06-22T15:21:40Z</time>
      </trkpt>
      <trkpt lat="45.90613" lon="6.16664">
        <ele>735.31</ele>
        <time>2016-06-22T15:21:50Z</time>
      </trkpt>
      <trkpt lat="45.90613" lon="6.16664">
        <ele>735.48</ele>
        <time>2016-06-22T15:22:00Z</time>
      </trkpt>
      <trkpt lat="45.90613" lon="6.16664">
        <ele>735.61</ele>
        <time>2016-06-22T15:22:11Z</time>
      </trkpt>
      <trkpt lat="45.90613" lon="6.16664">
        <ele>735.47</ele>
        <time>2016-06-22T15:22:22Z</time>
      </trkpt>
      <trkpt lat="45.90613" lon="6.16664">
        <ele>735.11</ele>
        <time>2016-06-22T15:22:33Z</time>
      </trkpt>
      <trkpt lat="45.90613" lon="6.16664">
        <ele>734.61</ele>
        <time>2016-06-22T15:22:43Z</time>
      </trkpt>
      <trkpt lat="45.90613" lon="6.16664">
        <ele>733.22</ele>
        <time>2016-06-22T15:22:54Z</time>
      </trkpt>
      <trkpt lat="45.90613" lon="6.16666">
        <ele>732.64</ele>
        <time>2016-06-22T15:23:05Z</time>
      </trkpt>
      <trkpt lat="45.90612" lon="6.16667">
        <ele>731.66</ele>
        <time>2016-06-22T15:23:16Z</time>
      </trkpt>
      <trkpt lat="45.90605" lon="6.16677">
        <ele>730.76</ele>
        <time>2016-06-22T15:23:26Z</time>
      </trkpt>
      <trkpt lat="45.90601" lon="6.16685">
        <ele>731.63</ele>
        <time>2016-06-22T15:23:37Z</time>
      </trkpt>
      <trkpt lat="45.90598" lon="6.16691">
        <ele>733.55</ele>
        <time>2016-06-22T15:23:48Z</time>
      </trkpt>
      <trkpt lat="45.90595" lon="6.16705">
        <ele>735.28</ele>
        <time>2016-06-22T15:23:58Z</time>
      </trkpt>
      <trkpt lat="45.90602" lon="6.16706">
        <ele>736.79</ele>
        <time>2016-06-22T15:24:09Z</time>
      </trkpt>
      <trkpt lat="45.90608" lon="6.16702">
        <ele>738.43</ele>
        <time>2016-06-22T15:24:20Z</time>
      </trkpt>
      <trkpt lat="45.90625" lon="6.16697">
        <ele>740.99</ele>
        <time>2016-06-22T15:24:51Z</time>
      </trkpt>
      <trkpt lat="45.90623" lon="6.16703">
        <ele>742.34</ele>
        <time>2016-06-22T15:25:01Z</time>
      </trkpt>
      <trkpt lat="45.90621" lon="6.16712">
        <ele>743.65</ele>
        <time>2016-06-22T15:25:12Z</time>
      </trkpt>
      <trkpt lat="45.90616" lon="6.16721">
        <ele>745.46</ele>
        <time>2016-06-22T15:25:22Z</time>
      </trkpt>
      <trkpt lat="45.90615" lon="6.16726">
        <ele>748.12</ele>
        <time>2016-06-22T15:25:33Z</time>
      </trkpt>
      <trkpt lat="45.90618" lon="6.16726">
        <ele>748.96</ele>
        <time>2016-06-22T15:25:44Z</time>
      </trkpt>
      <trkpt lat="45.90627" lon="6.16717">
        <ele>749.42</ele>
        <time>2016-06-22T15:25:55Z</time>
      </trkpt>
      <trkpt lat="45.90644" lon="6.16711">
        <ele>750.72</ele>
        <time>2016-06-22T15:26:06Z</time>
      </trkpt>
      <trkpt lat="45.9065" lon="6.16712">
        <ele>752.51</ele>
        <time>2016-06-22T15:26:16Z</time>
      </trkpt>
      <trkpt lat="45.90666" lon="6.16715">
        <ele>754.6</ele>
        <time>2016-06-22T15:26:27Z</time>
      </trkpt>
      <trkpt lat="45.90675" lon="6.16718">
        <ele>756.31</ele>
        <time>2016-06-22T15:26:37Z</time>
      </trkpt>
      <trkpt lat="45.90684" lon="6.16724">
        <ele>758.02</ele>
        <time>2016-06-22T15:26:47Z</time>
      </trkpt>
      <trkpt lat="45.90692" lon="6.16728">
        <ele>759.39</ele>
        <time>2016-06-22T15:26:58Z</time>
      </trkpt>
      <trkpt lat="45.90692" lon="6.16731">
        <ele>761.42</ele>
        <time>2016-06-22T15:27:09Z</time>
      </trkpt>
      <trkpt lat="45.90681" lon="6.16733">
        <ele>763.22</ele>
        <time>2016-06-22T15:27:20Z</time>
      </trkpt>
      <trkpt lat="45.9067" lon="6.16737">
        <ele>765.58</ele>
        <time>2016-06-22T15:27:31Z</time>
      </trkpt>
      <trkpt lat="45.90665" lon="6.16741">
        <ele>767.21</ele>
        <time>2016-06-22T15:27:41Z</time>
      </trkpt>
      <trkpt lat="45.9066" lon="6.16748">
        <ele>770.23</ele>
        <time>2016-06-22T15:27:52Z</time>
      </trkpt>
      <trkpt lat="45.90655" lon="6.16756">
        <ele>773.11</ele>
        <time>2016-06-22T15:28:02Z</time>
      </trkpt>
      <trkpt lat="45.90651" lon="6.16769">
        <ele>776.01</ele>
        <time>2016-06-22T15:28:13Z</time>
      </trkpt>
      <trkpt lat="45.90641" lon="6.16781">
        <ele>778.49</ele>
        <time>2016-06-22T15:28:24Z</time>
      </trkpt>
      <trkpt lat="45.90632" lon="6.16794">
        <ele>780.08</ele>
        <time>2016-06-22T15:28:34Z</time>
      </trkpt>
      <trkpt lat="45.90634" lon="6.16794">
        <ele>781.58</ele>
        <time>2016-06-22T15:28:44Z</time>
      </trkpt>
      <trkpt lat="45.90644" lon="6.16791">
        <ele>783.3</ele>
        <time>2016-06-22T15:28:55Z</time>
      </trkpt>
      <trkpt lat="45.90651" lon="6.16787">
        <ele>784.06</ele>
        <time>2016-06-22T15:29:06Z</time>
      </trkpt>
      <trkpt lat="45.9066" lon="6.16782">
        <ele>784.25</ele>
        <time>2016-06-22T15:29:16Z</time>
      </trkpt>
      <trkpt lat="45.90671" lon="6.16774">
        <ele>785.64</ele>
        <time>2016-06-22T15:29:27Z</time>
      </trkpt>
      <trkpt lat="45.90665" lon="6.16777">
        <ele>786.39</ele>
        <time>2016-06-22T15:29:38Z</time>
      </trkpt>
      <trkpt lat="45.90657" lon="6.16784">
        <ele>787.63</ele>
        <time>2016-06-22T15:29:48Z</time>
      </trkpt>
      <trkpt lat="45.9065" lon="6.16793">
        <ele>790.21</ele>
        <time>2016-06-22T15:29:59Z</time>
      </trkpt>
      <trkpt lat="45.90643" lon="6.16799">
        <ele>792.89</ele>
        <time>2016-06-22T15:30:09Z</time>
      </trkpt>
      <trkpt lat="45.90649" lon="6.16805">
        <ele>796.03</ele>
        <time>2016-06-22T15:30:20Z</time>
      </trkpt>
      <trkpt lat="45.90656" lon="6.16801">
        <ele>799.17</ele>
        <time>2016-06-22T15:30:31Z</time>
      </trkpt>
      <trkpt lat="45.90667" lon="6.16795">
        <ele>801.8</ele>
        <time>2016-06-22T15:30:41Z</time>
      </trkpt>
      <trkpt lat="45.90676" lon="6.16792">
        <ele>804.59</ele>
        <time>2016-06-22T15:30:52Z</time>
      </trkpt>
      <trkpt lat="45.90685" lon="6.16788">
        <ele>806.54</ele>
        <time>2016-06-22T15:31:03Z</time>
      </trkpt>
      <trkpt lat="45.90679" lon="6.16793">
        <ele>807.71</ele>
        <time>2016-06-22T15:31:13Z</time>
      </trkpt>
      <trkpt lat="45.90672" lon="6.16802">
        <ele>811.25</ele>
        <time>2016-06-22T15:31:24Z</time>
      </trkpt>
      <trkpt lat="45.90667" lon="6.16811">
        <ele>812.85</ele>
        <time>2016-06-22T15:31:34Z</time>
      </trkpt>
      <trkpt lat="45.90657" lon="6.16831">
        <ele>814.42</ele>
        <time>2016-06-22T15:31:45Z</time>
      </trkpt>
      <trkpt lat="45.90653" lon="6.16846">
        <ele>817.13</ele>
        <time>2016-06-22T15:31:56Z</time>
      </trkpt>
      <trkpt lat="45.90655" lon="6.16844">
        <ele>819.85</ele>
        <time>2016-06-22T15:32:06Z</time>
      </trkpt>
      <trkpt lat="45.90666" lon="6.16841">
        <ele>821.99</ele>
        <time>2016-06-22T15:32:17Z</time>
      </trkpt>
      <trkpt lat="45.90676" lon="6.16832">
        <ele>823.06</ele>
        <time>2016-06-22T15:32:28Z</time>
      </trkpt>
      <trkpt lat="45.90686" lon="6.1683">
        <ele>824.1</ele>
        <time>2016-06-22T15:32:39Z</time>
      </trkpt>
      <trkpt lat="45.90695" lon="6.16825">
        <ele>825.77</ele>
        <time>2016-06-22T15:32:50Z</time>
      </trkpt>
      <trkpt lat="45.907" lon="6.16824">
        <ele>827.71</ele>
        <time>2016-06-22T15:33:00Z</time>
      </trkpt>
      <trkpt lat="45.90704" lon="6.16824">
        <ele>829.47</ele>
        <time>2016-06-22T15:33:10Z</time>
      </trkpt>
      <trkpt lat="45.90712" lon="6.1682">
        <ele>831.2</ele>
        <time>2016-06-22T15:33:21Z</time>
      </trkpt>
      <trkpt lat="45.90709" lon="6.16824">
        <ele>833.8</ele>
        <time>2016-06-22T15:33:32Z</time>
      </trkpt>
      <trkpt lat="45.90703" lon="6.1683">
        <ele>836.17</ele>
        <time>2016-06-22T15:33:43Z</time>
      </trkpt>
      <trkpt lat="45.90697" lon="6.16838">
        <ele>837.91</ele>
        <time>2016-06-22T15:33:54Z</time>
      </trkpt>
      <trkpt lat="45.90695" lon="6.16847">
        <ele>840.04</ele>
        <time>2016-06-22T15:34:05Z</time>
      </trkpt>
      <trkpt lat="45.90688" lon="6.16859">
        <ele>841.7</ele>
        <time>2016-06-22T15:34:16Z</time>
      </trkpt>
      <trkpt lat="45.90682" lon="6.16867">
        <ele>842.85</ele>
        <time>2016-06-22T15:34:27Z</time>
      </trkpt>
      <trkpt lat="45.90675" lon="6.16881">
        <ele>844.6</ele>
        <time>2016-06-22T15:34:37Z</time>
      </trkpt>
      <trkpt lat="45.90669" lon="6.16889">
        <ele>846.53</ele>
        <time>2016-06-22T15:34:48Z</time>
      </trkpt>
      <trkpt lat="45.90665" lon="6.169">
        <ele>849.43</ele>
        <time>2016-06-22T15:34:59Z</time>
      </trkpt>
      <trkpt lat="45.90663" lon="6.16919">
        <ele>852.32</ele>
        <time>2016-06-22T15:35:09Z</time>
      </trkpt>
      <trkpt lat="45.90655" lon="6.1693">
        <ele>855.1</ele>
        <time>2016-06-22T15:35:20Z</time>
      </trkpt>
      <trkpt lat="45.90646" lon="6.1694">
        <ele>856.5</ele>
        <time>2016-06-22T15:35:31Z</time>
      </trkpt>
      <trkpt lat="45.90644" lon="6.16936">
        <ele>857.53</ele>
        <time>2016-06-22T15:35:42Z</time>
      </trkpt>
      <trkpt lat="45.90631" lon="6.16941">
        <ele>858.38</ele>
        <time>2016-06-22T15:35:53Z</time>
      </trkpt>
      <trkpt lat="45.9062" lon="6.16947">
        <ele>858.75</ele>
        <time>2016-06-22T15:36:04Z</time>
      </trkpt>
      <trkpt lat="45.9061" lon="6.16953">
        <ele>858.04</ele>
        <time>2016-06-22T15:36:14Z</time>
      </trkpt>
      <trkpt lat="45.90616" lon="6.16957">
        <ele>858.57</ele>
        <time>2016-06-22T15:36:25Z</time>
      </trkpt>
      <trkpt lat="45.90621" lon="6.16958">
        <ele>860.12</ele>
        <time>2016-06-22T15:36:36Z</time>
      </trkpt>
      <trkpt lat="45.90626" lon="6.16962">
        <ele>862.14</ele>
        <time>2016-06-22T15:36:47Z</time>
      </trkpt>
      <trkpt lat="45.90632" lon="6.16971">
        <ele>863.17</ele>
        <time>2016-06-22T15:36:58Z</time>
      </trkpt>
      <trkpt lat="45.90638" lon="6.16972">
        <ele>864.27</ele>
        <time>2016-06-22T15:37:09Z</time>
      </trkpt>
      <trkpt lat="45.90649" lon="6.16974">
        <ele>865.27</ele>
        <time>2016-06-22T15:37:20Z</time>
      </trkpt>
      <trkpt lat="45.90658" lon="6.16979">
        <ele>867.1</ele>
        <time>2016-06-22T15:37:30Z</time>
      </trkpt>
      <trkpt lat="45.90662" lon="6.16984">
        <ele>869.32</ele>
        <time>2016-06-22T15:37:41Z</time>
      </trkpt>
      <trkpt lat="45.90665" lon="6.16981">
        <ele>872.22</ele>
        <time>2016-06-22T15:37:52Z</time>
      </trkpt>
      <trkpt lat="45.90672" lon="6.16981">
        <ele>874.24</ele>
        <time>2016-06-22T15:38:02Z</time>
      </trkpt>
      <trkpt lat="45.90684" lon="6.16978">
        <ele>876.44</ele>
        <time>2016-06-22T15:38:12Z</time>
      </trkpt>
      <trkpt lat="45.90682" lon="6.16979">
        <ele>879.36</ele>
        <time>2016-06-22T15:38:23Z</time>
      </trkpt>
      <trkpt lat="45.90688" lon="6.1698">
        <ele>882.28</ele>
        <time>2016-06-22T15:38:34Z</time>
      </trkpt>
      <trkpt lat="45.9068" lon="6.1699">
        <ele>884.59</ele>
        <time>2016-06-22T15:38:45Z</time>
      </trkpt>
      <trkpt lat="45.90678" lon="6.16999">
        <ele>885.65</ele>
        <time>2016-06-22T15:38:56Z</time>
      </trkpt>
      <trkpt lat="45.90682" lon="6.16998">
        <ele>886.89</ele>
        <time>2016-06-22T15:39:06Z</time>
      </trkpt>
      <trkpt lat="45.90686" lon="6.17003">
        <ele>888.44</ele>
        <time>2016-06-22T15:39:17Z</time>
      </trkpt>
      <trkpt lat="45.90682" lon="6.17016">
        <ele>888.81</ele>
        <time>2016-06-22T15:39:28Z</time>
      </trkpt>
      <trkpt lat="45.90671" lon="6.17022">
        <ele>889.88</ele>
        <time>2016-06-22T15:39:39Z</time>
      </trkpt>
      <trkpt lat="45.90671" lon="6.17027">
        <ele>891.15</ele>
        <time>2016-06-22T15:39:50Z</time>
      </trkpt>
      <trkpt lat="45.90678" lon="6.17024">
        <ele>892.31</ele>
        <time>2016-06-22T15:40:01Z</time>
      </trkpt>
      <trkpt lat="45.90688" lon="6.17024">
        <ele>894.35</ele>
        <time>2016-06-22T15:40:12Z</time>
      </trkpt>
      <trkpt lat="45.90694" lon="6.17029">
        <ele>897.33</ele>
        <time>2016-06-22T15:40:23Z</time>
      </trkpt>
      <trkpt lat="45.90699" lon="6.17036">
        <ele>901.14</ele>
        <time>2016-06-22T15:40:34Z</time>
      </trkpt>
      <trkpt lat="45.90704" lon="6.17039">
        <ele>904.92</ele>
        <time>2016-06-22T15:40:45Z</time>
      </trkpt>
      <trkpt lat="45.90699" lon="6.1704">
        <ele>908.58</ele>
        <time>2016-06-22T15:40:56Z</time>
      </trkpt>
      <trkpt lat="45.90694" lon="6.17039">
        <ele>910.82</ele>
        <time>2016-06-22T15:41:06Z</time>
      </trkpt>
      <trkpt lat="45.90682" lon="6.17046">
        <ele>912.85</ele>
        <time>2016-06-22T15:41:17Z</time>
      </trkpt>
      <trkpt lat="45.9068" lon="6.17049">
        <ele>914.78</ele>
        <time>2016-06-22T15:41:27Z</time>
      </trkpt>
      <trkpt lat="45.9069" lon="6.17053">
        <ele>916.34</ele>
        <time>2016-06-22T15:41:37Z</time>
      </trkpt>
      <trkpt lat="45.907" lon="6.1706">
        <ele>918.22</ele>
        <time>2016-06-22T15:41:48Z</time>
      </trkpt>
      <trkpt lat="45.90707" lon="6.17065">
        <ele>920.91</ele>
        <time>2016-06-22T15:41:59Z</time>
      </trkpt>
      <trkpt lat="45.90706" lon="6.17065">
        <ele>922.72</ele>
        <time>2016-06-22T15:42:09Z</time>
      </trkpt>
      <trkpt lat="45.90698" lon="6.17067">
        <ele>923.14</ele>
        <time>2016-06-22T15:42:20Z</time>
      </trkpt>
      <trkpt lat="45.90694" lon="6.17072">
        <ele>924.74</ele>
        <time>2016-06-22T15:42:31Z</time>
      </trkpt>
      <trkpt lat="45.90696" lon="6.17071">
        <ele>926.93</ele>
        <time>2016-06-22T15:42:42Z</time>
      </trkpt>
      <trkpt lat="45.90704" lon="6.17077">
        <ele>927.85</ele>
        <time>2016-06-22T15:42:52Z</time>
      </trkpt>
      <trkpt lat="45.90712" lon="6.17083">
        <ele>928.56</ele>
        <time>2016-06-22T15:43:03Z</time>
      </trkpt>
      <trkpt lat="45.90716" lon="6.17089">
        <ele>929.52</ele>
        <time>2016-06-22T15:43:14Z</time>
      </trkpt>
      <trkpt lat="45.90719" lon="6.17093">
        <ele>931.79</ele>
        <time>2016-06-22T15:43:25Z</time>
      </trkpt>
      <trkpt lat="45.90718" lon="6.17103">
        <ele>934.04</ele>
        <time>2016-06-22T15:43:36Z</time>
      </trkpt>
      <trkpt lat="45.90727" lon="6.1711">
        <ele>935.94</ele>
        <time>2016-06-22T15:43:47Z</time>
      </trkpt>
      <trkpt lat="45.90734" lon="6.17117">
        <ele>938.09</ele>
        <time>2016-06-22T15:43:58Z</time>
      </trkpt>
      <trkpt lat="45.90744" lon="6.17126">
        <ele>940.34</ele>
        <time>2016-06-22T15:44:09Z</time>
      </trkpt>
      <trkpt lat="45.90751" lon="6.17137">
        <ele>942.64</ele>
        <time>2016-06-22T15:44:20Z</time>
      </trkpt>
      <trkpt lat="45.9076" lon="6.1715">
        <ele>945.49</ele>
        <time>2016-06-22T15:44:31Z</time>
      </trkpt>
      <trkpt lat="45.90769" lon="6.17163">
        <ele>947.95</ele>
        <time>2016-06-22T15:44:42Z</time>
      </trkpt>
      <trkpt lat="45.90774" lon="6.17174">
        <ele>949.53</ele>
        <time>2016-06-22T15:44:53Z</time>
      </trkpt>
      <trkpt lat="45.90783" lon="6.17187">
        <ele>950.93</ele>
        <time>2016-06-22T15:45:03Z</time>
      </trkpt>
      <trkpt lat="45.90789" lon="6.17195">
        <ele>952.94</ele>
        <time>2016-06-22T15:45:14Z</time>
      </trkpt>
      <trkpt lat="45.90801" lon="6.17196">
        <ele>954.86</ele>
        <time>2016-06-22T15:45:25Z</time>
      </trkpt>
      <trkpt lat="45.90812" lon="6.17216">
        <ele>956.25</ele>
        <time>2016-06-22T15:45:36Z</time>
      </trkpt>
      <trkpt lat="45.90818" lon="6.17237">
        <ele>958.24</ele>
        <time>2016-06-22T15:45:47Z</time>
      </trkpt>
      <trkpt lat="45.90823" lon="6.1725">
        <ele>960.71</ele>
        <time>2016-06-22T15:45:58Z</time>
      </trkpt>
      <trkpt lat="45.90823" lon="6.17253">
        <ele>961.74</ele>
        <time>2016-06-22T15:46:08Z</time>
      </trkpt>
      <trkpt lat="45.90823" lon="6.17253">
        <ele>962.39</ele>
        <time>2016-06-22T15:46:19Z</time>
      </trkpt>
      <trkpt lat="45.90823" lon="6.17253">
        <ele>962.78</ele>
        <time>2016-06-22T15:46:30Z</time>
      </trkpt>
      <trkpt lat="45.90822" lon="6.17254">
        <ele>963.09</ele>
        <time>2016-06-22T15:46:40Z</time>
      </trkpt>
      <trkpt lat="45.9082" lon="6.17262">
        <ele>962.38</ele>
        <time>2016-06-22T15:46:51Z</time>
      </trkpt>
      <trkpt lat="45.9082" lon="6.17262">
        <ele>962.05</ele>
        <time>2016-06-22T15:47:01Z</time>
      </trkpt>
      <trkpt lat="45.90821" lon="6.17262">
        <ele>962.08</ele>
        <time>2016-06-22T15:47:12Z</time>
      </trkpt>
      <trkpt lat="45.90822" lon="6.17262">
        <ele>962.74</ele>
        <time>2016-06-22T15:47:22Z</time>
      </trkpt>
      <trkpt lat="45.90823" lon="6.17263">
        <ele>962.46</ele>
        <time>2016-06-22T15:47:33Z</time>
      </trkpt>
      <trkpt lat="45.90824" lon="6.17265">
        <ele>962</ele>
        <time>2016-06-22T15:47:44Z</time>
      </trkpt>
      <trkpt lat="45.90825" lon="6.17265">
        <ele>960.9</ele>
        <time>2016-06-22T15:47:54Z</time>
      </trkpt>
      <trkpt lat="45.90825" lon="6.17265">
        <ele>960.61</ele>
        <time>2016-06-22T15:48:05Z</time>
      </trkpt>
      <trkpt lat="45.90825" lon="6.17265">
        <ele>960.54</ele>
        <time>2016-06-22T15:48:16Z</time>
      </trkpt>
      <trkpt lat="45.90825" lon="6.17265">
        <ele>960.84</ele>
        <time>2016-06-22T15:48:27Z</time>
      </trkpt>
      <trkpt lat="45.90825" lon="6.17265">
        <ele>960.98</ele>
        <time>2016-06-22T15:48:38Z</time>
      </trkpt>
      <trkpt lat="45.90825" lon="6.17265">
        <ele>961.19</ele>
        <time>2016-06-22T15:48:48Z</time>
      </trkpt>
      <trkpt lat="45.90825" lon="6.17265">
        <ele>961.33</ele>
        <time>2016-06-22T15:48:58Z</time>
      </trkpt>
      <trkpt lat="45.90825" lon="6.17265">
        <ele>961.5</ele>
        <time>2016-06-22T15:49:09Z</time>
      </trkpt>
      <trkpt lat="45.90818" lon="6.17271">
        <ele>962.46</ele>
        <time>2016-06-22T15:49:20Z</time>
      </trkpt>
      <trkpt lat="45.90818" lon="6.17271">
        <ele>962.59</ele>
        <time>2016-06-22T15:49:31Z</time>
      </trkpt>
      <trkpt lat="45.90827" lon="6.17268">
        <ele>963.19</ele>
        <time>2016-06-22T15:49:42Z</time>
      </trkpt>
      <trkpt lat="45.90832" lon="6.17269">
        <ele>963.37</ele>
        <time>2016-06-22T15:49:53Z</time>
      </trkpt>
      <trkpt lat="45.90832" lon="6.17267">
        <ele>963.25</ele>
        <time>2016-06-22T15:50:03Z</time>
      </trkpt>
      <trkpt lat="45.90827" lon="6.17265">
        <ele>964.04</ele>
        <time>2016-06-22T15:50:14Z</time>
      </trkpt>
      <trkpt lat="45.90828" lon="6.17265">
        <ele>964.07</ele>
        <time>2016-06-22T15:50:25Z</time>
      </trkpt>
      <trkpt lat="45.90832" lon="6.17266">
        <ele>963.99</ele>
        <time>2016-06-22T15:50:36Z</time>
      </trkpt>
      <trkpt lat="45.90835" lon="6.17264">
        <ele>964.25</ele>
        <time>2016-06-22T15:50:47Z</time>
      </trkpt>
      <trkpt lat="45.90835" lon="6.17264">
        <ele>964.23</ele>
        <time>2016-06-22T15:50:58Z</time>
      </trkpt>
      <trkpt lat="45.90835" lon="6.17263">
        <ele>963.96</ele>
        <time>2016-06-22T15:51:09Z</time>
      </trkpt>
      <trkpt lat="45.90834" lon="6.17262">
        <ele>963.56</ele>
        <time>2016-06-22T15:51:20Z</time>
      </trkpt>
      <trkpt lat="45.90825" lon="6.17268">
        <ele>963.69</ele>
        <time>2016-06-22T15:51:31Z</time>
      </trkpt>
      <trkpt lat="45.90825" lon="6.17268">
        <ele>963.63</ele>
        <time>2016-06-22T15:51:42Z</time>
      </trkpt>
      <trkpt lat="45.90825" lon="6.17268">
        <ele>963.36</ele>
        <time>2016-06-22T15:51:52Z</time>
      </trkpt>
      <trkpt lat="45.90825" lon="6.17268">
        <ele>963.02</ele>
        <time>2016-06-22T15:52:03Z</time>
      </trkpt>
      <trkpt lat="45.90825" lon="6.17268">
        <ele>962.9</ele>
        <time>2016-06-22T15:52:13Z</time>
      </trkpt>
      <trkpt lat="45.90825" lon="6.17268">
        <ele>962.6</ele>
        <time>2016-06-22T15:52:24Z</time>
      </trkpt>
      <trkpt lat="45.90825" lon="6.17268">
        <ele>962.26</ele>
        <time>2016-06-22T15:52:34Z</time>
      </trkpt>
      <trkpt lat="45.90825" lon="6.17268">
        <ele>961.96</ele>
        <time>2016-06-22T15:52:45Z</time>
      </trkpt>
      <trkpt lat="45.90825" lon="6.17268">
        <ele>961.56</ele>
        <time>2016-06-22T15:52:56Z</time>
      </trkpt>
      <trkpt lat="45.90825" lon="6.17268">
        <ele>961.34</ele>
        <time>2016-06-22T15:53:06Z</time>
      </trkpt>
      <trkpt lat="45.90829" lon="6.17267">
        <ele>961.42</ele>
        <time>2016-06-22T15:53:17Z</time>
      </trkpt>
      <trkpt lat="45.90829" lon="6.17266">
        <ele>961.48</ele>
        <time>2016-06-22T15:53:28Z</time>
      </trkpt>
      <trkpt lat="45.90829" lon="6.17266">
        <ele>961.59</ele>
        <time>2016-06-22T15:53:39Z</time>
      </trkpt>
      <trkpt lat="45.90829" lon="6.17266">
        <ele>961.61</ele>
        <time>2016-06-22T15:53:50Z</time>
      </trkpt>
      <trkpt lat="45.90829" lon="6.17266">
        <ele>961.38</ele>
        <time>2016-06-22T15:54:01Z</time>
      </trkpt>
      <trkpt lat="45.9083" lon="6.17265">
        <ele>961.37</ele>
        <time>2016-06-22T15:54:11Z</time>
      </trkpt>
      <trkpt lat="45.90832" lon="6.17264">
        <ele>961.27</ele>
        <time>2016-06-22T15:54:22Z</time>
      </trkpt>
      <trkpt lat="45.90837" lon="6.17264">
        <ele>960.94</ele>
        <time>2016-06-22T15:54:32Z</time>
      </trkpt>
      <trkpt lat="45.90837" lon="6.17264">
        <ele>960.64</ele>
        <time>2016-06-22T15:54:43Z</time>
      </trkpt>
      <trkpt lat="45.90837" lon="6.17264">
        <ele>960.77</ele>
        <time>2016-06-22T15:54:54Z</time>
      </trkpt>
      <trkpt lat="45.90837" lon="6.17264">
        <ele>961.18</ele>
        <time>2016-06-22T15:55:05Z</time>
      </trkpt>
      <trkpt lat="45.90836" lon="6.17264">
        <ele>962.29</ele>
        <time>2016-06-22T15:55:16Z</time>
      </trkpt>
      <trkpt lat="45.90836" lon="6.17264">
        <ele>962.92</ele>
        <time>2016-06-22T15:55:27Z</time>
      </trkpt>
      <trkpt lat="45.90825" lon="6.17259">
        <ele>963.02</ele>
        <time>2016-06-22T15:55:49Z</time>
      </trkpt>
      <trkpt lat="45.90828" lon="6.17256">
        <ele>962.43</ele>
        <time>2016-06-22T15:56:04Z</time>
      </trkpt>
      <trkpt lat="45.9083" lon="6.17256">
        <ele>962.12</ele>
        <time>2016-06-22T15:56:18Z</time>
      </trkpt>
      <trkpt lat="45.90829" lon="6.17257">
        <ele>960.41</ele>
        <time>2016-06-22T15:56:28Z</time>
      </trkpt>
      <trkpt lat="45.90822" lon="6.17261">
        <ele>958.35</ele>
        <time>2016-06-22T15:56:39Z</time>
      </trkpt>
      <trkpt lat="45.90824" lon="6.17265">
        <ele>957.93</ele>
        <time>2016-06-22T15:56:50Z</time>
      </trkpt>
      <trkpt lat="45.90824" lon="6.17266">
        <ele>958</ele>
        <time>2016-06-22T15:57:01Z</time>
      </trkpt>
      <trkpt lat="45.90824" lon="6.17266">
        <ele>958.07</ele>
        <time>2016-06-22T15:57:12Z</time>
      </trkpt>
      <trkpt lat="45.90824" lon="6.17266">
        <ele>958.25</ele>
        <time>2016-06-22T15:57:23Z</time>
      </trkpt>
      <trkpt lat="45.90824" lon="6.17266">
        <ele>958.44</ele>
        <time>2016-06-22T15:57:34Z</time>
      </trkpt>
      <trkpt lat="45.90825" lon="6.17266">
        <ele>957.76</ele>
        <time>2016-06-22T15:57:45Z</time>
      </trkpt>
      <trkpt lat="45.90825" lon="6.17266">
        <ele>957.6</ele>
        <time>2016-06-22T15:57:55Z</time>
      </trkpt>
      <trkpt lat="45.90825" lon="6.17266">
        <ele>957.47</ele>
        <time>2016-06-22T15:58:05Z</time>
      </trkpt>
      <trkpt lat="45.90824" lon="6.17266">
        <ele>957.62</ele>
        <time>2016-06-22T15:58:16Z</time>
      </trkpt>
      <trkpt lat="45.90824" lon="6.17266">
        <ele>957.88</ele>
        <time>2016-06-22T15:58:27Z</time>
      </trkpt>
      <trkpt lat="45.90824" lon="6.17266">
        <ele>958.13</ele>
        <time>2016-06-22T15:58:38Z</time>
      </trkpt>
      <trkpt lat="45.90824" lon="6.17266">
        <ele>958.14</ele>
        <time>2016-06-22T15:58:49Z</time>
      </trkpt>
      <trkpt lat="45.90824" lon="6.17266">
        <ele>959.41</ele>
        <time>2016-06-22T15:58:59Z</time>
      </trkpt>
      <trkpt lat="45.90823" lon="6.17265">
        <ele>960.56</ele>
        <time>2016-06-22T15:59:10Z</time>
      </trkpt>
      <trkpt lat="45.90824" lon="6.17265">
        <ele>960.65</ele>
        <time>2016-06-22T15:59:20Z</time>
      </trkpt>
      <trkpt lat="45.90824" lon="6.17264">
        <ele>960.51</ele>
        <time>2016-06-22T15:59:31Z</time>
      </trkpt>
      <trkpt lat="45.90824" lon="6.17259">
        <ele>960.23</ele>
        <time>2016-06-22T15:59:42Z</time>
      </trkpt>
      <trkpt lat="45.9082" lon="6.1725">
        <ele>960.68</ele>
        <time>2016-06-22T15:59:52Z</time>
      </trkpt>
      <trkpt lat="45.90816" lon="6.17246">
        <ele>961.56</ele>
        <time>2016-06-22T16:00:03Z</time>
      </trkpt>
      <trkpt lat="45.90809" lon="6.17241">
        <ele>963.23</ele>
        <time>2016-06-22T16:00:13Z</time>
      </trkpt>
      <trkpt lat="45.90797" lon="6.17234">
        <ele>965.27</ele>
        <time>2016-06-22T16:00:24Z</time>
      </trkpt>
      <trkpt lat="45.90788" lon="6.17229">
        <ele>966.83</ele>
        <time>2016-06-22T16:00:35Z</time>
      </trkpt>
      <trkpt lat="45.90779" lon="6.17225">
        <ele>968.65</ele>
        <time>2016-06-22T16:00:45Z</time>
      </trkpt>
      <trkpt lat="45.90769" lon="6.17216">
        <ele>970.49</ele>
        <time>2016-06-22T16:00:56Z</time>
      </trkpt>
      <trkpt lat="45.90759" lon="6.17209">
        <ele>971.39</ele>
        <time>2016-06-22T16:01:06Z</time>
      </trkpt>
      <trkpt lat="45.90748" lon="6.17203">
        <ele>972.51</ele>
        <time>2016-06-22T16:01:17Z</time>
      </trkpt>
      <trkpt lat="45.90744" lon="6.17207">
        <ele>973.99</ele>
        <time>2016-06-22T16:01:27Z</time>
      </trkpt>
      <trkpt lat="45.90749" lon="6.17219">
        <ele>974.37</ele>
        <time>2016-06-22T16:01:38Z</time>
      </trkpt>
      <trkpt lat="45.90751" lon="6.17228">
        <ele>973.85</ele>
        <time>2016-06-22T16:01:49Z</time>
      </trkpt>
      <trkpt lat="45.90756" lon="6.17239">
        <ele>975.08</ele>
        <time>2016-06-22T16:02:00Z</time>
      </trkpt>
      <trkpt lat="45.90762" lon="6.17257">
        <ele>976.46</ele>
        <time>2016-06-22T16:02:11Z</time>
      </trkpt>
      <trkpt lat="45.90765" lon="6.1727">
        <ele>977.61</ele>
        <time>2016-06-22T16:02:21Z</time>
      </trkpt>
      <trkpt lat="45.90772" lon="6.17281">
        <ele>977.33</ele>
        <time>2016-06-22T16:02:32Z</time>
      </trkpt>
      <trkpt lat="45.90777" lon="6.17298">
        <ele>978.24</ele>
        <time>2016-06-22T16:02:42Z</time>
      </trkpt>
      <trkpt lat="45.90779" lon="6.17308">
        <ele>978.76</ele>
        <time>2016-06-22T16:02:53Z</time>
      </trkpt>
      <trkpt lat="45.90783" lon="6.17321">
        <ele>978.76</ele>
        <time>2016-06-22T16:03:04Z</time>
      </trkpt>
      <trkpt lat="45.9078" lon="6.1732">
        <ele>980.06</ele>
        <time>2016-06-22T16:03:15Z</time>
      </trkpt>
      <trkpt lat="45.90777" lon="6.17334">
        <ele>982.64</ele>
        <time>2016-06-22T16:03:26Z</time>
      </trkpt>
      <trkpt lat="45.90775" lon="6.17343">
        <ele>985.39</ele>
        <time>2016-06-22T16:03:37Z</time>
      </trkpt>
      <trkpt lat="45.90777" lon="6.1736">
        <ele>989.15</ele>
        <time>2016-06-22T16:03:48Z</time>
      </trkpt>
      <trkpt lat="45.90778" lon="6.17372">
        <ele>992.03</ele>
        <time>2016-06-22T16:03:59Z</time>
      </trkpt>
      <trkpt lat="45.90776" lon="6.17372">
        <ele>994.48</ele>
        <time>2016-06-22T16:04:10Z</time>
      </trkpt>
      <trkpt lat="45.90767" lon="6.17369">
        <ele>995.68</ele>
        <time>2016-06-22T16:04:21Z</time>
      </trkpt>
      <trkpt lat="45.90759" lon="6.17378">
        <ele>997.34</ele>
        <time>2016-06-22T16:04:31Z</time>
      </trkpt>
      <trkpt lat="45.90753" lon="6.17369">
        <ele>998.53</ele>
        <time>2016-06-22T16:04:42Z</time>
      </trkpt>
      <trkpt lat="45.90746" lon="6.17357">
        <ele>1000.29</ele>
        <time>2016-06-22T16:04:53Z</time>
      </trkpt>
      <trkpt lat="45.90747" lon="6.17359">
        <ele>1002.56</ele>
        <time>2016-06-22T16:05:04Z</time>
      </trkpt>
      <trkpt lat="45.90744" lon="6.17378">
        <ele>1004.11</ele>
        <time>2016-06-22T16:05:15Z</time>
      </trkpt>
      <trkpt lat="45.90742" lon="6.17392">
        <ele>1005.35</ele>
        <time>2016-06-22T16:05:26Z</time>
      </trkpt>
      <trkpt lat="45.90739" lon="6.17392">
        <ele>1005.76</ele>
        <time>2016-06-22T16:05:37Z</time>
      </trkpt>
      <trkpt lat="45.90737" lon="6.17388">
        <ele>1005.83</ele>
        <time>2016-06-22T16:05:47Z</time>
      </trkpt>
      <trkpt lat="45.9073" lon="6.17377">
        <ele>1007.77</ele>
        <time>2016-06-22T16:05:58Z</time>
      </trkpt>
      <trkpt lat="45.90723" lon="6.17368">
        <ele>1009.46</ele>
        <time>2016-06-22T16:06:08Z</time>
      </trkpt>
      <trkpt lat="45.90719" lon="6.17358">
        <ele>1011.76</ele>
        <time>2016-06-22T16:06:18Z</time>
      </trkpt>
      <trkpt lat="45.90712" lon="6.17344">
        <ele>1014.82</ele>
        <time>2016-06-22T16:06:29Z</time>
      </trkpt>
      <trkpt lat="45.90705" lon="6.17329">
        <ele>1018.78</ele>
        <time>2016-06-22T16:06:40Z</time>
      </trkpt>
      <trkpt lat="45.90697" lon="6.17317">
        <ele>1022.85</ele>
        <time>2016-06-22T16:06:51Z</time>
      </trkpt>
      <trkpt lat="45.90687" lon="6.17307">
        <ele>1026.98</ele>
        <time>2016-06-22T16:07:02Z</time>
      </trkpt>
      <trkpt lat="45.9068" lon="6.17295">
        <ele>1030.26</ele>
        <time>2016-06-22T16:07:13Z</time>
      </trkpt>
      <trkpt lat="45.90674" lon="6.17286">
        <ele>1032.98</ele>
        <time>2016-06-22T16:07:24Z</time>
      </trkpt>
      <trkpt lat="45.90665" lon="6.17277">
        <ele>1035.81</ele>
        <time>2016-06-22T16:07:35Z</time>
      </trkpt>
      <trkpt lat="45.90654" lon="6.1728">
        <ele>1037.15</ele>
        <time>2016-06-22T16:07:46Z</time>
      </trkpt>
      <trkpt lat="45.90646" lon="6.17287">
        <ele>1038.6</ele>
        <time>2016-06-22T16:07:57Z</time>
      </trkpt>
      <trkpt lat="45.90642" lon="6.17295">
        <ele>1040.7</ele>
        <time>2016-06-22T16:08:07Z</time>
      </trkpt>
      <trkpt lat="45.90635" lon="6.17285">
        <ele>1042.84</ele>
        <time>2016-06-22T16:08:18Z</time>
      </trkpt>
      <trkpt lat="45.9062" lon="6.17279">
        <ele>1044.31</ele>
        <time>2016-06-22T16:08:29Z</time>
      </trkpt>
      <trkpt lat="45.90612" lon="6.17272">
        <ele>1045.77</ele>
        <time>2016-06-22T16:08:40Z</time>
      </trkpt>
      <trkpt lat="45.90602" lon="6.17262">
        <ele>1046.83</ele>
        <time>2016-06-22T16:08:51Z</time>
      </trkpt>
      <trkpt lat="45.90597" lon="6.17251">
        <ele>1047.81</ele>
        <time>2016-06-22T16:09:01Z</time>
      </trkpt>
      <trkpt lat="45.90588" lon="6.17241">
        <ele>1048.72</ele>
        <time>2016-06-22T16:09:12Z</time>
      </trkpt>
      <trkpt lat="45.90578" lon="6.17232">
        <ele>1050.05</ele>
        <time>2016-06-22T16:09:23Z</time>
      </trkpt>
      <trkpt lat="45.90566" lon="6.17227">
        <ele>1046.51</ele>
        <time>2016-06-22T16:09:36Z</time>
      </trkpt>
      <trkpt lat="45.90556" lon="6.1722">
        <ele>1033.52</ele>
        <time>2016-06-22T16:09:47Z</time>
      </trkpt>
      <trkpt lat="45.90562" lon="6.17224">
        <ele>1026.25</ele>
        <time>2016-06-22T16:09:57Z</time>
      </trkpt>
      <trkpt lat="45.90564" lon="6.17227">
        <ele>1025.27</ele>
        <time>2016-06-22T16:10:08Z</time>
      </trkpt>
      <trkpt lat="45.90565" lon="6.17228">
        <ele>1025.41</ele>
        <time>2016-06-22T16:10:19Z</time>
      </trkpt>
      <trkpt lat="45.90564" lon="6.17224">
        <ele>1025.58</ele>
        <time>2016-06-22T16:10:30Z</time>
      </trkpt>
      <trkpt lat="45.9056" lon="6.17221">
        <ele>1025.77</ele>
        <time>2016-06-22T16:10:40Z</time>
      </trkpt>
      <trkpt lat="45.90562" lon="6.17221">
        <ele>1026.65</ele>
        <time>2016-06-22T16:10:51Z</time>
      </trkpt>
      <trkpt lat="45.90564" lon="6.17222">
        <ele>1029.16</ele>
        <time>2016-06-22T16:11:02Z</time>
      </trkpt>
      <trkpt lat="45.90568" lon="6.17214">
        <ele>1031.91</ele>
        <time>2016-06-22T16:11:13Z</time>
      </trkpt>
      <trkpt lat="45.90568" lon="6.17213">
        <ele>1035.12</ele>
        <time>2016-06-22T16:11:23Z</time>
      </trkpt>
      <trkpt lat="45.90563" lon="6.17222">
        <ele>1037.52</ele>
        <time>2016-06-22T16:11:34Z</time>
      </trkpt>
      <trkpt lat="45.90562" lon="6.17224">
        <ele>1038.58</ele>
        <time>2016-06-22T16:11:44Z</time>
      </trkpt>
      <trkpt lat="45.90562" lon="6.17227">
        <ele>1040.22</ele>
        <time>2016-06-22T16:11:55Z</time>
      </trkpt>
      <trkpt lat="45.90565" lon="6.17228">
        <ele>1041.48</ele>
        <time>2016-06-22T16:12:06Z</time>
      </trkpt>
      <trkpt lat="45.9057" lon="6.17228">
        <ele>1042.28</ele>
        <time>2016-06-22T16:12:16Z</time>
      </trkpt>
      <trkpt lat="45.90572" lon="6.17228">
        <ele>1042.81</ele>
        <time>2016-06-22T16:12:26Z</time>
      </trkpt>
      <trkpt lat="45.90573" lon="6.17228">
        <ele>1044.68</ele>
        <time>2016-06-22T16:12:36Z</time>
      </trkpt>
      <trkpt lat="45.90573" lon="6.17228">
        <ele>1046.21</ele>
        <time>2016-06-22T16:12:47Z</time>
      </trkpt>
      <trkpt lat="45.90574" lon="6.17232">
        <ele>1046.56</ele>
        <time>2016-06-22T16:12:58Z</time>
      </trkpt>
      <trkpt lat="45.90573" lon="6.17232">
        <ele>1046.41</ele>
        <time>2016-06-22T16:13:09Z</time>
      </trkpt>
      <trkpt lat="45.90572" lon="6.17233">
        <ele>1046.78</ele>
        <time>2016-06-22T16:13:20Z</time>
      </trkpt>
      <trkpt lat="45.90573" lon="6.17232">
        <ele>1046.91</ele>
        <time>2016-06-22T16:13:31Z</time>
      </trkpt>
      <trkpt lat="45.90572" lon="6.17234">
        <ele>1047.1</ele>
        <time>2016-06-22T16:13:42Z</time>
      </trkpt>
      <trkpt lat="45.90572" lon="6.17236">
        <ele>1046.76</ele>
        <time>2016-06-22T16:13:52Z</time>
      </trkpt>
      <trkpt lat="45.90572" lon="6.17235">
        <ele>1046.7</ele>
        <time>2016-06-22T16:14:03Z</time>
      </trkpt>
      <trkpt lat="45.90575" lon="6.17233">
        <ele>1046.92</ele>
        <time>2016-06-22T16:14:14Z</time>
      </trkpt>
      <trkpt lat="45.90575" lon="6.17229">
        <ele>1049.02</ele>
        <time>2016-06-22T16:14:25Z</time>
      </trkpt>
      <trkpt lat="45.90575" lon="6.17231">
        <ele>1050.12</ele>
        <time>2016-06-22T16:14:36Z</time>
      </trkpt>
      <trkpt lat="45.90573" lon="6.17232">
        <ele>1050.98</ele>
        <time>2016-06-22T16:14:47Z</time>
      </trkpt>
      <trkpt lat="45.9057" lon="6.17233">
        <ele>1051.9</ele>
        <time>2016-06-22T16:14:58Z</time>
      </trkpt>
      <trkpt lat="45.90571" lon="6.17234">
        <ele>1051.63</ele>
        <time>2016-06-22T16:15:09Z</time>
      </trkpt>
      <trkpt lat="45.90572" lon="6.17234">
        <ele>1052.31</ele>
        <time>2016-06-22T16:15:19Z</time>
      </trkpt>
      <trkpt lat="45.90566" lon="6.1723">
        <ele>1052.59</ele>
        <time>2016-06-22T16:15:30Z</time>
      </trkpt>
      <trkpt lat="45.9056" lon="6.17231">
        <ele>1053.38</ele>
        <time>2016-06-22T16:15:41Z</time>
      </trkpt>
      <trkpt lat="45.90546" lon="6.1724">
        <ele>1058.77</ele>
        <time>2016-06-22T16:16:13Z</time>
      </trkpt>
      <trkpt lat="45.90544" lon="6.17243">
        <ele>1059.83</ele>
        <time>2016-06-22T16:16:24Z</time>
      </trkpt>
      <trkpt lat="45.90546" lon="6.17245">
        <ele>1061.04</ele>
        <time>2016-06-22T16:16:34Z</time>
      </trkpt>
      <trkpt lat="45.90553" lon="6.17251">
        <ele>1062.35</ele>
        <time>2016-06-22T16:16:45Z</time>
      </trkpt>
      <trkpt lat="45.90549" lon="6.17253">
        <ele>1064.13</ele>
        <time>2016-06-22T16:16:56Z</time>
      </trkpt>
      <trkpt lat="45.90541" lon="6.17256">
        <ele>1066.1</ele>
        <time>2016-06-22T16:17:07Z</time>
      </trkpt>
      <trkpt lat="45.9053" lon="6.17258">
        <ele>1066.93</ele>
        <time>2016-06-22T16:17:18Z</time>
      </trkpt>
      <trkpt lat="45.90533" lon="6.17263">
        <ele>1068.82</ele>
        <time>2016-06-22T16:17:28Z</time>
      </trkpt>
      <trkpt lat="45.90542" lon="6.17268">
        <ele>1069.31</ele>
        <time>2016-06-22T16:17:38Z</time>
      </trkpt>
      <trkpt lat="45.90547" lon="6.17279">
        <ele>1069.85</ele>
        <time>2016-06-22T16:17:49Z</time>
      </trkpt>
      <trkpt lat="45.90541" lon="6.17281">
        <ele>1072.41</ele>
        <time>2016-06-22T16:17:59Z</time>
      </trkpt>
      <trkpt lat="45.90532" lon="6.17281">
        <ele>1073.57</ele>
        <time>2016-06-22T16:18:09Z</time>
      </trkpt>
      <trkpt lat="45.90529" lon="6.17283">
        <ele>1076.48</ele>
        <time>2016-06-22T16:18:20Z</time>
      </trkpt>
      <trkpt lat="45.90533" lon="6.17289">
        <ele>1078.75</ele>
        <time>2016-06-22T16:18:31Z</time>
      </trkpt>
      <trkpt lat="45.90539" lon="6.17298">
        <ele>1080.65</ele>
        <time>2016-06-22T16:18:42Z</time>
      </trkpt>
      <trkpt lat="45.90546" lon="6.17309">
        <ele>1083.67</ele>
        <time>2016-06-22T16:18:53Z</time>
      </trkpt>
      <trkpt lat="45.9055" lon="6.17313">
        <ele>1085.77</ele>
        <time>2016-06-22T16:19:04Z</time>
      </trkpt>
      <trkpt lat="45.90548" lon="6.17313">
        <ele>1088.33</ele>
        <time>2016-06-22T16:19:15Z</time>
      </trkpt>
      <trkpt lat="45.9055" lon="6.17322">
        <ele>1091.11</ele>
        <time>2016-06-22T16:19:26Z</time>
      </trkpt>
      <trkpt lat="45.90555" lon="6.17327">
        <ele>1094.63</ele>
        <time>2016-06-22T16:19:37Z</time>
      </trkpt>
      <trkpt lat="45.90558" lon="6.17335">
        <ele>1097.04</ele>
        <time>2016-06-22T16:19:47Z</time>
      </trkpt>
      <trkpt lat="45.90559" lon="6.17344">
        <ele>1098.52</ele>
        <time>2016-06-22T16:19:58Z</time>
      </trkpt>
      <trkpt lat="45.90562" lon="6.17356">
        <ele>1100.53</ele>
        <time>2016-06-22T16:20:09Z</time>
      </trkpt>
      <trkpt lat="45.90565" lon="6.1737">
        <ele>1102.75</ele>
        <time>2016-06-22T16:20:20Z</time>
      </trkpt>
      <trkpt lat="45.90569" lon="6.17384">
        <ele>1105.94</ele>
        <time>2016-06-22T16:20:31Z</time>
      </trkpt>
      <trkpt lat="45.90566" lon="6.17396">
        <ele>1108.37</ele>
        <time>2016-06-22T16:20:42Z</time>
      </trkpt>
      <trkpt lat="45.90563" lon="6.17397">
        <ele>1110.39</ele>
        <time>2016-06-22T16:20:52Z</time>
      </trkpt>
      <trkpt lat="45.90556" lon="6.17397">
        <ele>1111.23</ele>
        <time>2016-06-22T16:21:03Z</time>
      </trkpt>
      <trkpt lat="45.9055" lon="6.17395">
        <ele>1112.6</ele>
        <time>2016-06-22T16:21:14Z</time>
      </trkpt>
      <trkpt lat="45.90544" lon="6.17394">
        <ele>1113.12</ele>
        <time>2016-06-22T16:21:24Z</time>
      </trkpt>
      <trkpt lat="45.90539" lon="6.1739">
        <ele>1114.02</ele>
        <time>2016-06-22T16:21:35Z</time>
      </trkpt>
      <trkpt lat="45.90533" lon="6.17386">
        <ele>1115.82</ele>
        <time>2016-06-22T16:21:46Z</time>
      </trkpt>
      <trkpt lat="45.9053" lon="6.1738">
        <ele>1117.09</ele>
        <time>2016-06-22T16:21:57Z</time>
      </trkpt>
      <trkpt lat="45.9053" lon="6.17384">
        <ele>1119.83</ele>
        <time>2016-06-22T16:22:08Z</time>
      </trkpt>
      <trkpt lat="45.90527" lon="6.17393">
        <ele>1121.94</ele>
        <time>2016-06-22T16:22:18Z</time>
      </trkpt>
      <trkpt lat="45.90532" lon="6.17404">
        <ele>1123.47</ele>
        <time>2016-06-22T16:22:29Z</time>
      </trkpt>
      <trkpt lat="45.9053" lon="6.17411">
        <ele>1125.58</ele>
        <time>2016-06-22T16:22:40Z</time>
      </trkpt>
      <trkpt lat="45.90529" lon="6.17417">
        <ele>1127.2</ele>
        <time>2016-06-22T16:22:51Z</time>
      </trkpt>
      <trkpt lat="45.90528" lon="6.17422">
        <ele>1129.6</ele>
        <time>2016-06-22T16:23:02Z</time>
      </trkpt>
      <trkpt lat="45.9053" lon="6.1743">
        <ele>1132.34</ele>
        <time>2016-06-22T16:23:13Z</time>
      </trkpt>
      <trkpt lat="45.9053" lon="6.17433">
        <ele>1134.14</ele>
        <time>2016-06-22T16:23:23Z</time>
      </trkpt>
      <trkpt lat="45.90529" lon="6.17442">
        <ele>1136.35</ele>
        <time>2016-06-22T16:23:34Z</time>
      </trkpt>
      <trkpt lat="45.9053" lon="6.17451">
        <ele>1137.64</ele>
        <time>2016-06-22T16:23:44Z</time>
      </trkpt>
      <trkpt lat="45.90531" lon="6.17456">
        <ele>1140.12</ele>
        <time>2016-06-22T16:23:55Z</time>
      </trkpt>
      <trkpt lat="45.90532" lon="6.17461">
        <ele>1142.45</ele>
        <time>2016-06-22T16:24:05Z</time>
      </trkpt>
      <trkpt lat="45.90531" lon="6.17472">
        <ele>1145.49</ele>
        <time>2016-06-22T16:24:16Z</time>
      </trkpt>
      <trkpt lat="45.90528" lon="6.17477">
        <ele>1148.02</ele>
        <time>2016-06-22T16:24:26Z</time>
      </trkpt>
      <trkpt lat="45.90524" lon="6.17484">
        <ele>1151.07</ele>
        <time>2016-06-22T16:24:37Z</time>
      </trkpt>
      <trkpt lat="45.90522" lon="6.17481">
        <ele>1153.14</ele>
        <time>2016-06-22T16:24:47Z</time>
      </trkpt>
      <trkpt lat="45.90517" lon="6.17486">
        <ele>1154.8</ele>
        <time>2016-06-22T16:24:58Z</time>
      </trkpt>
      <trkpt lat="45.90516" lon="6.17485">
        <ele>1156.5</ele>
        <time>2016-06-22T16:25:09Z</time>
      </trkpt>
      <trkpt lat="45.90512" lon="6.17486">
        <ele>1157.9</ele>
        <time>2016-06-22T16:25:20Z</time>
      </trkpt>
      <trkpt lat="45.90508" lon="6.17484">
        <ele>1159.7</ele>
        <time>2016-06-22T16:25:31Z</time>
      </trkpt>
      <trkpt lat="45.90504" lon="6.17478">
        <ele>1160.96</ele>
        <time>2016-06-22T16:25:42Z</time>
      </trkpt>
      <trkpt lat="45.90498" lon="6.17472">
        <ele>1162.08</ele>
        <time>2016-06-22T16:25:53Z</time>
      </trkpt>
      <trkpt lat="45.90494" lon="6.17463">
        <ele>1163.54</ele>
        <time>2016-06-22T16:26:03Z</time>
      </trkpt>
      <trkpt lat="45.90485" lon="6.17453">
        <ele>1165.55</ele>
        <time>2016-06-22T16:26:14Z</time>
      </trkpt>
      <trkpt lat="45.90481" lon="6.17449">
        <ele>1166.6</ele>
        <time>2016-06-22T16:26:25Z</time>
      </trkpt>
      <trkpt lat="45.90474" lon="6.17443">
        <ele>1168.74</ele>
        <time>2016-06-22T16:26:36Z</time>
      </trkpt>
      <trkpt lat="45.9047" lon="6.17437">
        <ele>1170.04</ele>
        <time>2016-06-22T16:26:47Z</time>
      </trkpt>
      <trkpt lat="45.90467" lon="6.17436">
        <ele>1171.96</ele>
        <time>2016-06-22T16:26:58Z</time>
      </trkpt>
      <trkpt lat="45.90464" lon="6.17436">
        <ele>1174.11</ele>
        <time>2016-06-22T16:27:09Z</time>
      </trkpt>
      <trkpt lat="45.90458" lon="6.17431">
        <ele>1174.76</ele>
        <time>2016-06-22T16:27:20Z</time>
      </trkpt>
      <trkpt lat="45.90451" lon="6.17432">
        <ele>1175.5</ele>
        <time>2016-06-22T16:27:30Z</time>
      </trkpt>
      <trkpt lat="45.9045" lon="6.17428">
        <ele>1177.72</ele>
        <time>2016-06-22T16:27:40Z</time>
      </trkpt>
      <trkpt lat="45.90449" lon="6.17429">
        <ele>1180.76</ele>
        <time>2016-06-22T16:27:51Z</time>
      </trkpt>
      <trkpt lat="45.90448" lon="6.1743">
        <ele>1183.39</ele>
        <time>2016-06-22T16:28:02Z</time>
      </trkpt>
      <trkpt lat="45.90445" lon="6.17431">
        <ele>1184.06</ele>
        <time>2016-06-22T16:28:12Z</time>
      </trkpt>
      <trkpt lat="45.90445" lon="6.17429">
        <ele>1183.01</ele>
        <time>2016-06-22T16:28:23Z</time>
      </trkpt>
      <trkpt lat="45.90446" lon="6.1743">
        <ele>1182.62</ele>
        <time>2016-06-22T16:28:34Z</time>
      </trkpt>
      <trkpt lat="45.90446" lon="6.17434">
        <ele>1183.37</ele>
        <time>2016-06-22T16:28:45Z</time>
      </trkpt>
      <trkpt lat="45.90444" lon="6.17434">
        <ele>1184</ele>
        <time>2016-06-22T16:28:56Z</time>
      </trkpt>
      <trkpt lat="45.90443" lon="6.17434">
        <ele>1187.13</ele>
        <time>2016-06-22T16:29:07Z</time>
      </trkpt>
      <trkpt lat="45.90444" lon="6.17432">
        <ele>1186.88</ele>
        <time>2016-06-22T16:29:17Z</time>
      </trkpt>
      <trkpt lat="45.90444" lon="6.17432">
        <ele>1186.35</ele>
        <time>2016-06-22T16:29:28Z</time>
      </trkpt>
      <trkpt lat="45.90445" lon="6.17431">
        <ele>1184.74</ele>
        <time>2016-06-22T16:29:39Z</time>
      </trkpt>
      <trkpt lat="45.90445" lon="6.1743">
        <ele>1184.5</ele>
        <time>2016-06-22T16:29:50Z</time>
      </trkpt>
      <trkpt lat="45.90446" lon="6.17432">
        <ele>1185.06</ele>
        <time>2016-06-22T16:30:01Z</time>
      </trkpt>
      <trkpt lat="45.90447" lon="6.17432">
        <ele>1185.54</ele>
        <time>2016-06-22T16:30:11Z</time>
      </trkpt>
      <trkpt lat="45.90448" lon="6.17431">
        <ele>1187</ele>
        <time>2016-06-22T16:30:22Z</time>
      </trkpt>
      <trkpt lat="45.90449" lon="6.17433">
        <ele>1187.26</ele>
        <time>2016-06-22T16:30:33Z</time>
      </trkpt>
      <trkpt lat="45.90447" lon="6.17433">
        <ele>1187.32</ele>
        <time>2016-06-22T16:30:43Z</time>
      </trkpt>
      <trkpt lat="45.90446" lon="6.17431">
        <ele>1185.94</ele>
        <time>2016-06-22T16:30:54Z</time>
      </trkpt>
      <trkpt lat="45.90447" lon="6.1743">
        <ele>1185.98</ele>
        <time>2016-06-22T16:31:05Z</time>
      </trkpt>
      <trkpt lat="45.90446" lon="6.17429">
        <ele>1186.78</ele>
        <time>2016-06-22T16:31:16Z</time>
      </trkpt>
      <trkpt lat="45.90446" lon="6.17428">
        <ele>1186.96</ele>
        <time>2016-06-22T16:31:26Z</time>
      </trkpt>
      <trkpt lat="45.90445" lon="6.17426">
        <ele>1187.1</ele>
        <time>2016-06-22T16:31:37Z</time>
      </trkpt>
      <trkpt lat="45.90444" lon="6.17427">
        <ele>1187.06</ele>
        <time>2016-06-22T16:31:47Z</time>
      </trkpt>
      <trkpt lat="45.90444" lon="6.17428">
        <ele>1186.01</ele>
        <time>2016-06-22T16:31:58Z</time>
      </trkpt>
      <trkpt lat="45.90445" lon="6.1743">
        <ele>1186.36</ele>
        <time>2016-06-22T16:32:08Z</time>
      </trkpt>
      <trkpt lat="45.90444" lon="6.17432">
        <ele>1185.32</ele>
        <time>2016-06-22T16:32:19Z</time>
      </trkpt>
      <trkpt lat="45.90442" lon="6.17432">
        <ele>1183.59</ele>
        <time>2016-06-22T16:32:29Z</time>
      </trkpt>
      <trkpt lat="45.90444" lon="6.17433">
        <ele>1183.01</ele>
        <time>2016-06-22T16:32:40Z</time>
      </trkpt>
      <trkpt lat="45.90445" lon="6.17432">
        <ele>1183.74</ele>
        <time>2016-06-22T16:32:51Z</time>
      </trkpt>
      <trkpt lat="45.90446" lon="6.17431">
        <ele>1183.36</ele>
        <time>2016-06-22T16:33:01Z</time>
      </trkpt>
      <trkpt lat="45.90446" lon="6.1743">
        <ele>1183.2</ele>
        <time>2016-06-22T16:33:12Z</time>
      </trkpt>
      <trkpt lat="45.90446" lon="6.17429">
        <ele>1182.78</ele>
        <time>2016-06-22T16:33:23Z</time>
      </trkpt>
      <trkpt lat="45.90449" lon="6.1743">
        <ele>1182.34</ele>
        <time>2016-06-22T16:33:33Z</time>
      </trkpt>
      <trkpt lat="45.90446" lon="6.17431">
        <ele>1182.03</ele>
        <time>2016-06-22T16:33:44Z</time>
      </trkpt>
      <trkpt lat="45.90448" lon="6.1743">
        <ele>1181.94</ele>
        <time>2016-06-22T16:33:55Z</time>
      </trkpt>
      <trkpt lat="45.90448" lon="6.17432">
        <ele>1182.29</ele>
        <time>2016-06-22T16:34:05Z</time>
      </trkpt>
      <trkpt lat="45.90449" lon="6.17429">
        <ele>1182.5</ele>
        <time>2016-06-22T16:34:16Z</time>
      </trkpt>
      <trkpt lat="45.90447" lon="6.17432">
        <ele>1183.47</ele>
        <time>2016-06-22T16:34:26Z</time>
      </trkpt>
      <trkpt lat="45.90447" lon="6.17434">
        <ele>1185.16</ele>
        <time>2016-06-22T16:34:36Z</time>
      </trkpt>
      <trkpt lat="45.90449" lon="6.17431">
        <ele>1185.16</ele>
        <time>2016-06-22T16:34:46Z</time>
      </trkpt>
      <trkpt lat="45.90445" lon="6.17422">
        <ele>1185.67</ele>
        <time>2016-06-22T16:34:57Z</time>
      </trkpt>
      <trkpt lat="45.90437" lon="6.1742">
        <ele>1186.03</ele>
        <time>2016-06-22T16:35:08Z</time>
      </trkpt>
      <trkpt lat="45.90431" lon="6.17419">
        <ele>1186.59</ele>
        <time>2016-06-22T16:35:18Z</time>
      </trkpt>
      <trkpt lat="45.90427" lon="6.17419">
        <ele>1188.25</ele>
        <time>2016-06-22T16:35:29Z</time>
      </trkpt>
      <trkpt lat="45.9042" lon="6.17416">
        <ele>1189.22</ele>
        <time>2016-06-22T16:35:40Z</time>
      </trkpt>
      <trkpt lat="45.90417" lon="6.17413">
        <ele>1191.58</ele>
        <time>2016-06-22T16:35:51Z</time>
      </trkpt>
      <trkpt lat="45.90414" lon="6.17409">
        <ele>1194.33</ele>
        <time>2016-06-22T16:36:02Z</time>
      </trkpt>
      <trkpt lat="45.90408" lon="6.17402">
        <ele>1196.9</ele>
        <time>2016-06-22T16:36:13Z</time>
      </trkpt>
      <trkpt lat="45.90403" lon="6.17397">
        <ele>1199.58</ele>
        <time>2016-06-22T16:36:24Z</time>
      </trkpt>
      <trkpt lat="45.90397" lon="6.17396">
        <ele>1201.11</ele>
        <time>2016-06-22T16:36:34Z</time>
      </trkpt>
      <trkpt lat="45.9039" lon="6.17398">
        <ele>1202.36</ele>
        <time>2016-06-22T16:36:45Z</time>
      </trkpt>
      <trkpt lat="45.90381" lon="6.17403">
        <ele>1203.13</ele>
        <time>2016-06-22T16:36:55Z</time>
      </trkpt>
      <trkpt lat="45.90379" lon="6.17404">
        <ele>1203.89</ele>
        <time>2016-06-22T16:37:06Z</time>
      </trkpt>
      <trkpt lat="45.90374" lon="6.1741">
        <ele>1206</ele>
        <time>2016-06-22T16:37:16Z</time>
      </trkpt>
      <trkpt lat="45.9037" lon="6.17409">
        <ele>1207.88</ele>
        <time>2016-06-22T16:37:27Z</time>
      </trkpt>
      <trkpt lat="45.90363" lon="6.17405">
        <ele>1209.51</ele>
        <time>2016-06-22T16:37:38Z</time>
      </trkpt>
      <trkpt lat="45.90356" lon="6.174">
        <ele>1209.77</ele>
        <time>2016-06-22T16:37:48Z</time>
      </trkpt>
      <trkpt lat="45.90349" lon="6.17402">
        <ele>1209.69</ele>
        <time>2016-06-22T16:37:58Z</time>
      </trkpt>
      <trkpt lat="45.90343" lon="6.17403">
        <ele>1210.89</ele>
        <time>2016-06-22T16:38:09Z</time>
      </trkpt>
      <trkpt lat="45.90337" lon="6.17408">
        <ele>1212.63</ele>
        <time>2016-06-22T16:38:20Z</time>
      </trkpt>
      <trkpt lat="45.90331" lon="6.17417">
        <ele>1213.63</ele>
        <time>2016-06-22T16:38:31Z</time>
      </trkpt>
      <trkpt lat="45.90327" lon="6.17425">
        <ele>1215</ele>
        <time>2016-06-22T16:38:41Z</time>
      </trkpt>
      <trkpt lat="45.90327" lon="6.17434">
        <ele>1215.18</ele>
        <time>2016-06-22T16:38:51Z</time>
      </trkpt>
      <trkpt lat="45.90324" lon="6.17438">
        <ele>1215.53</ele>
        <time>2016-06-22T16:39:02Z</time>
      </trkpt>
      <trkpt lat="45.90325" lon="6.17439">
        <ele>1215.91</ele>
        <time>2016-06-22T16:39:12Z</time>
      </trkpt>
      <trkpt lat="45.90321" lon="6.17437">
        <ele>1216</ele>
        <time>2016-06-22T16:39:23Z</time>
      </trkpt>
      <trkpt lat="45.90318" lon="6.17438">
        <ele>1216.04</ele>
        <time>2016-06-22T16:39:34Z</time>
      </trkpt>
      <trkpt lat="45.90318" lon="6.17438">
        <ele>1215.98</ele>
        <time>2016-06-22T16:39:45Z</time>
      </trkpt>
      <trkpt lat="45.90318" lon="6.17439">
        <ele>1216.27</ele>
        <time>2016-06-22T16:39:56Z</time>
      </trkpt>
      <trkpt lat="45.90317" lon="6.17438">
        <ele>1217.05</ele>
        <time>2016-06-22T16:40:07Z</time>
      </trkpt>
      <trkpt lat="45.90316" lon="6.17437">
        <ele>1217.67</ele>
        <time>2016-06-22T16:40:17Z</time>
      </trkpt>
      <trkpt lat="45.90317" lon="6.17436">
        <ele>1218.55</ele>
        <time>2016-06-22T16:40:28Z</time>
      </trkpt>
      <trkpt lat="45.90318" lon="6.17437">
        <ele>1219.14</ele>
        <time>2016-06-22T16:40:38Z</time>
      </trkpt>
      <trkpt lat="45.90319" lon="6.17439">
        <ele>1219.89</ele>
        <time>2016-06-22T16:40:49Z</time>
      </trkpt>
      <trkpt lat="45.9032" lon="6.17439">
        <ele>1220.57</ele>
        <time>2016-06-22T16:40:59Z</time>
      </trkpt>
      <trkpt lat="45.90321" lon="6.17439">
        <ele>1220.73</ele>
        <time>2016-06-22T16:41:10Z</time>
      </trkpt>
      <trkpt lat="45.90321" lon="6.17437">
        <ele>1220.72</ele>
        <time>2016-06-22T16:41:21Z</time>
      </trkpt>
      <trkpt lat="45.9032" lon="6.17435">
        <ele>1220.98</ele>
        <time>2016-06-22T16:41:32Z</time>
      </trkpt>
      <trkpt lat="45.9032" lon="6.17436">
        <ele>1221.28</ele>
        <time>2016-06-22T16:41:43Z</time>
      </trkpt>
      <trkpt lat="45.9032" lon="6.17435">
        <ele>1221.51</ele>
        <time>2016-06-22T16:41:53Z</time>
      </trkpt>
      <trkpt lat="45.90321" lon="6.17436">
        <ele>1222.77</ele>
        <time>2016-06-22T16:42:04Z</time>
      </trkpt>
      <trkpt lat="45.90321" lon="6.17435">
        <ele>1223.26</ele>
        <time>2016-06-22T16:42:14Z</time>
      </trkpt>
      <trkpt lat="45.90321" lon="6.17435">
        <ele>1223.72</ele>
        <time>2016-06-22T16:42:25Z</time>
      </trkpt>
      <trkpt lat="45.9032" lon="6.17434">
        <ele>1223.54</ele>
        <time>2016-06-22T16:42:35Z</time>
      </trkpt>
      <trkpt lat="45.9032" lon="6.17434">
        <ele>1223</ele>
        <time>2016-06-22T16:42:46Z</time>
      </trkpt>
      <trkpt lat="45.9032" lon="6.17434">
        <ele>1222.79</ele>
        <time>2016-06-22T16:42:57Z</time>
      </trkpt>
      <trkpt lat="45.90321" lon="6.17436">
        <ele>1222.94</ele>
        <time>2016-06-22T16:43:07Z</time>
      </trkpt>
      <trkpt lat="45.90321" lon="6.17434">
        <ele>1223.64</ele>
        <time>2016-06-22T16:43:18Z</time>
      </trkpt>
      <trkpt lat="45.9032" lon="6.17433">
        <ele>1223.46</ele>
        <time>2016-06-22T16:43:29Z</time>
      </trkpt>
      <trkpt lat="45.90319" lon="6.17434">
        <ele>1224.1</ele>
        <time>2016-06-22T16:43:40Z</time>
      </trkpt>
      <trkpt lat="45.90319" lon="6.17436">
        <ele>1224.31</ele>
        <time>2016-06-22T16:43:51Z</time>
      </trkpt>
      <trkpt lat="45.9032" lon="6.17437">
        <ele>1224.59</ele>
        <time>2016-06-22T16:44:02Z</time>
      </trkpt>
      <trkpt lat="45.9032" lon="6.17439">
        <ele>1226.35</ele>
        <time>2016-06-22T16:44:13Z</time>
      </trkpt>
      <trkpt lat="45.90319" lon="6.17439">
        <ele>1226.65</ele>
        <time>2016-06-22T16:44:23Z</time>
      </trkpt>
      <trkpt lat="45.90318" lon="6.17437">
        <ele>1225.91</ele>
        <time>2016-06-22T16:44:34Z</time>
      </trkpt>
      <trkpt lat="45.90318" lon="6.17438">
        <ele>1226.45</ele>
        <time>2016-06-22T16:44:44Z</time>
      </trkpt>
      <trkpt lat="45.90319" lon="6.17437">
        <ele>1227.65</ele>
        <time>2016-06-22T16:44:55Z</time>
      </trkpt>
      <trkpt lat="45.9032" lon="6.17438">
        <ele>1228.44</ele>
        <time>2016-06-22T16:45:05Z</time>
      </trkpt>
      <trkpt lat="45.90323" lon="6.17437">
        <ele>1228.41</ele>
        <time>2016-06-22T16:45:16Z</time>
      </trkpt>
      <trkpt lat="45.90321" lon="6.17435">
        <ele>1228.54</ele>
        <time>2016-06-22T16:45:27Z</time>
      </trkpt>
      <trkpt lat="45.9032" lon="6.17433">
        <ele>1228.61</ele>
        <time>2016-06-22T16:45:38Z</time>
      </trkpt>
      <trkpt lat="45.90321" lon="6.17434">
        <ele>1227.96</ele>
        <time>2016-06-22T16:45:49Z</time>
      </trkpt>
      <trkpt lat="45.90322" lon="6.17437">
        <ele>1227.6</ele>
        <time>2016-06-22T16:46:00Z</time>
      </trkpt>
      <trkpt lat="45.90324" lon="6.17438">
        <ele>1228.4</ele>
        <time>2016-06-22T16:46:11Z</time>
      </trkpt>
      <trkpt lat="45.90328" lon="6.1744">
        <ele>1228.77</ele>
        <time>2016-06-22T16:46:22Z</time>
      </trkpt>
      <trkpt lat="45.90331" lon="6.17446">
        <ele>1230.85</ele>
        <time>2016-06-22T16:46:33Z</time>
      </trkpt>
      <trkpt lat="45.9033" lon="6.17452">
        <ele>1232.17</ele>
        <time>2016-06-22T16:46:44Z</time>
      </trkpt>
      <trkpt lat="45.90329" lon="6.17466">
        <ele>1231.98</ele>
        <time>2016-06-22T16:46:55Z</time>
      </trkpt>
      <trkpt lat="45.9033" lon="6.17477">
        <ele>1232.49</ele>
        <time>2016-06-22T16:47:06Z</time>
      </trkpt>
      <trkpt lat="45.90333" lon="6.17483">
        <ele>1233.74</ele>
        <time>2016-06-22T16:47:17Z</time>
      </trkpt>
      <trkpt lat="45.90332" lon="6.17487">
        <ele>1234.85</ele>
        <time>2016-06-22T16:47:28Z</time>
      </trkpt>
      <trkpt lat="45.90332" lon="6.17494">
        <ele>1235.44</ele>
        <time>2016-06-22T16:47:38Z</time>
      </trkpt>
      <trkpt lat="45.90333" lon="6.17502">
        <ele>1234.41</ele>
        <time>2016-06-22T16:47:49Z</time>
      </trkpt>
      <trkpt lat="45.90332" lon="6.17518">
        <ele>1233.58</ele>
        <time>2016-06-22T16:47:59Z</time>
      </trkpt>
      <trkpt lat="45.90331" lon="6.17527">
        <ele>1233.46</ele>
        <time>2016-06-22T16:48:10Z</time>
      </trkpt>
      <trkpt lat="45.90333" lon="6.17536">
        <ele>1234.17</ele>
        <time>2016-06-22T16:48:21Z</time>
      </trkpt>
      <trkpt lat="45.90341" lon="6.17551">
        <ele>1236.25</ele>
        <time>2016-06-22T16:48:32Z</time>
      </trkpt>
      <trkpt lat="45.90348" lon="6.17556">
        <ele>1238.35</ele>
        <time>2016-06-22T16:48:42Z</time>
      </trkpt>
      <trkpt lat="45.90352" lon="6.17556">
        <ele>1240.89</ele>
        <time>2016-06-22T16:48:53Z</time>
      </trkpt>
      <trkpt lat="45.90356" lon="6.17552">
        <ele>1243.72</ele>
        <time>2016-06-22T16:49:04Z</time>
      </trkpt>
      <trkpt lat="45.90357" lon="6.17549">
        <ele>1245.22</ele>
        <time>2016-06-22T16:49:15Z</time>
      </trkpt>
      <trkpt lat="45.90362" lon="6.1755">
        <ele>1247.33</ele>
        <time>2016-06-22T16:49:25Z</time>
      </trkpt>
      <trkpt lat="45.90371" lon="6.17556">
        <ele>1249.97</ele>
        <time>2016-06-22T16:49:36Z</time>
      </trkpt>
      <trkpt lat="45.90371" lon="6.1756">
        <ele>1251.34</ele>
        <time>2016-06-22T16:49:47Z</time>
      </trkpt>
      <trkpt lat="45.90372" lon="6.17567">
        <ele>1252.47</ele>
        <time>2016-06-22T16:49:58Z</time>
      </trkpt>
      <trkpt lat="45.90364" lon="6.1758">
        <ele>1254.41</ele>
        <time>2016-06-22T16:50:09Z</time>
      </trkpt>
      <trkpt lat="45.90361" lon="6.17589">
        <ele>1255.55</ele>
        <time>2016-06-22T16:50:20Z</time>
      </trkpt>
      <trkpt lat="45.90359" lon="6.17596">
        <ele>1256.51</ele>
        <time>2016-06-22T16:50:31Z</time>
      </trkpt>
      <trkpt lat="45.90355" lon="6.17603">
        <ele>1257.61</ele>
        <time>2016-06-22T16:50:41Z</time>
      </trkpt>
      <trkpt lat="45.90349" lon="6.1761">
        <ele>1259.67</ele>
        <time>2016-06-22T16:50:52Z</time>
      </trkpt>
      <trkpt lat="45.9034" lon="6.17613">
        <ele>1261.77</ele>
        <time>2016-06-22T16:51:03Z</time>
      </trkpt>
      <trkpt lat="45.90334" lon="6.17616">
        <ele>1263.45</ele>
        <time>2016-06-22T16:51:13Z</time>
      </trkpt>
      <trkpt lat="45.90329" lon="6.17622">
        <ele>1265.24</ele>
        <time>2016-06-22T16:51:24Z</time>
      </trkpt>
      <trkpt lat="45.90322" lon="6.17629">
        <ele>1266.63</ele>
        <time>2016-06-22T16:51:35Z</time>
      </trkpt>
      <trkpt lat="45.90317" lon="6.17634">
        <ele>1268.41</ele>
        <time>2016-06-22T16:51:45Z</time>
      </trkpt>
      <trkpt lat="45.90308" lon="6.17641">
        <ele>1270.07</ele>
        <time>2016-06-22T16:51:56Z</time>
      </trkpt>
      <trkpt lat="45.90298" lon="6.17656">
        <ele>1271.45</ele>
        <time>2016-06-22T16:52:07Z</time>
      </trkpt>
      <trkpt lat="45.9029" lon="6.17658">
        <ele>1273.07</ele>
        <time>2016-06-22T16:52:18Z</time>
      </trkpt>
      <trkpt lat="45.90283" lon="6.1766">
        <ele>1274.35</ele>
        <time>2016-06-22T16:52:28Z</time>
      </trkpt>
      <trkpt lat="45.90278" lon="6.17667">
        <ele>1275.61</ele>
        <time>2016-06-22T16:52:39Z</time>
      </trkpt>
      <trkpt lat="45.9027" lon="6.17681">
        <ele>1277.57</ele>
        <time>2016-06-22T16:52:50Z</time>
      </trkpt>
      <trkpt lat="45.90266" lon="6.17693">
        <ele>1278.8</ele>
        <time>2016-06-22T16:53:00Z</time>
      </trkpt>
      <trkpt lat="45.90263" lon="6.17704">
        <ele>1278.94</ele>
        <time>2016-06-22T16:53:10Z</time>
      </trkpt>
      <trkpt lat="45.90252" lon="6.17717">
        <ele>1280.27</ele>
        <time>2016-06-22T16:53:21Z</time>
      </trkpt>
      <trkpt lat="45.90245" lon="6.17726">
        <ele>1281.78</ele>
        <time>2016-06-22T16:53:32Z</time>
      </trkpt>
      <trkpt lat="45.90242" lon="6.17734">
        <ele>1284.06</ele>
        <time>2016-06-22T16:53:43Z</time>
      </trkpt>
      <trkpt lat="45.90236" lon="6.17743">
        <ele>1286.77</ele>
        <time>2016-06-22T16:53:54Z</time>
      </trkpt>
      <trkpt lat="45.90229" lon="6.17752">
        <ele>1288.81</ele>
        <time>2016-06-22T16:54:05Z</time>
      </trkpt>
      <trkpt lat="45.90223" lon="6.1777">
        <ele>1290.48</ele>
        <time>2016-06-22T16:54:15Z</time>
      </trkpt>
      <trkpt lat="45.90219" lon="6.17781">
        <ele>1292.31</ele>
        <time>2016-06-22T16:54:26Z</time>
      </trkpt>
      <trkpt lat="45.90218" lon="6.17787">
        <ele>1293.85</ele>
        <time>2016-06-22T16:54:37Z</time>
      </trkpt>
      <trkpt lat="45.90223" lon="6.17797">
        <ele>1295.2</ele>
        <time>2016-06-22T16:54:48Z</time>
      </trkpt>
      <trkpt lat="45.90227" lon="6.17804">
        <ele>1297.21</ele>
        <time>2016-06-22T16:54:59Z</time>
      </trkpt>
      <trkpt lat="45.90232" lon="6.17819">
        <ele>1298.96</ele>
        <time>2016-06-22T16:55:10Z</time>
      </trkpt>
      <trkpt lat="45.90228" lon="6.17823">
        <ele>1301.53</ele>
        <time>2016-06-22T16:55:21Z</time>
      </trkpt>
      <trkpt lat="45.90224" lon="6.17829">
        <ele>1303.9</ele>
        <time>2016-06-22T16:55:32Z</time>
      </trkpt>
      <trkpt lat="45.90219" lon="6.17838">
        <ele>1304.79</ele>
        <time>2016-06-22T16:55:43Z</time>
      </trkpt>
      <trkpt lat="45.90214" lon="6.17844">
        <ele>1306.31</ele>
        <time>2016-06-22T16:55:53Z</time>
      </trkpt>
      <trkpt lat="45.90209" lon="6.17846">
        <ele>1307.94</ele>
        <time>2016-06-22T16:56:04Z</time>
      </trkpt>
      <trkpt lat="45.90207" lon="6.17846">
        <ele>1311.11</ele>
        <time>2016-06-22T16:56:15Z</time>
      </trkpt>
      <trkpt lat="45.90207" lon="6.17846">
        <ele>1311.88</ele>
        <time>2016-06-22T16:56:26Z</time>
      </trkpt>
      <trkpt lat="45.90204" lon="6.17847">
        <ele>1312.58</ele>
        <time>2016-06-22T16:56:37Z</time>
      </trkpt>
      <trkpt lat="45.90204" lon="6.1785">
        <ele>1312.88</ele>
        <time>2016-06-22T16:56:47Z</time>
      </trkpt>
      <trkpt lat="45.90207" lon="6.17843">
        <ele>1313.5</ele>
        <time>2016-06-22T16:56:58Z</time>
      </trkpt>
      <trkpt lat="45.90208" lon="6.17842">
        <ele>1314</ele>
        <time>2016-06-22T16:57:09Z</time>
      </trkpt>
      <trkpt lat="45.90207" lon="6.17844">
        <ele>1314.99</ele>
        <time>2016-06-22T16:57:19Z</time>
      </trkpt>
      <trkpt lat="45.90203" lon="6.17845">
        <ele>1316.6</ele>
        <time>2016-06-22T16:57:29Z</time>
      </trkpt>
      <trkpt lat="45.90206" lon="6.17845">
        <ele>1317.43</ele>
        <time>2016-06-22T16:57:40Z</time>
      </trkpt>
      <trkpt lat="45.90203" lon="6.17846">
        <ele>1316.58</ele>
        <time>2016-06-22T16:57:51Z</time>
      </trkpt>
      <trkpt lat="45.90205" lon="6.17846">
        <ele>1317.01</ele>
        <time>2016-06-22T16:58:02Z</time>
      </trkpt>
      <trkpt lat="45.90208" lon="6.17847">
        <ele>1317.47</ele>
        <time>2016-06-22T16:58:12Z</time>
      </trkpt>
      <trkpt lat="45.90208" lon="6.17847">
        <ele>1317.19</ele>
        <time>2016-06-22T16:58:23Z</time>
      </trkpt>
      <trkpt lat="45.90208" lon="6.17846">
        <ele>1317.85</ele>
        <time>2016-06-22T16:58:33Z</time>
      </trkpt>
      <trkpt lat="45.90208" lon="6.17847">
        <ele>1318.18</ele>
        <time>2016-06-22T16:58:44Z</time>
      </trkpt>
      <trkpt lat="45.9021" lon="6.17848">
        <ele>1318.74</ele>
        <time>2016-06-22T16:58:54Z</time>
      </trkpt>
      <trkpt lat="45.90209" lon="6.17849">
        <ele>1319.07</ele>
        <time>2016-06-22T16:59:05Z</time>
      </trkpt>
      <trkpt lat="45.90208" lon="6.17847">
        <ele>1319.06</ele>
        <time>2016-06-22T16:59:15Z</time>
      </trkpt>
      <trkpt lat="45.90208" lon="6.17847">
        <ele>1318.95</ele>
        <time>2016-06-22T16:59:26Z</time>
      </trkpt>
      <trkpt lat="45.90209" lon="6.17849">
        <ele>1319.12</ele>
        <time>2016-06-22T16:59:37Z</time>
      </trkpt>
      <trkpt lat="45.90208" lon="6.17848">
        <ele>1319.82</ele>
        <time>2016-06-22T16:59:48Z</time>
      </trkpt>
      <trkpt lat="45.90205" lon="6.17849">
        <ele>1319.99</ele>
        <time>2016-06-22T16:59:59Z</time>
      </trkpt>
      <trkpt lat="45.90206" lon="6.17849">
        <ele>1320.7</ele>
        <time>2016-06-22T17:00:10Z</time>
      </trkpt>
      <trkpt lat="45.90207" lon="6.17846">
        <ele>1321.31</ele>
        <time>2016-06-22T17:00:20Z</time>
      </trkpt>
      <trkpt lat="45.90206" lon="6.17842">
        <ele>1322.99</ele>
        <time>2016-06-22T17:00:31Z</time>
      </trkpt>
      <trkpt lat="45.90206" lon="6.17842">
        <ele>1323.83</ele>
        <time>2016-06-22T17:00:42Z</time>
      </trkpt>
      <trkpt lat="45.90207" lon="6.17844">
        <ele>1324.55</ele>
        <time>2016-06-22T17:00:53Z</time>
      </trkpt>
      <trkpt lat="45.90208" lon="6.17846">
        <ele>1324.5</ele>
        <time>2016-06-22T17:01:04Z</time>
      </trkpt>
      <trkpt lat="45.90204" lon="6.17851">
        <ele>1324.07</ele>
        <time>2016-06-22T17:01:14Z</time>
      </trkpt>
      <trkpt lat="45.90203" lon="6.17857">
        <ele>1323.14</ele>
        <time>2016-06-22T17:01:25Z</time>
      </trkpt>
      <trkpt lat="45.90201" lon="6.17867">
        <ele>1324.06</ele>
        <time>2016-06-22T17:01:35Z</time>
      </trkpt>
      <trkpt lat="45.90198" lon="6.17871">
        <ele>1324.44</ele>
        <time>2016-06-22T17:01:45Z</time>
      </trkpt>
      <trkpt lat="45.90203" lon="6.17877">
        <ele>1321.27</ele>
        <time>2016-06-22T17:01:56Z</time>
      </trkpt>
      <trkpt lat="45.90201" lon="6.17884">
        <ele>1319.2</ele>
        <time>2016-06-22T17:02:06Z</time>
      </trkpt>
      <trkpt lat="45.90198" lon="6.17895">
        <ele>1318.15</ele>
        <time>2016-06-22T17:02:16Z</time>
      </trkpt>
      <trkpt lat="45.90191" lon="6.17914">
        <ele>1316.85</ele>
        <time>2016-06-22T17:02:27Z</time>
      </trkpt>
      <trkpt lat="45.90188" lon="6.17927">
        <ele>1316.42</ele>
        <time>2016-06-22T17:02:38Z</time>
      </trkpt>
      <trkpt lat="45.90187" lon="6.17941">
        <ele>1316.28</ele>
        <time>2016-06-22T17:02:49Z</time>
      </trkpt>
      <trkpt lat="45.90187" lon="6.1795">
        <ele>1315.95</ele>
        <time>2016-06-22T17:02:59Z</time>
      </trkpt>
      <trkpt lat="45.90189" lon="6.17962">
        <ele>1316.34</ele>
        <time>2016-06-22T17:03:10Z</time>
      </trkpt>
      <trkpt lat="45.9019" lon="6.17971">
        <ele>1316.75</ele>
        <time>2016-06-22T17:03:21Z</time>
      </trkpt>
      <trkpt lat="45.90183" lon="6.17989">
        <ele>1315.05</ele>
        <time>2016-06-22T17:03:32Z</time>
      </trkpt>
      <trkpt lat="45.9018" lon="6.18005">
        <ele>1314.4</ele>
        <time>2016-06-22T17:03:42Z</time>
      </trkpt>
      <trkpt lat="45.90172" lon="6.18012">
        <ele>1315.72</ele>
        <time>2016-06-22T17:03:53Z</time>
      </trkpt>
      <trkpt lat="45.90164" lon="6.18022">
        <ele>1315.18</ele>
        <time>2016-06-22T17:04:04Z</time>
      </trkpt>
      <trkpt lat="45.90154" lon="6.18028">
        <ele>1315.33</ele>
        <time>2016-06-22T17:04:14Z</time>
      </trkpt>
      <trkpt lat="45.90144" lon="6.18031">
        <ele>1316.09</ele>
        <time>2016-06-22T17:04:25Z</time>
      </trkpt>
      <trkpt lat="45.90131" lon="6.1804">
        <ele>1317.09</ele>
        <time>2016-06-22T17:04:35Z</time>
      </trkpt>
      <trkpt lat="45.9012" lon="6.18051">
        <ele>1317.1</ele>
        <time>2016-06-22T17:04:45Z</time>
      </trkpt>
      <trkpt lat="45.90115" lon="6.18057">
        <ele>1317.33</ele>
        <time>2016-06-22T17:04:56Z</time>
      </trkpt>
      <trkpt lat="45.90111" lon="6.18071">
        <ele>1316.74</ele>
        <time>2016-06-22T17:05:06Z</time>
      </trkpt>
      <trkpt lat="45.9011" lon="6.18075">
        <ele>1316</ele>
        <time>2016-06-22T17:05:17Z</time>
      </trkpt>
      <trkpt lat="45.9011" lon="6.18069">
        <ele>1317.09</ele>
        <time>2016-06-22T17:05:28Z</time>
      </trkpt>
      <trkpt lat="45.9011" lon="6.18074">
        <ele>1317.8</ele>
        <time>2016-06-22T17:05:39Z</time>
      </trkpt>
      <trkpt lat="45.90118" lon="6.18084">
        <ele>1319.14</ele>
        <time>2016-06-22T17:05:50Z</time>
      </trkpt>
      <trkpt lat="45.90124" lon="6.18092">
        <ele>1320.79</ele>
        <time>2016-06-22T17:06:00Z</time>
      </trkpt>
      <trkpt lat="45.90121" lon="6.18096">
        <ele>1320.56</ele>
        <time>2016-06-22T17:06:11Z</time>
      </trkpt>
      <trkpt lat="45.90115" lon="6.18102">
        <ele>1320.63</ele>
        <time>2016-06-22T17:06:21Z</time>
      </trkpt>
      <trkpt lat="45.9011" lon="6.18108">
        <ele>1321.88</ele>
        <time>2016-06-22T17:06:32Z</time>
      </trkpt>
      <trkpt lat="45.90109" lon="6.18114">
        <ele>1323.17</ele>
        <time>2016-06-22T17:06:43Z</time>
      </trkpt>
      <trkpt lat="45.90108" lon="6.18121">
        <ele>1324.66</ele>
        <time>2016-06-22T17:06:54Z</time>
      </trkpt>
      <trkpt lat="45.90103" lon="6.18131">
        <ele>1325.9</ele>
        <time>2016-06-22T17:07:05Z</time>
      </trkpt>
      <trkpt lat="45.90104" lon="6.18144">
        <ele>1327.11</ele>
        <time>2016-06-22T17:07:16Z</time>
      </trkpt>
      <trkpt lat="45.901" lon="6.18157">
        <ele>1328.96</ele>
        <time>2016-06-22T17:07:27Z</time>
      </trkpt>
      <trkpt lat="45.90094" lon="6.18166">
        <ele>1330.88</ele>
        <time>2016-06-22T17:07:38Z</time>
      </trkpt>
      <trkpt lat="45.90091" lon="6.18182">
        <ele>1331.96</ele>
        <time>2016-06-22T17:07:49Z</time>
      </trkpt>
      <trkpt lat="45.90083" lon="6.18198">
        <ele>1332.86</ele>
        <time>2016-06-22T17:07:59Z</time>
      </trkpt>
      <trkpt lat="45.9008" lon="6.18205">
        <ele>1332.92</ele>
        <time>2016-06-22T17:08:09Z</time>
      </trkpt>
      <trkpt lat="45.90077" lon="6.18219">
        <ele>1333.77</ele>
        <time>2016-06-22T17:08:20Z</time>
      </trkpt>
      <trkpt lat="45.90073" lon="6.18229">
        <ele>1335.55</ele>
        <time>2016-06-22T17:08:30Z</time>
      </trkpt>
      <trkpt lat="45.90075" lon="6.18235">
        <ele>1338.05</ele>
        <time>2016-06-22T17:08:41Z</time>
      </trkpt>
      <trkpt lat="45.9007" lon="6.18244">
        <ele>1339.11</ele>
        <time>2016-06-22T17:08:51Z</time>
      </trkpt>
      <trkpt lat="45.90064" lon="6.18251">
        <ele>1340.3</ele>
        <time>2016-06-22T17:09:01Z</time>
      </trkpt>
      <trkpt lat="45.90065" lon="6.18256">
        <ele>1341.45</ele>
        <time>2016-06-22T17:09:12Z</time>
      </trkpt>
      <trkpt lat="45.90059" lon="6.18265">
        <ele>1341.81</ele>
        <time>2016-06-22T17:09:23Z</time>
      </trkpt>
      <trkpt lat="45.90052" lon="6.18274">
        <ele>1340.99</ele>
        <time>2016-06-22T17:09:34Z</time>
      </trkpt>
      <trkpt lat="45.90047" lon="6.18276">
        <ele>1341.25</ele>
        <time>2016-06-22T17:09:44Z</time>
      </trkpt>
      <trkpt lat="45.90038" lon="6.18281">
        <ele>1342.46</ele>
        <time>2016-06-22T17:09:55Z</time>
      </trkpt>
      <trkpt lat="45.90037" lon="6.18288">
        <ele>1341.94</ele>
        <time>2016-06-22T17:10:06Z</time>
      </trkpt>
      <trkpt lat="45.90034" lon="6.18287">
        <ele>1340.98</ele>
        <time>2016-06-22T17:10:17Z</time>
      </trkpt>
      <trkpt lat="45.90036" lon="6.18287">
        <ele>1339.78</ele>
        <time>2016-06-22T17:10:27Z</time>
      </trkpt>
      <trkpt lat="45.90037" lon="6.18284">
        <ele>1338.48</ele>
        <time>2016-06-22T17:10:38Z</time>
      </trkpt>
      <trkpt lat="45.90035" lon="6.18285">
        <ele>1339.52</ele>
        <time>2016-06-22T17:10:49Z</time>
      </trkpt>
      <trkpt lat="45.90036" lon="6.18286">
        <ele>1341.23</ele>
        <time>2016-06-22T17:11:00Z</time>
      </trkpt>
      <trkpt lat="45.90036" lon="6.18286">
        <ele>1341.4</ele>
        <time>2016-06-22T17:11:10Z</time>
      </trkpt>
      <trkpt lat="45.90033" lon="6.18294">
        <ele>1340.75</ele>
        <time>2016-06-22T17:11:21Z</time>
      </trkpt>
      <trkpt lat="45.90033" lon="6.18297">
        <ele>1341.72</ele>
        <time>2016-06-22T17:11:32Z</time>
      </trkpt>
      <trkpt lat="45.90035" lon="6.18299">
        <ele>1342.52</ele>
        <time>2016-06-22T17:11:43Z</time>
      </trkpt>
      <trkpt lat="45.90035" lon="6.18299">
        <ele>1342.58</ele>
        <time>2016-06-22T17:11:54Z</time>
      </trkpt>
      <trkpt lat="45.90032" lon="6.18299">
        <ele>1341.98</ele>
        <time>2016-06-22T17:12:05Z</time>
      </trkpt>
      <trkpt lat="45.90031" lon="6.18297">
        <ele>1341.24</ele>
        <time>2016-06-22T17:12:15Z</time>
      </trkpt>
      <trkpt lat="45.90032" lon="6.18299">
        <ele>1340.05</ele>
        <time>2016-06-22T17:12:26Z</time>
      </trkpt>
      <trkpt lat="45.90033" lon="6.183">
        <ele>1339.51</ele>
        <time>2016-06-22T17:12:37Z</time>
      </trkpt>
      <trkpt lat="45.90033" lon="6.18299">
        <ele>1339.31</ele>
        <time>2016-06-22T17:12:47Z</time>
      </trkpt>
      <trkpt lat="45.90032" lon="6.18296">
        <ele>1338.7</ele>
        <time>2016-06-22T17:12:57Z</time>
      </trkpt>
      <trkpt lat="45.90032" lon="6.18295">
        <ele>1337.86</ele>
        <time>2016-06-22T17:13:08Z</time>
      </trkpt>
      <trkpt lat="45.90032" lon="6.18297">
        <ele>1338.2</ele>
        <time>2016-06-22T17:13:18Z</time>
      </trkpt>
      <trkpt lat="45.90033" lon="6.18299">
        <ele>1338.42</ele>
        <time>2016-06-22T17:13:29Z</time>
      </trkpt>
      <trkpt lat="45.90033" lon="6.183">
        <ele>1338.25</ele>
        <time>2016-06-22T17:13:40Z</time>
      </trkpt>
      <trkpt lat="45.90035" lon="6.18299">
        <ele>1337.76</ele>
        <time>2016-06-22T17:13:51Z</time>
      </trkpt>
      <trkpt lat="45.90036" lon="6.18299">
        <ele>1337.8</ele>
        <time>2016-06-22T17:14:02Z</time>
      </trkpt>
      <trkpt lat="45.90035" lon="6.18299">
        <ele>1338.43</ele>
        <time>2016-06-22T17:14:13Z</time>
      </trkpt>
      <trkpt lat="45.90034" lon="6.18299">
        <ele>1338.91</ele>
        <time>2016-06-22T17:14:24Z</time>
      </trkpt>
      <trkpt lat="45.90035" lon="6.18299">
        <ele>1339.08</ele>
        <time>2016-06-22T17:14:35Z</time>
      </trkpt>
      <trkpt lat="45.90035" lon="6.18298">
        <ele>1338.55</ele>
        <time>2016-06-22T17:14:46Z</time>
      </trkpt>
      <trkpt lat="45.90035" lon="6.18297">
        <ele>1337.66</ele>
        <time>2016-06-22T17:14:56Z</time>
      </trkpt>
      <trkpt lat="45.90034" lon="6.18297">
        <ele>1337.83</ele>
        <time>2016-06-22T17:15:07Z</time>
      </trkpt>
      <trkpt lat="45.90035" lon="6.18298">
        <ele>1337.73</ele>
        <time>2016-06-22T17:15:17Z</time>
      </trkpt>
      <trkpt lat="45.90034" lon="6.18297">
        <ele>1337.35</ele>
        <time>2016-06-22T17:15:28Z</time>
      </trkpt>
      <trkpt lat="45.90035" lon="6.18297">
        <ele>1337.52</ele>
        <time>2016-06-22T17:15:39Z</time>
      </trkpt>
      <trkpt lat="45.90035" lon="6.18298">
        <ele>1338.18</ele>
        <time>2016-06-22T17:15:49Z</time>
      </trkpt>
      <trkpt lat="45.90033" lon="6.18297">
        <ele>1338.72</ele>
        <time>2016-06-22T17:16:00Z</time>
      </trkpt>
      <trkpt lat="45.90035" lon="6.18298">
        <ele>1338.87</ele>
        <time>2016-06-22T17:16:10Z</time>
      </trkpt>
      <trkpt lat="45.90036" lon="6.18299">
        <ele>1338.9</ele>
        <time>2016-06-22T17:16:20Z</time>
      </trkpt>
      <trkpt lat="45.90033" lon="6.18298">
        <ele>1338.96</ele>
        <time>2016-06-22T17:16:31Z</time>
      </trkpt>
      <trkpt lat="45.90033" lon="6.18297">
        <ele>1338.74</ele>
        <time>2016-06-22T17:16:42Z</time>
      </trkpt>
      <trkpt lat="45.90031" lon="6.18296">
        <ele>1338.78</ele>
        <time>2016-06-22T17:16:52Z</time>
      </trkpt>
      <trkpt lat="45.9003" lon="6.18296">
        <ele>1338.96</ele>
        <time>2016-06-22T17:17:02Z</time>
      </trkpt>
      <trkpt lat="45.90025" lon="6.18304">
        <ele>1338.57</ele>
        <time>2016-06-22T17:17:13Z</time>
      </trkpt>
      <trkpt lat="45.90021" lon="6.1831">
        <ele>1338.1</ele>
        <time>2016-06-22T17:17:24Z</time>
      </trkpt>
      <trkpt lat="45.90015" lon="6.18317">
        <ele>1338.15</ele>
        <time>2016-06-22T17:17:35Z</time>
      </trkpt>
      <trkpt lat="45.90007" lon="6.18327">
        <ele>1337.87</ele>
        <time>2016-06-22T17:17:46Z</time>
      </trkpt>
      <trkpt lat="45.9" lon="6.18339">
        <ele>1336.82</ele>
        <time>2016-06-22T17:17:56Z</time>
      </trkpt>
      <trkpt lat="45.89996" lon="6.18353">
        <ele>1335.64</ele>
        <time>2016-06-22T17:18:06Z</time>
      </trkpt>
      <trkpt lat="45.89988" lon="6.18363">
        <ele>1334.91</ele>
        <time>2016-06-22T17:18:17Z</time>
      </trkpt>
      <trkpt lat="45.89977" lon="6.18374">
        <ele>1334</ele>
        <time>2016-06-22T17:18:28Z</time>
      </trkpt>
      <trkpt lat="45.89966" lon="6.18387">
        <ele>1333.33</ele>
        <time>2016-06-22T17:18:39Z</time>
      </trkpt>
      <trkpt lat="45.89963" lon="6.18396">
        <ele>1333.04</ele>
        <time>2016-06-22T17:18:49Z</time>
      </trkpt>
      <trkpt lat="45.89956" lon="6.18402">
        <ele>1333.04</ele>
        <time>2016-06-22T17:19:00Z</time>
      </trkpt>
      <trkpt lat="45.8995" lon="6.18409">
        <ele>1332.68</ele>
        <time>2016-06-22T17:19:10Z</time>
      </trkpt>
      <trkpt lat="45.8994" lon="6.18419">
        <ele>1332.59</ele>
        <time>2016-06-22T17:19:21Z</time>
      </trkpt>
      <trkpt lat="45.89934" lon="6.18428">
        <ele>1332.14</ele>
        <time>2016-06-22T17:19:32Z</time>
      </trkpt>
      <trkpt lat="45.89925" lon="6.18434">
        <ele>1332.35</ele>
        <time>2016-06-22T17:19:42Z</time>
      </trkpt>
      <trkpt lat="45.89917" lon="6.18444">
        <ele>1331.86</ele>
        <time>2016-06-22T17:19:53Z</time>
      </trkpt>
      <trkpt lat="45.89909" lon="6.18455">
        <ele>1332.04</ele>
        <time>2016-06-22T17:20:04Z</time>
      </trkpt>
      <trkpt lat="45.89898" lon="6.18463">
        <ele>1332.14</ele>
        <time>2016-06-22T17:20:14Z</time>
      </trkpt>
      <trkpt lat="45.89888" lon="6.18468">
        <ele>1332.66</ele>
        <time>2016-06-22T17:20:25Z</time>
      </trkpt>
      <trkpt lat="45.89876" lon="6.18473">
        <ele>1332.65</ele>
        <time>2016-06-22T17:20:35Z</time>
      </trkpt>
      <trkpt lat="45.89873" lon="6.18476">
        <ele>1333.24</ele>
        <time>2016-06-22T17:20:45Z</time>
      </trkpt>
      <trkpt lat="45.89867" lon="6.18482">
        <ele>1333.72</ele>
        <time>2016-06-22T17:20:56Z</time>
      </trkpt>
      <trkpt lat="45.89861" lon="6.18488">
        <ele>1334.5</ele>
        <time>2016-06-22T17:21:06Z</time>
      </trkpt>
      <trkpt lat="45.89851" lon="6.18499">
        <ele>1335.87</ele>
        <time>2016-06-22T17:21:17Z</time>
      </trkpt>
      <trkpt lat="45.89842" lon="6.18502">
        <ele>1336.27</ele>
        <time>2016-06-22T17:21:27Z</time>
      </trkpt>
      <trkpt lat="45.89834" lon="6.18505">
        <ele>1337.59</ele>
        <time>2016-06-22T17:21:37Z</time>
      </trkpt>
      <trkpt lat="45.89827" lon="6.18512">
        <ele>1339.43</ele>
        <time>2016-06-22T17:21:48Z</time>
      </trkpt>
      <trkpt lat="45.89822" lon="6.1852">
        <ele>1340</ele>
        <time>2016-06-22T17:21:59Z</time>
      </trkpt>
      <trkpt lat="45.89812" lon="6.18529">
        <ele>1340.74</ele>
        <time>2016-06-22T17:22:09Z</time>
      </trkpt>
      <trkpt lat="45.898" lon="6.18529">
        <ele>1340.44</ele>
        <time>2016-06-22T17:22:19Z</time>
      </trkpt>
      <trkpt lat="45.89789" lon="6.18533">
        <ele>1340.93</ele>
        <time>2016-06-22T17:22:30Z</time>
      </trkpt>
      <trkpt lat="45.89784" lon="6.18537">
        <ele>1341.28</ele>
        <time>2016-06-22T17:22:40Z</time>
      </trkpt>
      <trkpt lat="45.89773" lon="6.18546">
        <ele>1339.44</ele>
        <time>2016-06-22T17:22:51Z</time>
      </trkpt>
      <trkpt lat="45.89761" lon="6.18556">
        <ele>1337.25</ele>
        <time>2016-06-22T17:23:02Z</time>
      </trkpt>
      <trkpt lat="45.89755" lon="6.18559">
        <ele>1337.32</ele>
        <time>2016-06-22T17:23:13Z</time>
      </trkpt>
      <trkpt lat="45.89748" lon="6.18567">
        <ele>1337.66</ele>
        <time>2016-06-22T17:23:24Z</time>
      </trkpt>
      <trkpt lat="45.89744" lon="6.18569">
        <ele>1338.82</ele>
        <time>2016-06-22T17:23:35Z</time>
      </trkpt>
      <trkpt lat="45.89737" lon="6.18573">
        <ele>1341.35</ele>
        <time>2016-06-22T17:23:46Z</time>
      </trkpt>
      <trkpt lat="45.89723" lon="6.18574">
        <ele>1343.06</ele>
        <time>2016-06-22T17:23:56Z</time>
      </trkpt>
      <trkpt lat="45.89715" lon="6.18572">
        <ele>1343.36</ele>
        <time>2016-06-22T17:24:07Z</time>
      </trkpt>
      <trkpt lat="45.89711" lon="6.18571">
        <ele>1343.08</ele>
        <time>2016-06-22T17:24:18Z</time>
      </trkpt>
      <trkpt lat="45.89709" lon="6.18571">
        <ele>1342.4</ele>
        <time>2016-06-22T17:24:29Z</time>
      </trkpt>
      <trkpt lat="45.89706" lon="6.18573">
        <ele>1341.99</ele>
        <time>2016-06-22T17:24:39Z</time>
      </trkpt>
      <trkpt lat="45.89709" lon="6.18574">
        <ele>1341.77</ele>
        <time>2016-06-22T17:24:49Z</time>
      </trkpt>
      <trkpt lat="45.89704" lon="6.18578">
        <ele>1340.88</ele>
        <time>2016-06-22T17:24:59Z</time>
      </trkpt>
      <trkpt lat="45.89697" lon="6.18586">
        <ele>1341.05</ele>
        <time>2016-06-22T17:25:10Z</time>
      </trkpt>
      <trkpt lat="45.89691" lon="6.18593">
        <ele>1342.23</ele>
        <time>2016-06-22T17:25:20Z</time>
      </trkpt>
      <trkpt lat="45.89689" lon="6.18597">
        <ele>1343.16</ele>
        <time>2016-06-22T17:25:31Z</time>
      </trkpt>
      <trkpt lat="45.89688" lon="6.18596">
        <ele>1343.73</ele>
        <time>2016-06-22T17:25:42Z</time>
      </trkpt>
      <trkpt lat="45.89686" lon="6.18595">
        <ele>1345.42</ele>
        <time>2016-06-22T17:25:52Z</time>
      </trkpt>
      <trkpt lat="45.89685" lon="6.18594">
        <ele>1346.81</ele>
        <time>2016-06-22T17:26:02Z</time>
      </trkpt>
      <trkpt lat="45.89684" lon="6.18594">
        <ele>1347.91</ele>
        <time>2016-06-22T17:26:12Z</time>
      </trkpt>
      <trkpt lat="45.89683" lon="6.18598">
        <ele>1348.35</ele>
        <time>2016-06-22T17:26:23Z</time>
      </trkpt>
      <trkpt lat="45.89683" lon="6.18599">
        <ele>1349.16</ele>
        <time>2016-06-22T17:26:34Z</time>
      </trkpt>
      <trkpt lat="45.89681" lon="6.186">
        <ele>1347.91</ele>
        <time>2016-06-22T17:26:45Z</time>
      </trkpt>
      <trkpt lat="45.89681" lon="6.18598">
        <ele>1347.02</ele>
        <time>2016-06-22T17:26:56Z</time>
      </trkpt>
      <trkpt lat="45.8968" lon="6.18595">
        <ele>1346.72</ele>
        <time>2016-06-22T17:27:06Z</time>
      </trkpt>
      <trkpt lat="45.89682" lon="6.18595">
        <ele>1346.43</ele>
        <time>2016-06-22T17:27:17Z</time>
      </trkpt>
      <trkpt lat="45.89682" lon="6.18596">
        <ele>1346.8</ele>
        <time>2016-06-22T17:27:27Z</time>
      </trkpt>
      <trkpt lat="45.89682" lon="6.18595">
        <ele>1347.23</ele>
        <time>2016-06-22T17:27:38Z</time>
      </trkpt>
      <trkpt lat="45.8968" lon="6.18594">
        <ele>1347.99</ele>
        <time>2016-06-22T17:27:49Z</time>
      </trkpt>
      <trkpt lat="45.89678" lon="6.18593">
        <ele>1347.94</ele>
        <time>2016-06-22T17:28:00Z</time>
      </trkpt>
      <trkpt lat="45.8968" lon="6.18592">
        <ele>1347.89</ele>
        <time>2016-06-22T17:28:11Z</time>
      </trkpt>
      <trkpt lat="45.89679" lon="6.18592">
        <ele>1347.64</ele>
        <time>2016-06-22T17:28:21Z</time>
      </trkpt>
      <trkpt lat="45.8968" lon="6.18593">
        <ele>1347.2</ele>
        <time>2016-06-22T17:28:32Z</time>
      </trkpt>
      <trkpt lat="45.89681" lon="6.18595">
        <ele>1347.21</ele>
        <time>2016-06-22T17:28:42Z</time>
      </trkpt>
      <trkpt lat="45.89683" lon="6.18595">
        <ele>1347.5</ele>
        <time>2016-06-22T17:28:52Z</time>
      </trkpt>
      <trkpt lat="45.89683" lon="6.18594">
        <ele>1347.53</ele>
        <time>2016-06-22T17:29:03Z</time>
      </trkpt>
      <trkpt lat="45.89684" lon="6.18594">
        <ele>1347.47</ele>
        <time>2016-06-22T17:29:14Z</time>
      </trkpt>
      <trkpt lat="45.89684" lon="6.18593">
        <ele>1347.06</ele>
        <time>2016-06-22T17:29:25Z</time>
      </trkpt>
      <trkpt lat="45.89682" lon="6.18595">
        <ele>1346.62</ele>
        <time>2016-06-22T17:29:35Z</time>
      </trkpt>
      <trkpt lat="45.89682" lon="6.18597">
        <ele>1345.89</ele>
        <time>2016-06-22T17:29:46Z</time>
      </trkpt>
      <trkpt lat="45.89683" lon="6.18597">
        <ele>1345.79</ele>
        <time>2016-06-22T17:29:57Z</time>
      </trkpt>
      <trkpt lat="45.89683" lon="6.18595">
        <ele>1345.37</ele>
        <time>2016-06-22T17:30:07Z</time>
      </trkpt>
      <trkpt lat="45.89683" lon="6.18596">
        <ele>1344.91</ele>
        <time>2016-06-22T17:30:18Z</time>
      </trkpt>
      <trkpt lat="45.89683" lon="6.18596">
        <ele>1344.47</ele>
        <time>2016-06-22T17:30:29Z</time>
      </trkpt>
      <trkpt lat="45.89685" lon="6.18604">
        <ele>1344.29</ele>
        <time>2016-06-22T17:30:40Z</time>
      </trkpt>
      <trkpt lat="45.89681" lon="6.18608">
        <ele>1344.67</ele>
        <time>2016-06-22T17:30:50Z</time>
      </trkpt>
      <trkpt lat="45.89681" lon="6.18623">
        <ele>1344.54</ele>
        <time>2016-06-22T17:31:01Z</time>
      </trkpt>
      <trkpt lat="45.89675" lon="6.18637">
        <ele>1345.31</ele>
        <time>2016-06-22T17:31:12Z</time>
      </trkpt>
      <trkpt lat="45.89678" lon="6.18639">
        <ele>1346.44</ele>
        <time>2016-06-22T17:31:23Z</time>
      </trkpt>
      <trkpt lat="45.89683" lon="6.18633">
        <ele>1346.17</ele>
        <time>2016-06-22T17:31:34Z</time>
      </trkpt>
      <trkpt lat="45.89685" lon="6.18633">
        <ele>1347.49</ele>
        <time>2016-06-22T17:31:44Z</time>
      </trkpt>
      <trkpt lat="45.89684" lon="6.18634">
        <ele>1349.06</ele>
        <time>2016-06-22T17:31:55Z</time>
      </trkpt>
      <trkpt lat="45.89683" lon="6.18641">
        <ele>1350.45</ele>
        <time>2016-06-22T17:32:06Z</time>
      </trkpt>
      <trkpt lat="45.89678" lon="6.18653">
        <ele>1352.25</ele>
        <time>2016-06-22T17:32:17Z</time>
      </trkpt>
      <trkpt lat="45.89675" lon="6.18668">
        <ele>1354.46</ele>
        <time>2016-06-22T17:32:28Z</time>
      </trkpt>
      <trkpt lat="45.89674" lon="6.18681">
        <ele>1356.92</ele>
        <time>2016-06-22T17:32:39Z</time>
      </trkpt>
      <trkpt lat="45.89662" lon="6.18685">
        <ele>1357.25</ele>
        <time>2016-06-22T17:32:49Z</time>
      </trkpt>
      <trkpt lat="45.89658" lon="6.18688">
        <ele>1356.45</ele>
        <time>2016-06-22T17:33:00Z</time>
      </trkpt>
      <trkpt lat="45.89655" lon="6.18692">
        <ele>1354.83</ele>
        <time>2016-06-22T17:33:11Z</time>
      </trkpt>
      <trkpt lat="45.8964" lon="6.18695">
        <ele>1354.19</ele>
        <time>2016-06-22T17:33:21Z</time>
      </trkpt>
      <trkpt lat="45.89636" lon="6.18699">
        <ele>1354.23</ele>
        <time>2016-06-22T17:33:31Z</time>
      </trkpt>
      <trkpt lat="45.89635" lon="6.187">
        <ele>1354.23</ele>
        <time>2016-06-22T17:33:42Z</time>
      </trkpt>
      <trkpt lat="45.89635" lon="6.187">
        <ele>1353.88</ele>
        <time>2016-06-22T17:33:52Z</time>
      </trkpt>
      <trkpt lat="45.89635" lon="6.18701">
        <ele>1353.75</ele>
        <time>2016-06-22T17:34:03Z</time>
      </trkpt>
      <trkpt lat="45.89635" lon="6.18702">
        <ele>1353.63</ele>
        <time>2016-06-22T17:34:13Z</time>
      </trkpt>
      <trkpt lat="45.89638" lon="6.18701">
        <ele>1353.15</ele>
        <time>2016-06-22T17:34:24Z</time>
      </trkpt>
      <trkpt lat="45.89632" lon="6.18704">
        <ele>1352.9</ele>
        <time>2016-06-22T17:34:35Z</time>
      </trkpt>
      <trkpt lat="45.89626" lon="6.18712">
        <ele>1352.11</ele>
        <time>2016-06-22T17:34:45Z</time>
      </trkpt>
      <trkpt lat="45.89617" lon="6.18719">
        <ele>1351.22</ele>
        <time>2016-06-22T17:34:55Z</time>
      </trkpt>
      <trkpt lat="45.89614" lon="6.18727">
        <ele>1349.56</ele>
        <time>2016-06-22T17:35:06Z</time>
      </trkpt>
      <trkpt lat="45.89607" lon="6.18728">
        <ele>1347.02</ele>
        <time>2016-06-22T17:35:17Z</time>
      </trkpt>
      <trkpt lat="45.89594" lon="6.18728">
        <ele>1344.48</ele>
        <time>2016-06-22T17:35:27Z</time>
      </trkpt>
      <trkpt lat="45.89582" lon="6.18735">
        <ele>1342.02</ele>
        <time>2016-06-22T17:35:38Z</time>
      </trkpt>
      <trkpt lat="45.89567" lon="6.18746">
        <ele>1339.01</ele>
        <time>2016-06-22T17:35:49Z</time>
      </trkpt>
      <trkpt lat="45.89559" lon="6.18752">
        <ele>1336.94</ele>
        <time>2016-06-22T17:35:59Z</time>
      </trkpt>
      <trkpt lat="45.89552" lon="6.18757">
        <ele>1334.17</ele>
        <time>2016-06-22T17:36:10Z</time>
      </trkpt>
      <trkpt lat="45.89542" lon="6.18763">
        <ele>1331.96</ele>
        <time>2016-06-22T17:36:21Z</time>
      </trkpt>
      <trkpt lat="45.89529" lon="6.1876">
        <ele>1330.21</ele>
        <time>2016-06-22T17:36:31Z</time>
      </trkpt>
      <trkpt lat="45.89516" lon="6.1876">
        <ele>1329.06</ele>
        <time>2016-06-22T17:36:42Z</time>
      </trkpt>
      <trkpt lat="45.89512" lon="6.18764">
        <ele>1328.76</ele>
        <time>2016-06-22T17:36:53Z</time>
      </trkpt>
      <trkpt lat="45.89509" lon="6.1877">
        <ele>1328.09</ele>
        <time>2016-06-22T17:37:04Z</time>
      </trkpt>
      <trkpt lat="45.89503" lon="6.1877">
        <ele>1327.41</ele>
        <time>2016-06-22T17:37:15Z</time>
      </trkpt>
      <trkpt lat="45.89497" lon="6.18773">
        <ele>1326.18</ele>
        <time>2016-06-22T17:37:25Z</time>
      </trkpt>
      <trkpt lat="45.89494" lon="6.18775">
        <ele>1324.96</ele>
        <time>2016-06-22T17:37:35Z</time>
      </trkpt>
      <trkpt lat="45.89497" lon="6.18781">
        <ele>1323.54</ele>
        <time>2016-06-22T17:37:46Z</time>
      </trkpt>
      <trkpt lat="45.89493" lon="6.18789">
        <ele>1321.39</ele>
        <time>2016-06-22T17:37:57Z</time>
      </trkpt>
      <trkpt lat="45.89482" lon="6.18796">
        <ele>1319.06</ele>
        <time>2016-06-22T17:38:08Z</time>
      </trkpt>
      <trkpt lat="45.89475" lon="6.18803">
        <ele>1317.06</ele>
        <time>2016-06-22T17:38:18Z</time>
      </trkpt>
      <trkpt lat="45.89469" lon="6.18801">
        <ele>1315.31</ele>
        <time>2016-06-22T17:38:29Z</time>
      </trkpt>
      <trkpt lat="45.89462" lon="6.18805">
        <ele>1315.09</ele>
        <time>2016-06-22T17:38:40Z</time>
      </trkpt>
      <trkpt lat="45.89452" lon="6.18808">
        <ele>1315.3</ele>
        <time>2016-06-22T17:38:51Z</time>
      </trkpt>
      <trkpt lat="45.89437" lon="6.18814">
        <ele>1315.45</ele>
        <time>2016-06-22T17:39:02Z</time>
      </trkpt>
      <trkpt lat="45.89427" lon="6.18821">
        <ele>1315.62</ele>
        <time>2016-06-22T17:39:12Z</time>
      </trkpt>
      <trkpt lat="45.89416" lon="6.18825">
        <ele>1315.99</ele>
        <time>2016-06-22T17:39:22Z</time>
      </trkpt>
      <trkpt lat="45.89408" lon="6.18831">
        <ele>1316.58</ele>
        <time>2016-06-22T17:39:33Z</time>
      </trkpt>
      <trkpt lat="45.89402" lon="6.18835">
        <ele>1316.31</ele>
        <time>2016-06-22T17:39:43Z</time>
      </trkpt>
      <trkpt lat="45.8939" lon="6.18839">
        <ele>1314.46</ele>
        <time>2016-06-22T17:39:53Z</time>
      </trkpt>
      <trkpt lat="45.89376" lon="6.18849">
        <ele>1312.45</ele>
        <time>2016-06-22T17:40:04Z</time>
      </trkpt>
      <trkpt lat="45.89365" lon="6.18859">
        <ele>1310.35</ele>
        <time>2016-06-22T17:40:14Z</time>
      </trkpt>
      <trkpt lat="45.8935" lon="6.18863">
        <ele>1308.26</ele>
        <time>2016-06-22T17:40:25Z</time>
      </trkpt>
      <trkpt lat="45.89338" lon="6.18869">
        <ele>1306.15</ele>
        <time>2016-06-22T17:40:36Z</time>
      </trkpt>
      <trkpt lat="45.89325" lon="6.18872">
        <ele>1304.61</ele>
        <time>2016-06-22T17:40:46Z</time>
      </trkpt>
      <trkpt lat="45.89316" lon="6.18875">
        <ele>1304.6</ele>
        <time>2016-06-22T17:40:56Z</time>
      </trkpt>
      <trkpt lat="45.89305" lon="6.18883">
        <ele>1304.28</ele>
        <time>2016-06-22T17:41:07Z</time>
      </trkpt>
      <trkpt lat="45.89293" lon="6.1889">
        <ele>1303.92</ele>
        <time>2016-06-22T17:41:18Z</time>
      </trkpt>
      <trkpt lat="45.89282" lon="6.18895">
        <ele>1303.92</ele>
        <time>2016-06-22T17:41:28Z</time>
      </trkpt>
      <trkpt lat="45.89274" lon="6.18899">
        <ele>1304.67</ele>
        <time>2016-06-22T17:41:39Z</time>
      </trkpt>
      <trkpt lat="45.89264" lon="6.18902">
        <ele>1304.74</ele>
        <time>2016-06-22T17:41:50Z</time>
      </trkpt>
      <trkpt lat="45.8925" lon="6.18902">
        <ele>1305.12</ele>
        <time>2016-06-22T17:42:01Z</time>
      </trkpt>
      <trkpt lat="45.89238" lon="6.18902">
        <ele>1305.6</ele>
        <time>2016-06-22T17:42:11Z</time>
      </trkpt>
      <trkpt lat="45.89231" lon="6.18905">
        <ele>1306.04</ele>
        <time>2016-06-22T17:42:22Z</time>
      </trkpt>
      <trkpt lat="45.89231" lon="6.18905">
        <ele>1306.51</ele>
        <time>2016-06-22T17:42:33Z</time>
      </trkpt>
      <trkpt lat="45.8923" lon="6.18905">
        <ele>1307.55</ele>
        <time>2016-06-22T17:42:44Z</time>
      </trkpt>
      <trkpt lat="45.8923" lon="6.18905">
        <ele>1307.56</ele>
        <time>2016-06-22T17:42:55Z</time>
      </trkpt>
      <trkpt lat="45.89232" lon="6.1891">
        <ele>1299.02</ele>
        <time>2016-06-22T19:09:22Z</time>
      </trkpt>
      <trkpt lat="45.89229" lon="6.18904">
        <ele>1298.43</ele>
        <time>2016-06-22T19:09:33Z</time>
      </trkpt>
      <trkpt lat="45.89231" lon="6.18904">
        <ele>1306.57</ele>
        <time>2016-06-22T19:09:44Z</time>
      </trkpt>
      <trkpt lat="45.89228" lon="6.18907">
        <ele>1297.76</ele>
        <time>2016-06-22T19:09:55Z</time>
      </trkpt>
      <trkpt lat="45.89228" lon="6.18907">
        <ele>1297.42</ele>
        <time>2016-06-22T19:10:05Z</time>
      </trkpt>
      <trkpt lat="45.89228" lon="6.18907">
        <ele>1297.16</ele>
        <time>2016-06-22T19:10:16Z</time>
      </trkpt>
      <trkpt lat="45.89228" lon="6.18907">
        <ele>1297.14</ele>
        <time>2016-06-22T19:10:26Z</time>
      </trkpt>
      <trkpt lat="45.89228" lon="6.18907">
        <ele>1297.06</ele>
        <time>2016-06-22T19:10:37Z</time>
      </trkpt>
      <trkpt lat="45.89228" lon="6.18907">
        <ele>1296.09</ele>
        <time>2016-06-22T19:10:48Z</time>
      </trkpt>
      <trkpt lat="45.89228" lon="6.18907">
        <ele>1296.32</ele>
        <time>2016-06-22T19:10:58Z</time>
      </trkpt>
      <trkpt lat="45.89228" lon="6.18907">
        <ele>1296.55</ele>
        <time>2016-06-22T19:11:09Z</time>
      </trkpt>
      <trkpt lat="45.89228" lon="6.18907">
        <ele>1296.78</ele>
        <time>2016-06-22T19:11:19Z</time>
      </trkpt>
      <trkpt lat="45.89228" lon="6.18907">
        <ele>1296.96</ele>
        <time>2016-06-22T19:11:29Z</time>
      </trkpt>
      <trkpt lat="45.89228" lon="6.18907">
        <ele>1297.03</ele>
        <time>2016-06-22T19:11:40Z</time>
      </trkpt>
      <trkpt lat="45.89228" lon="6.18907">
        <ele>1297.27</ele>
        <time>2016-06-22T19:11:50Z</time>
      </trkpt>
      <trkpt lat="45.89228" lon="6.18907">
        <ele>1297.23</ele>
        <time>2016-06-22T19:12:01Z</time>
      </trkpt>
      <trkpt lat="45.89228" lon="6.18907">
        <ele>1297.19</ele>
        <time>2016-06-22T19:12:12Z</time>
      </trkpt>
      <trkpt lat="45.89228" lon="6.18907">
        <ele>1297.08</ele>
        <time>2016-06-22T19:12:23Z</time>
      </trkpt>
      <trkpt lat="45.89228" lon="6.18907">
        <ele>1297.03</ele>
        <time>2016-06-22T19:12:34Z</time>
      </trkpt>
      <trkpt lat="45.89228" lon="6.18907">
        <ele>1297.09</ele>
        <time>2016-06-22T19:12:45Z</time>
      </trkpt>
      <trkpt lat="45.89228" lon="6.18907">
        <ele>1297.21</ele>
        <time>2016-06-22T19:12:55Z</time>
      </trkpt>
      <trkpt lat="45.89235" lon="6.18902">
        <ele>1297.25</ele>
        <time>2016-06-22T19:13:06Z</time>
      </trkpt>
      <trkpt lat="45.89247" lon="6.18902">
        <ele>1297.12</ele>
        <time>2016-06-22T19:13:17Z</time>
      </trkpt>
      <trkpt lat="45.89253" lon="6.18901">
        <ele>1297.36</ele>
        <time>2016-06-22T19:13:27Z</time>
      </trkpt>
      <trkpt lat="45.89262" lon="6.18903">
        <ele>1297.45</ele>
        <time>2016-06-22T19:13:38Z</time>
      </trkpt>
      <trkpt lat="45.89268" lon="6.189">
        <ele>1297.57</ele>
        <time>2016-06-22T19:13:48Z</time>
      </trkpt>
      <trkpt lat="45.89284" lon="6.18898">
        <ele>1297.18</ele>
        <time>2016-06-22T19:13:58Z</time>
      </trkpt>
      <trkpt lat="45.89293" lon="6.18891">
        <ele>1295.93</ele>
        <time>2016-06-22T19:14:09Z</time>
      </trkpt>
      <trkpt lat="45.89302" lon="6.18879">
        <ele>1295.79</ele>
        <time>2016-06-22T19:14:20Z</time>
      </trkpt>
      <trkpt lat="45.89312" lon="6.18874">
        <ele>1296.57</ele>
        <time>2016-06-22T19:14:31Z</time>
      </trkpt>
      <trkpt lat="45.89323" lon="6.18875">
        <ele>1297.19</ele>
        <time>2016-06-22T19:14:41Z</time>
      </trkpt>
      <trkpt lat="45.89332" lon="6.18865">
        <ele>1298.13</ele>
        <time>2016-06-22T19:14:52Z</time>
      </trkpt>
      <trkpt lat="45.89347" lon="6.18865">
        <ele>1298.33</ele>
        <time>2016-06-22T19:15:02Z</time>
      </trkpt>
      <trkpt lat="45.89361" lon="6.18862">
        <ele>1297.69</ele>
        <time>2016-06-22T19:15:13Z</time>
      </trkpt>
      <trkpt lat="45.89369" lon="6.18857">
        <ele>1297.23</ele>
        <time>2016-06-22T19:15:23Z</time>
      </trkpt>
      <trkpt lat="45.89376" lon="6.1885">
        <ele>1297.27</ele>
        <time>2016-06-22T19:15:34Z</time>
      </trkpt>
      <trkpt lat="45.89378" lon="6.18848">
        <ele>1297.36</ele>
        <time>2016-06-22T19:15:45Z</time>
      </trkpt>
      <trkpt lat="45.8939" lon="6.18841">
        <ele>1297.6</ele>
        <time>2016-06-22T19:15:56Z</time>
      </trkpt>
      <trkpt lat="45.89396" lon="6.18834">
        <ele>1298.37</ele>
        <time>2016-06-22T19:16:07Z</time>
      </trkpt>
      <trkpt lat="45.89403" lon="6.1883">
        <ele>1298.37</ele>
        <time>2016-06-22T19:16:17Z</time>
      </trkpt>
      <trkpt lat="45.89409" lon="6.18827">
        <ele>1298.09</ele>
        <time>2016-06-22T19:16:28Z</time>
      </trkpt>
      <trkpt lat="45.89422" lon="6.18822">
        <ele>1298.6</ele>
        <time>2016-06-22T19:16:39Z</time>
      </trkpt>
      <trkpt lat="45.89432" lon="6.18818">
        <ele>1299.59</ele>
        <time>2016-06-22T19:16:50Z</time>
      </trkpt>
      <trkpt lat="45.89439" lon="6.18815">
        <ele>1300.71</ele>
        <time>2016-06-22T19:17:00Z</time>
      </trkpt>
      <trkpt lat="45.8945" lon="6.1881">
        <ele>1302.31</ele>
        <time>2016-06-22T19:17:11Z</time>
      </trkpt>
      <trkpt lat="45.89458" lon="6.18805">
        <ele>1302.3</ele>
        <time>2016-06-22T19:17:22Z</time>
      </trkpt>
      <trkpt lat="45.89463" lon="6.18805">
        <ele>1302.2</ele>
        <time>2016-06-22T19:17:33Z</time>
      </trkpt>
      <trkpt lat="45.8947" lon="6.18802">
        <ele>1300.97</ele>
        <time>2016-06-22T19:17:43Z</time>
      </trkpt>
      <trkpt lat="45.89474" lon="6.18798">
        <ele>1298.43</ele>
        <time>2016-06-22T19:17:54Z</time>
      </trkpt>
      <trkpt lat="45.89481" lon="6.18796">
        <ele>1294.98</ele>
        <time>2016-06-22T19:18:04Z</time>
      </trkpt>
      <trkpt lat="45.89489" lon="6.18794">
        <ele>1295.22</ele>
        <time>2016-06-22T19:18:15Z</time>
      </trkpt>
      <trkpt lat="45.89494" lon="6.18789">
        <ele>1296.97</ele>
        <time>2016-06-22T19:18:26Z</time>
      </trkpt>
      <trkpt lat="45.89496" lon="6.18785">
        <ele>1297.61</ele>
        <time>2016-06-22T19:18:37Z</time>
      </trkpt>
      <trkpt lat="45.89492" lon="6.1878">
        <ele>1297.37</ele>
        <time>2016-06-22T19:18:48Z</time>
      </trkpt>
      <trkpt lat="45.89493" lon="6.18776">
        <ele>1298.27</ele>
        <time>2016-06-22T19:18:58Z</time>
      </trkpt>
      <trkpt lat="45.89498" lon="6.18767">
        <ele>1300.11</ele>
        <time>2016-06-22T19:19:08Z</time>
      </trkpt>
      <trkpt lat="45.89502" lon="6.1876">
        <ele>1301.67</ele>
        <time>2016-06-22T19:19:19Z</time>
      </trkpt>
      <trkpt lat="45.89507" lon="6.18757">
        <ele>1304.86</ele>
        <time>2016-06-22T19:19:29Z</time>
      </trkpt>
      <trkpt lat="45.89516" lon="6.18751">
        <ele>1308.32</ele>
        <time>2016-06-22T19:19:40Z</time>
      </trkpt>
      <trkpt lat="45.89523" lon="6.18753">
        <ele>1309.18</ele>
        <time>2016-06-22T19:19:50Z</time>
      </trkpt>
      <trkpt lat="45.89529" lon="6.18748">
        <ele>1310.37</ele>
        <time>2016-06-22T19:20:01Z</time>
      </trkpt>
      <trkpt lat="45.8953" lon="6.18747">
        <ele>1311.7</ele>
        <time>2016-06-22T19:20:12Z</time>
      </trkpt>
      <trkpt lat="45.8953" lon="6.18752">
        <ele>1312.43</ele>
        <time>2016-06-22T19:20:23Z</time>
      </trkpt>
      <trkpt lat="45.89532" lon="6.18758">
        <ele>1312.28</ele>
        <time>2016-06-22T19:20:33Z</time>
      </trkpt>
      <trkpt lat="45.89536" lon="6.18756">
        <ele>1312.11</ele>
        <time>2016-06-22T19:20:43Z</time>
      </trkpt>
      <trkpt lat="45.89546" lon="6.18751">
        <ele>1312.49</ele>
        <time>2016-06-22T19:20:54Z</time>
      </trkpt>
      <trkpt lat="45.89556" lon="6.18748">
        <ele>1313.75</ele>
        <time>2016-06-22T19:21:05Z</time>
      </trkpt>
      <trkpt lat="45.89565" lon="6.18747">
        <ele>1316.52</ele>
        <time>2016-06-22T19:21:16Z</time>
      </trkpt>
      <trkpt lat="45.8957" lon="6.18741">
        <ele>1318.74</ele>
        <time>2016-06-22T19:21:26Z</time>
      </trkpt>
      <trkpt lat="45.89581" lon="6.18729">
        <ele>1320.32</ele>
        <time>2016-06-22T19:21:37Z</time>
      </trkpt>
      <trkpt lat="45.89586" lon="6.18725">
        <ele>1321.07</ele>
        <time>2016-06-22T19:21:47Z</time>
      </trkpt>
      <trkpt lat="45.89594" lon="6.1873">
        <ele>1322.32</ele>
        <time>2016-06-22T19:21:58Z</time>
      </trkpt>
      <trkpt lat="45.89603" lon="6.1873">
        <ele>1323.9</ele>
        <time>2016-06-22T19:22:09Z</time>
      </trkpt>
      <trkpt lat="45.89606" lon="6.1873">
        <ele>1325.61</ele>
        <time>2016-06-22T19:22:20Z</time>
      </trkpt>
      <trkpt lat="45.89612" lon="6.18725">
        <ele>1326.73</ele>
        <time>2016-06-22T19:22:30Z</time>
      </trkpt>
      <trkpt lat="45.89614" lon="6.18718">
        <ele>1328.37</ele>
        <time>2016-06-22T19:22:41Z</time>
      </trkpt>
      <trkpt lat="45.89624" lon="6.18712">
        <ele>1330.73</ele>
        <time>2016-06-22T19:22:52Z</time>
      </trkpt>
      <trkpt lat="45.89626" lon="6.18706">
        <ele>1332.44</ele>
        <time>2016-06-22T19:23:03Z</time>
      </trkpt>
      <trkpt lat="45.89632" lon="6.187">
        <ele>1334.1</ele>
        <time>2016-06-22T19:23:13Z</time>
      </trkpt>
      <trkpt lat="45.89633" lon="6.187">
        <ele>1335.56</ele>
        <time>2016-06-22T19:23:23Z</time>
      </trkpt>
      <trkpt lat="45.89633" lon="6.18699">
        <ele>1336.15</ele>
        <time>2016-06-22T19:23:33Z</time>
      </trkpt>
      <trkpt lat="45.89635" lon="6.187">
        <ele>1337.25</ele>
        <time>2016-06-22T19:23:44Z</time>
      </trkpt>
      <trkpt lat="45.89635" lon="6.18699">
        <ele>1338.97</ele>
        <time>2016-06-22T19:23:55Z</time>
      </trkpt>
      <trkpt lat="45.89633" lon="6.18701">
        <ele>1339.27</ele>
        <time>2016-06-22T19:24:06Z</time>
      </trkpt>
      <trkpt lat="45.89633" lon="6.18701">
        <ele>1339.52</ele>
        <time>2016-06-22T19:24:16Z</time>
      </trkpt>
      <trkpt lat="45.89633" lon="6.18698">
        <ele>1340.63</ele>
        <time>2016-06-22T19:24:27Z</time>
      </trkpt>
      <trkpt lat="45.89634" lon="6.18699">
        <ele>1341.28</ele>
        <time>2016-06-22T19:24:38Z</time>
      </trkpt>
      <trkpt lat="45.89634" lon="6.18698">
        <ele>1341.07</ele>
        <time>2016-06-22T19:24:48Z</time>
      </trkpt>
      <trkpt lat="45.89634" lon="6.18696">
        <ele>1341.31</ele>
        <time>2016-06-22T19:24:58Z</time>
      </trkpt>
      <trkpt lat="45.89634" lon="6.18696">
        <ele>1342.5</ele>
        <time>2016-06-22T19:25:08Z</time>
      </trkpt>
      <trkpt lat="45.89634" lon="6.18696">
        <ele>1343.25</ele>
        <time>2016-06-22T19:25:19Z</time>
      </trkpt>
      <trkpt lat="45.89636" lon="6.18696">
        <ele>1343.95</ele>
        <time>2016-06-22T19:25:29Z</time>
      </trkpt>
      <trkpt lat="45.89636" lon="6.18695">
        <ele>1344.63</ele>
        <time>2016-06-22T19:25:40Z</time>
      </trkpt>
      <trkpt lat="45.89635" lon="6.18694">
        <ele>1344.7</ele>
        <time>2016-06-22T19:25:51Z</time>
      </trkpt>
      <trkpt lat="45.89634" lon="6.18695">
        <ele>1344.75</ele>
        <time>2016-06-22T19:26:01Z</time>
      </trkpt>
      <trkpt lat="45.89634" lon="6.18694">
        <ele>1344.65</ele>
        <time>2016-06-22T19:26:12Z</time>
      </trkpt>
      <trkpt lat="45.89636" lon="6.18694">
        <ele>1344.26</ele>
        <time>2016-06-22T19:26:23Z</time>
      </trkpt>
      <trkpt lat="45.89636" lon="6.18698">
        <ele>1344.57</ele>
        <time>2016-06-22T19:26:34Z</time>
      </trkpt>
      <trkpt lat="45.89637" lon="6.187">
        <ele>1344.99</ele>
        <time>2016-06-22T19:26:45Z</time>
      </trkpt>
      <trkpt lat="45.89638" lon="6.18698">
        <ele>1346.03</ele>
        <time>2016-06-22T19:26:55Z</time>
      </trkpt>
      <trkpt lat="45.89639" lon="6.18698">
        <ele>1346.78</ele>
        <time>2016-06-22T19:27:05Z</time>
      </trkpt>
      <trkpt lat="45.89638" lon="6.187">
        <ele>1347.4</ele>
        <time>2016-06-22T19:27:16Z</time>
      </trkpt>
      <trkpt lat="45.89637" lon="6.18702">
        <ele>1348.66</ele>
        <time>2016-06-22T19:27:27Z</time>
      </trkpt>
      <trkpt lat="45.89636" lon="6.187">
        <ele>1349.13</ele>
        <time>2016-06-22T19:27:37Z</time>
      </trkpt>
      <trkpt lat="45.89635" lon="6.18699">
        <ele>1349.15</ele>
        <time>2016-06-22T19:27:47Z</time>
      </trkpt>
      <trkpt lat="45.89638" lon="6.18698">
        <ele>1349.57</ele>
        <time>2016-06-22T19:27:57Z</time>
      </trkpt>
      <trkpt lat="45.89645" lon="6.18695">
        <ele>1350.4</ele>
        <time>2016-06-22T19:28:08Z</time>
      </trkpt>
      <trkpt lat="45.89651" lon="6.18692">
        <ele>1351.35</ele>
        <time>2016-06-22T19:28:18Z</time>
      </trkpt>
      <trkpt lat="45.89663" lon="6.1869">
        <ele>1351.66</ele>
        <time>2016-06-22T19:28:29Z</time>
      </trkpt>
      <trkpt lat="45.89672" lon="6.18684">
        <ele>1351.64</ele>
        <time>2016-06-22T19:28:40Z</time>
      </trkpt>
      <trkpt lat="45.89676" lon="6.18675">
        <ele>1352.06</ele>
        <time>2016-06-22T19:28:51Z</time>
      </trkpt>
      <trkpt lat="45.89676" lon="6.18666">
        <ele>1353.1</ele>
        <time>2016-06-22T19:29:02Z</time>
      </trkpt>
      <trkpt lat="45.89681" lon="6.18651">
        <ele>1353.97</ele>
        <time>2016-06-22T19:29:13Z</time>
      </trkpt>
      <trkpt lat="45.89686" lon="6.18638">
        <ele>1355</ele>
        <time>2016-06-22T19:29:24Z</time>
      </trkpt>
      <trkpt lat="45.89679" lon="6.18642">
        <ele>1354.24</ele>
        <time>2016-06-22T19:29:35Z</time>
      </trkpt>
      <trkpt lat="45.89677" lon="6.18636">
        <ele>1353.13</ele>
        <time>2016-06-22T19:29:45Z</time>
      </trkpt>
      <trkpt lat="45.89678" lon="6.18613">
        <ele>1351.28</ele>
        <time>2016-06-22T19:29:55Z</time>
      </trkpt>
      <trkpt lat="45.89682" lon="6.18601">
        <ele>1349.7</ele>
        <time>2016-06-22T19:30:06Z</time>
      </trkpt>
      <trkpt lat="45.89685" lon="6.18598">
        <ele>1348.47</ele>
        <time>2016-06-22T19:30:16Z</time>
      </trkpt>
      <trkpt lat="45.89686" lon="6.18597">
        <ele>1346.73</ele>
        <time>2016-06-22T19:30:26Z</time>
      </trkpt>
      <trkpt lat="45.89686" lon="6.18597">
        <ele>1344.94</ele>
        <time>2016-06-22T19:30:37Z</time>
      </trkpt>
      <trkpt lat="45.89685" lon="6.18598">
        <ele>1343.29</ele>
        <time>2016-06-22T19:30:48Z</time>
      </trkpt>
      <trkpt lat="45.89687" lon="6.186">
        <ele>1343.38</ele>
        <time>2016-06-22T19:30:59Z</time>
      </trkpt>
      <trkpt lat="45.89687" lon="6.18601">
        <ele>1342.88</ele>
        <time>2016-06-22T19:31:10Z</time>
      </trkpt>
      <trkpt lat="45.89687" lon="6.18601">
        <ele>1342.06</ele>
        <time>2016-06-22T19:31:21Z</time>
      </trkpt>
      <trkpt lat="45.89687" lon="6.186">
        <ele>1342.1</ele>
        <time>2016-06-22T19:31:31Z</time>
      </trkpt>
      <trkpt lat="45.89687" lon="6.18599">
        <ele>1341.95</ele>
        <time>2016-06-22T19:31:42Z</time>
      </trkpt>
      <trkpt lat="45.89689" lon="6.18597">
        <ele>1341.58</ele>
        <time>2016-06-22T19:31:52Z</time>
      </trkpt>
      <trkpt lat="45.89689" lon="6.18595">
        <ele>1342.29</ele>
        <time>2016-06-22T19:32:03Z</time>
      </trkpt>
      <trkpt lat="45.89689" lon="6.18591">
        <ele>1343.26</ele>
        <time>2016-06-22T19:32:13Z</time>
      </trkpt>
      <trkpt lat="45.89695" lon="6.18577">
        <ele>1344.41</ele>
        <time>2016-06-22T19:32:24Z</time>
      </trkpt>
      <trkpt lat="45.89707" lon="6.18567">
        <ele>1345.73</ele>
        <time>2016-06-22T19:32:35Z</time>
      </trkpt>
      <trkpt lat="45.89717" lon="6.1857">
        <ele>1345.42</ele>
        <time>2016-06-22T19:32:46Z</time>
      </trkpt>
      <trkpt lat="45.89731" lon="6.18569">
        <ele>1344.16</ele>
        <time>2016-06-22T19:32:56Z</time>
      </trkpt>
      <trkpt lat="45.89741" lon="6.18568">
        <ele>1344.51</ele>
        <time>2016-06-22T19:33:07Z</time>
      </trkpt>
      <trkpt lat="45.8975" lon="6.18557">
        <ele>1344.12</ele>
        <time>2016-06-22T19:33:17Z</time>
      </trkpt>
      <trkpt lat="45.89763" lon="6.18555">
        <ele>1342.15</ele>
        <time>2016-06-22T19:33:28Z</time>
      </trkpt>
      <trkpt lat="45.8977" lon="6.18549">
        <ele>1339.51</ele>
        <time>2016-06-22T19:33:38Z</time>
      </trkpt>
      <trkpt lat="45.89781" lon="6.18537">
        <ele>1337.37</ele>
        <time>2016-06-22T19:33:49Z</time>
      </trkpt>
      <trkpt lat="45.89791" lon="6.18531">
        <ele>1335.46</ele>
        <time>2016-06-22T19:33:59Z</time>
      </trkpt>
      <trkpt lat="45.89804" lon="6.18528">
        <ele>1334.84</ele>
        <time>2016-06-22T19:34:10Z</time>
      </trkpt>
      <trkpt lat="45.89815" lon="6.18521">
        <ele>1334.72</ele>
        <time>2016-06-22T19:34:21Z</time>
      </trkpt>
      <trkpt lat="45.89823" lon="6.18514">
        <ele>1333.4</ele>
        <time>2016-06-22T19:34:31Z</time>
      </trkpt>
      <trkpt lat="45.89832" lon="6.18511">
        <ele>1332.42</ele>
        <time>2016-06-22T19:34:42Z</time>
      </trkpt>
      <trkpt lat="45.89843" lon="6.18505">
        <ele>1331</ele>
        <time>2016-06-22T19:34:52Z</time>
      </trkpt>
      <trkpt lat="45.89849" lon="6.18498">
        <ele>1329.81</ele>
        <time>2016-06-22T19:35:03Z</time>
      </trkpt>
      <trkpt lat="45.89861" lon="6.18484">
        <ele>1329.35</ele>
        <time>2016-06-22T19:35:14Z</time>
      </trkpt>
      <trkpt lat="45.89872" lon="6.18478">
        <ele>1328.89</ele>
        <time>2016-06-22T19:35:24Z</time>
      </trkpt>
      <trkpt lat="45.8988" lon="6.18472">
        <ele>1328.19</ele>
        <time>2016-06-22T19:35:34Z</time>
      </trkpt>
      <trkpt lat="45.89891" lon="6.1847">
        <ele>1327.05</ele>
        <time>2016-06-22T19:35:45Z</time>
      </trkpt>
      <trkpt lat="45.89903" lon="6.1846">
        <ele>1325.95</ele>
        <time>2016-06-22T19:35:55Z</time>
      </trkpt>
      <trkpt lat="45.89912" lon="6.18441">
        <ele>1325.15</ele>
        <time>2016-06-22T19:36:05Z</time>
      </trkpt>
      <trkpt lat="45.89927" lon="6.18434">
        <ele>1324.01</ele>
        <time>2016-06-22T19:36:16Z</time>
      </trkpt>
      <trkpt lat="45.89937" lon="6.18428">
        <ele>1323.13</ele>
        <time>2016-06-22T19:36:27Z</time>
      </trkpt>
      <trkpt lat="45.89941" lon="6.1842">
        <ele>1323.05</ele>
        <time>2016-06-22T19:36:38Z</time>
      </trkpt>
      <trkpt lat="45.89948" lon="6.18411">
        <ele>1322.48</ele>
        <time>2016-06-22T19:36:48Z</time>
      </trkpt>
      <trkpt lat="45.89954" lon="6.18404">
        <ele>1322.22</ele>
        <time>2016-06-22T19:36:59Z</time>
      </trkpt>
      <trkpt lat="45.89953" lon="6.18406">
        <ele>1322.39</ele>
        <time>2016-06-22T19:37:09Z</time>
      </trkpt>
      <trkpt lat="45.89952" lon="6.18407">
        <ele>1323.38</ele>
        <time>2016-06-22T19:37:20Z</time>
      </trkpt>
      <trkpt lat="45.89954" lon="6.18406">
        <ele>1323.55</ele>
        <time>2016-06-22T19:37:31Z</time>
      </trkpt>
      <trkpt lat="45.89955" lon="6.18406">
        <ele>1323.7</ele>
        <time>2016-06-22T19:37:41Z</time>
      </trkpt>
      <trkpt lat="45.89957" lon="6.18407">
        <ele>1323.92</ele>
        <time>2016-06-22T19:37:51Z</time>
      </trkpt>
      <trkpt lat="45.89956" lon="6.18408">
        <ele>1324.34</ele>
        <time>2016-06-22T19:38:02Z</time>
      </trkpt>
      <trkpt lat="45.89956" lon="6.18405">
        <ele>1324.52</ele>
        <time>2016-06-22T19:38:12Z</time>
      </trkpt>
      <trkpt lat="45.89963" lon="6.18397">
        <ele>1324.15</ele>
        <time>2016-06-22T19:38:22Z</time>
      </trkpt>
      <trkpt lat="45.8997" lon="6.18384">
        <ele>1323.6</ele>
        <time>2016-06-22T19:38:33Z</time>
      </trkpt>
      <trkpt lat="45.89982" lon="6.18375">
        <ele>1323.75</ele>
        <time>2016-06-22T19:38:44Z</time>
      </trkpt>
      <trkpt lat="45.89992" lon="6.18364">
        <ele>1323.27</ele>
        <time>2016-06-22T19:38:55Z</time>
      </trkpt>
      <trkpt lat="45.89998" lon="6.18346">
        <ele>1322.88</ele>
        <time>2016-06-22T19:39:06Z</time>
      </trkpt>
      <trkpt lat="45.90003" lon="6.1833">
        <ele>1322.18</ele>
        <time>2016-06-22T19:39:17Z</time>
      </trkpt>
      <trkpt lat="45.90012" lon="6.18321">
        <ele>1322.71</ele>
        <time>2016-06-22T19:39:27Z</time>
      </trkpt>
      <trkpt lat="45.90018" lon="6.18313">
        <ele>1323.66</ele>
        <time>2016-06-22T19:39:38Z</time>
      </trkpt>
      <trkpt lat="45.90028" lon="6.18305">
        <ele>1325.35</ele>
        <time>2016-06-22T19:39:49Z</time>
      </trkpt>
      <trkpt lat="45.90036" lon="6.18295">
        <ele>1326.83</ele>
        <time>2016-06-22T19:40:00Z</time>
      </trkpt>
      <trkpt lat="45.90042" lon="6.18286">
        <ele>1327.94</ele>
        <time>2016-06-22T19:40:10Z</time>
      </trkpt>
      <trkpt lat="45.90049" lon="6.18277">
        <ele>1329.15</ele>
        <time>2016-06-22T19:40:21Z</time>
      </trkpt>
      <trkpt lat="45.90058" lon="6.18267">
        <ele>1330.75</ele>
        <time>2016-06-22T19:40:31Z</time>
      </trkpt>
      <trkpt lat="45.90064" lon="6.1826">
        <ele>1332.19</ele>
        <time>2016-06-22T19:40:42Z</time>
      </trkpt>
      <trkpt lat="45.90068" lon="6.18258">
        <ele>1333.27</ele>
        <time>2016-06-22T19:40:53Z</time>
      </trkpt>
      <trkpt lat="45.90068" lon="6.18252">
        <ele>1334.29</ele>
        <time>2016-06-22T19:41:03Z</time>
      </trkpt>
      <trkpt lat="45.90072" lon="6.18239">
        <ele>1334.18</ele>
        <time>2016-06-22T19:41:14Z</time>
      </trkpt>
      <trkpt lat="45.90079" lon="6.18226">
        <ele>1332.92</ele>
        <time>2016-06-22T19:41:25Z</time>
      </trkpt>
      <trkpt lat="45.90079" lon="6.18219">
        <ele>1333.29</ele>
        <time>2016-06-22T19:41:36Z</time>
      </trkpt>
      <trkpt lat="45.90081" lon="6.18202">
        <ele>1333.51</ele>
        <time>2016-06-22T19:41:47Z</time>
      </trkpt>
      <trkpt lat="45.90086" lon="6.18183">
        <ele>1333.1</ele>
        <time>2016-06-22T19:41:57Z</time>
      </trkpt>
      <trkpt lat="45.90092" lon="6.18169">
        <ele>1333.07</ele>
        <time>2016-06-22T19:42:07Z</time>
      </trkpt>
      <trkpt lat="45.90095" lon="6.18162">
        <ele>1332.96</ele>
        <time>2016-06-22T19:42:17Z</time>
      </trkpt>
      <trkpt lat="45.90097" lon="6.18147">
        <ele>1332.4</ele>
        <time>2016-06-22T19:42:28Z</time>
      </trkpt>
      <trkpt lat="45.90106" lon="6.18131">
        <ele>1330.35</ele>
        <time>2016-06-22T19:42:39Z</time>
      </trkpt>
      <trkpt lat="45.90108" lon="6.18121">
        <ele>1329.18</ele>
        <time>2016-06-22T19:42:49Z</time>
      </trkpt>
      <trkpt lat="45.90107" lon="6.18111">
        <ele>1328.13</ele>
        <time>2016-06-22T19:43:00Z</time>
      </trkpt>
      <trkpt lat="45.90113" lon="6.18107">
        <ele>1326.39</ele>
        <time>2016-06-22T19:43:10Z</time>
      </trkpt>
      <trkpt lat="45.90121" lon="6.18103">
        <ele>1324.28</ele>
        <time>2016-06-22T19:43:21Z</time>
      </trkpt>
      <trkpt lat="45.90123" lon="6.18098">
        <ele>1323.5</ele>
        <time>2016-06-22T19:43:31Z</time>
      </trkpt>
      <trkpt lat="45.90114" lon="6.1809">
        <ele>1320.88</ele>
        <time>2016-06-22T19:43:42Z</time>
      </trkpt>
      <trkpt lat="45.90108" lon="6.18082">
        <ele>1317.81</ele>
        <time>2016-06-22T19:43:53Z</time>
      </trkpt>
      <trkpt lat="45.90108" lon="6.18072">
        <ele>1316.04</ele>
        <time>2016-06-22T19:44:04Z</time>
      </trkpt>
      <trkpt lat="45.90114" lon="6.18062">
        <ele>1314.73</ele>
        <time>2016-06-22T19:44:14Z</time>
      </trkpt>
      <trkpt lat="45.90118" lon="6.18054">
        <ele>1313.9</ele>
        <time>2016-06-22T19:44:25Z</time>
      </trkpt>
      <trkpt lat="45.90127" lon="6.18042">
        <ele>1313.12</ele>
        <time>2016-06-22T19:44:36Z</time>
      </trkpt>
      <trkpt lat="45.90134" lon="6.18035">
        <ele>1312.36</ele>
        <time>2016-06-22T19:44:46Z</time>
      </trkpt>
      <trkpt lat="45.90143" lon="6.18037">
        <ele>1311.66</ele>
        <time>2016-06-22T19:44:57Z</time>
      </trkpt>
      <trkpt lat="45.90152" lon="6.18032">
        <ele>1310.75</ele>
        <time>2016-06-22T19:45:07Z</time>
      </trkpt>
      <trkpt lat="45.90159" lon="6.18028">
        <ele>1310.35</ele>
        <time>2016-06-22T19:45:17Z</time>
      </trkpt>
      <trkpt lat="45.90167" lon="6.18022">
        <ele>1310.94</ele>
        <time>2016-06-22T19:45:28Z</time>
      </trkpt>
      <trkpt lat="45.90172" lon="6.18014">
        <ele>1310.24</ele>
        <time>2016-06-22T19:45:38Z</time>
      </trkpt>
      <trkpt lat="45.90178" lon="6.18002">
        <ele>1309.49</ele>
        <time>2016-06-22T19:45:48Z</time>
      </trkpt>
      <trkpt lat="45.90183" lon="6.17995">
        <ele>1309.07</ele>
        <time>2016-06-22T19:45:58Z</time>
      </trkpt>
      <trkpt lat="45.90184" lon="6.17984">
        <ele>1308.37</ele>
        <time>2016-06-22T19:46:09Z</time>
      </trkpt>
      <trkpt lat="45.90192" lon="6.17968">
        <ele>1308.27</ele>
        <time>2016-06-22T19:46:20Z</time>
      </trkpt>
      <trkpt lat="45.90188" lon="6.17953">
        <ele>1308.78</ele>
        <time>2016-06-22T19:46:30Z</time>
      </trkpt>
      <trkpt lat="45.90188" lon="6.17936">
        <ele>1309</ele>
        <time>2016-06-22T19:46:41Z</time>
      </trkpt>
      <trkpt lat="45.90192" lon="6.17926">
        <ele>1309</ele>
        <time>2016-06-22T19:46:51Z</time>
      </trkpt>
      <trkpt lat="45.90197" lon="6.17912">
        <ele>1308.86</ele>
        <time>2016-06-22T19:47:02Z</time>
      </trkpt>
      <trkpt lat="45.90201" lon="6.17899">
        <ele>1308.56</ele>
        <time>2016-06-22T19:47:12Z</time>
      </trkpt>
      <trkpt lat="45.90203" lon="6.17891">
        <ele>1308.09</ele>
        <time>2016-06-22T19:47:22Z</time>
      </trkpt>
      <trkpt lat="45.90196" lon="6.17877">
        <ele>1307.55</ele>
        <time>2016-06-22T19:47:33Z</time>
      </trkpt>
      <trkpt lat="45.90203" lon="6.17872">
        <ele>1306.79</ele>
        <time>2016-06-22T19:47:43Z</time>
      </trkpt>
      <trkpt lat="45.90207" lon="6.17863">
        <ele>1306.18</ele>
        <time>2016-06-22T19:47:54Z</time>
      </trkpt>
      <trkpt lat="45.90209" lon="6.17853">
        <ele>1306</ele>
        <time>2016-06-22T19:48:04Z</time>
      </trkpt>
      <trkpt lat="45.90207" lon="6.17849">
        <ele>1306.19</ele>
        <time>2016-06-22T19:48:15Z</time>
      </trkpt>
      <trkpt lat="45.90208" lon="6.1785">
        <ele>1306.02</ele>
        <time>2016-06-22T19:48:26Z</time>
      </trkpt>
      <trkpt lat="45.90208" lon="6.17849">
        <ele>1306.02</ele>
        <time>2016-06-22T19:48:36Z</time>
      </trkpt>
      <trkpt lat="45.90205" lon="6.1785">
        <ele>1307.22</ele>
        <time>2016-06-22T19:48:47Z</time>
      </trkpt>
      <trkpt lat="45.90205" lon="6.17849">
        <ele>1308.06</ele>
        <time>2016-06-22T19:48:57Z</time>
      </trkpt>
      <trkpt lat="45.90204" lon="6.17847">
        <ele>1308.15</ele>
        <time>2016-06-22T19:49:07Z</time>
      </trkpt>
      <trkpt lat="45.90204" lon="6.17847">
        <ele>1308.51</ele>
        <time>2016-06-22T19:49:18Z</time>
      </trkpt>
      <trkpt lat="45.90203" lon="6.17845">
        <ele>1309.06</ele>
        <time>2016-06-22T19:49:28Z</time>
      </trkpt>
      <trkpt lat="45.90203" lon="6.17845">
        <ele>1309.61</ele>
        <time>2016-06-22T19:49:38Z</time>
      </trkpt>
      <trkpt lat="45.90203" lon="6.17845">
        <ele>1310.1</ele>
        <time>2016-06-22T19:49:49Z</time>
      </trkpt>
      <trkpt lat="45.90204" lon="6.17844">
        <ele>1311.04</ele>
        <time>2016-06-22T19:50:00Z</time>
      </trkpt>
      <trkpt lat="45.90206" lon="6.17843">
        <ele>1311.79</ele>
        <time>2016-06-22T19:50:11Z</time>
      </trkpt>
      <trkpt lat="45.90206" lon="6.17846">
        <ele>1311.94</ele>
        <time>2016-06-22T19:50:22Z</time>
      </trkpt>
      <trkpt lat="45.9021" lon="6.17846">
        <ele>1311.57</ele>
        <time>2016-06-22T19:50:32Z</time>
      </trkpt>
      <trkpt lat="45.90218" lon="6.17842">
        <ele>1311.52</ele>
        <time>2016-06-22T19:50:42Z</time>
      </trkpt>
      <trkpt lat="45.90226" lon="6.17836">
        <ele>1311.45</ele>
        <time>2016-06-22T19:50:52Z</time>
      </trkpt>
      <trkpt lat="45.90228" lon="6.17829">
        <ele>1310.58</ele>
        <time>2016-06-22T19:51:03Z</time>
      </trkpt>
      <trkpt lat="45.90227" lon="6.17812">
        <ele>1308.93</ele>
        <time>2016-06-22T19:51:14Z</time>
      </trkpt>
      <trkpt lat="45.9022" lon="6.17803">
        <ele>1306.6</ele>
        <time>2016-06-22T19:51:24Z</time>
      </trkpt>
      <trkpt lat="45.90212" lon="6.17787">
        <ele>1304.44</ele>
        <time>2016-06-22T19:51:34Z</time>
      </trkpt>
      <trkpt lat="45.90223" lon="6.17776">
        <ele>1303.99</ele>
        <time>2016-06-22T19:51:45Z</time>
      </trkpt>
      <trkpt lat="45.90226" lon="6.1777">
        <ele>1302.99</ele>
        <time>2016-06-22T19:51:55Z</time>
      </trkpt>
      <trkpt lat="45.90232" lon="6.17751">
        <ele>1301.9</ele>
        <time>2016-06-22T19:52:06Z</time>
      </trkpt>
      <trkpt lat="45.90244" lon="6.17735">
        <ele>1300.65</ele>
        <time>2016-06-22T19:52:16Z</time>
      </trkpt>
      <trkpt lat="45.90253" lon="6.17714">
        <ele>1298.64</ele>
        <time>2016-06-22T19:52:27Z</time>
      </trkpt>
      <trkpt lat="45.9026" lon="6.177">
        <ele>1297.11</ele>
        <time>2016-06-22T19:52:38Z</time>
      </trkpt>
      <trkpt lat="45.90272" lon="6.17677">
        <ele>1295.18</ele>
        <time>2016-06-22T19:52:49Z</time>
      </trkpt>
      <trkpt lat="45.90274" lon="6.17674">
        <ele>1294.07</ele>
        <time>2016-06-22T19:53:00Z</time>
      </trkpt>
      <trkpt lat="45.90289" lon="6.17664">
        <ele>1293.96</ele>
        <time>2016-06-22T19:53:11Z</time>
      </trkpt>
      <trkpt lat="45.90297" lon="6.17656">
        <ele>1294.12</ele>
        <time>2016-06-22T19:53:22Z</time>
      </trkpt>
      <trkpt lat="45.90304" lon="6.17647">
        <ele>1292.9</ele>
        <time>2016-06-22T19:53:33Z</time>
      </trkpt>
      <trkpt lat="45.90317" lon="6.17632">
        <ele>1291.49</ele>
        <time>2016-06-22T19:53:44Z</time>
      </trkpt>
      <trkpt lat="45.90329" lon="6.1762">
        <ele>1288.89</ele>
        <time>2016-06-22T19:53:55Z</time>
      </trkpt>
      <trkpt lat="45.90342" lon="6.17613">
        <ele>1286.44</ele>
        <time>2016-06-22T19:54:06Z</time>
      </trkpt>
      <trkpt lat="45.90349" lon="6.17608">
        <ele>1283.02</ele>
        <time>2016-06-22T19:54:17Z</time>
      </trkpt>
      <trkpt lat="45.90355" lon="6.17599">
        <ele>1279.67</ele>
        <time>2016-06-22T19:54:28Z</time>
      </trkpt>
      <trkpt lat="45.90359" lon="6.1759">
        <ele>1278.22</ele>
        <time>2016-06-22T19:54:38Z</time>
      </trkpt>
      <trkpt lat="45.90371" lon="6.17574">
        <ele>1275.41</ele>
        <time>2016-06-22T19:54:49Z</time>
      </trkpt>
      <trkpt lat="45.90373" lon="6.17563">
        <ele>1271.83</ele>
        <time>2016-06-22T19:54:59Z</time>
      </trkpt>
      <trkpt lat="45.90368" lon="6.17555">
        <ele>1268.45</ele>
        <time>2016-06-22T19:55:09Z</time>
      </trkpt>
      <trkpt lat="45.90365" lon="6.17554">
        <ele>1264.98</ele>
        <time>2016-06-22T19:55:20Z</time>
      </trkpt>
      <trkpt lat="45.90361" lon="6.17557">
        <ele>1262.86</ele>
        <time>2016-06-22T19:55:31Z</time>
      </trkpt>
      <trkpt lat="45.90359" lon="6.17559">
        <ele>1259.42</ele>
        <time>2016-06-22T19:55:42Z</time>
      </trkpt>
      <trkpt lat="45.90349" lon="6.17557">
        <ele>1256.45</ele>
        <time>2016-06-22T19:55:53Z</time>
      </trkpt>
      <trkpt lat="45.90337" lon="6.17548">
        <ele>1253.17</ele>
        <time>2016-06-22T19:56:04Z</time>
      </trkpt>
      <trkpt lat="45.90336" lon="6.17529">
        <ele>1249.45</ele>
        <time>2016-06-22T19:56:15Z</time>
      </trkpt>
      <trkpt lat="45.90332" lon="6.17505">
        <ele>1246.57</ele>
        <time>2016-06-22T19:56:25Z</time>
      </trkpt>
      <trkpt lat="45.9033" lon="6.17485">
        <ele>1243.7</ele>
        <time>2016-06-22T19:56:36Z</time>
      </trkpt>
      <trkpt lat="45.90322" lon="6.17467">
        <ele>1241.45</ele>
        <time>2016-06-22T19:56:47Z</time>
      </trkpt>
      <trkpt lat="45.90321" lon="6.17448">
        <ele>1239.4</ele>
        <time>2016-06-22T19:56:57Z</time>
      </trkpt>
      <trkpt lat="45.90321" lon="6.17442">
        <ele>1237.14</ele>
        <time>2016-06-22T19:57:08Z</time>
      </trkpt>
      <trkpt lat="45.90322" lon="6.1744">
        <ele>1234.14</ele>
        <time>2016-06-22T19:57:19Z</time>
      </trkpt>
      <trkpt lat="45.90321" lon="6.17441">
        <ele>1232.14</ele>
        <time>2016-06-22T19:57:30Z</time>
      </trkpt>
      <trkpt lat="45.90322" lon="6.1744">
        <ele>1230.61</ele>
        <time>2016-06-22T19:57:41Z</time>
      </trkpt>
      <trkpt lat="45.90322" lon="6.17439">
        <ele>1228.98</ele>
        <time>2016-06-22T19:57:51Z</time>
      </trkpt>
      <trkpt lat="45.90321" lon="6.17438">
        <ele>1227.46</ele>
        <time>2016-06-22T19:58:02Z</time>
      </trkpt>
      <trkpt lat="45.90321" lon="6.17435">
        <ele>1226.38</ele>
        <time>2016-06-22T19:58:13Z</time>
      </trkpt>
      <trkpt lat="45.90322" lon="6.17433">
        <ele>1225.68</ele>
        <time>2016-06-22T19:58:24Z</time>
      </trkpt>
      <trkpt lat="45.90323" lon="6.17436">
        <ele>1225.36</ele>
        <time>2016-06-22T19:58:34Z</time>
      </trkpt>
      <trkpt lat="45.90324" lon="6.17438">
        <ele>1225.35</ele>
        <time>2016-06-22T19:58:45Z</time>
      </trkpt>
      <trkpt lat="45.90324" lon="6.17439">
        <ele>1225.37</ele>
        <time>2016-06-22T19:58:55Z</time>
      </trkpt>
      <trkpt lat="45.90327" lon="6.17434">
        <ele>1224.99</ele>
        <time>2016-06-22T19:59:06Z</time>
      </trkpt>
      <trkpt lat="45.90329" lon="6.17424">
        <ele>1224.43</ele>
        <time>2016-06-22T19:59:16Z</time>
      </trkpt>
      <trkpt lat="45.90334" lon="6.1741">
        <ele>1223.87</ele>
        <time>2016-06-22T19:59:27Z</time>
      </trkpt>
      <trkpt lat="45.90343" lon="6.17403">
        <ele>1222.17</ele>
        <time>2016-06-22T19:59:37Z</time>
      </trkpt>
      <trkpt lat="45.90357" lon="6.17405">
        <ele>1220.35</ele>
        <time>2016-06-22T19:59:48Z</time>
      </trkpt>
      <trkpt lat="45.90366" lon="6.17413">
        <ele>1217.84</ele>
        <time>2016-06-22T19:59:59Z</time>
      </trkpt>
      <trkpt lat="45.9037" lon="6.17406">
        <ele>1215.33</ele>
        <time>2016-06-22T20:00:10Z</time>
      </trkpt>
      <trkpt lat="45.90382" lon="6.17396">
        <ele>1212.55</ele>
        <time>2016-06-22T20:00:21Z</time>
      </trkpt>
      <trkpt lat="45.90396" lon="6.17397">
        <ele>1211.1</ele>
        <time>2016-06-22T20:00:31Z</time>
      </trkpt>
      <trkpt lat="45.90406" lon="6.17398">
        <ele>1208.71</ele>
        <time>2016-06-22T20:00:42Z</time>
      </trkpt>
      <trkpt lat="45.90413" lon="6.17408">
        <ele>1206.49</ele>
        <time>2016-06-22T20:00:53Z</time>
      </trkpt>
      <trkpt lat="45.90424" lon="6.17419">
        <ele>1204.28</ele>
        <time>2016-06-22T20:01:03Z</time>
      </trkpt>
      <trkpt lat="45.9043" lon="6.17418">
        <ele>1201.72</ele>
        <time>2016-06-22T20:01:13Z</time>
      </trkpt>
      <trkpt lat="45.9044" lon="6.17419">
        <ele>1197.63</ele>
        <time>2016-06-22T20:01:24Z</time>
      </trkpt>
      <trkpt lat="45.90447" lon="6.17426">
        <ele>1194.16</ele>
        <time>2016-06-22T20:01:35Z</time>
      </trkpt>
      <trkpt lat="45.90452" lon="6.17426">
        <ele>1191.55</ele>
        <time>2016-06-22T20:01:45Z</time>
      </trkpt>
      <trkpt lat="45.90463" lon="6.17424">
        <ele>1191.3</ele>
        <time>2016-06-22T20:01:56Z</time>
      </trkpt>
      <trkpt lat="45.90467" lon="6.17425">
        <ele>1189.91</ele>
        <time>2016-06-22T20:02:07Z</time>
      </trkpt>
      <trkpt lat="45.90473" lon="6.17431">
        <ele>1188.43</ele>
        <time>2016-06-22T20:02:17Z</time>
      </trkpt>
      <trkpt lat="45.90477" lon="6.17436">
        <ele>1186.77</ele>
        <time>2016-06-22T20:02:27Z</time>
      </trkpt>
      <trkpt lat="45.90484" lon="6.17439">
        <ele>1184.99</ele>
        <time>2016-06-22T20:02:38Z</time>
      </trkpt>
      <trkpt lat="45.90489" lon="6.17441">
        <ele>1183.34</ele>
        <time>2016-06-22T20:02:48Z</time>
      </trkpt>
      <trkpt lat="45.90498" lon="6.17456">
        <ele>1181.75</ele>
        <time>2016-06-22T20:02:59Z</time>
      </trkpt>
      <trkpt lat="45.90501" lon="6.17458">
        <ele>1180.09</ele>
        <time>2016-06-22T20:03:09Z</time>
      </trkpt>
      <trkpt lat="45.90506" lon="6.17464">
        <ele>1177.88</ele>
        <time>2016-06-22T20:03:20Z</time>
      </trkpt>
      <trkpt lat="45.90511" lon="6.17468">
        <ele>1175.35</ele>
        <time>2016-06-22T20:03:31Z</time>
      </trkpt>
      <trkpt lat="45.90516" lon="6.17473">
        <ele>1172.85</ele>
        <time>2016-06-22T20:03:42Z</time>
      </trkpt>
      <trkpt lat="45.9052" lon="6.17476">
        <ele>1170.48</ele>
        <time>2016-06-22T20:03:53Z</time>
      </trkpt>
      <trkpt lat="45.90522" lon="6.17477">
        <ele>1169</ele>
        <time>2016-06-22T20:04:04Z</time>
      </trkpt>
      <trkpt lat="45.90525" lon="6.17467">
        <ele>1167.75</ele>
        <time>2016-06-22T20:04:14Z</time>
      </trkpt>
      <trkpt lat="45.90528" lon="6.17462">
        <ele>1164.48</ele>
        <time>2016-06-22T20:04:25Z</time>
      </trkpt>
      <trkpt lat="45.90533" lon="6.17448">
        <ele>1161.2</ele>
        <time>2016-06-22T20:04:36Z</time>
      </trkpt>
      <trkpt lat="45.90533" lon="6.1744">
        <ele>1157.61</ele>
        <time>2016-06-22T20:04:47Z</time>
      </trkpt>
      <trkpt lat="45.90531" lon="6.1743">
        <ele>1155.61</ele>
        <time>2016-06-22T20:04:58Z</time>
      </trkpt>
      <trkpt lat="45.90531" lon="6.17423">
        <ele>1153</ele>
        <time>2016-06-22T20:05:08Z</time>
      </trkpt>
      <trkpt lat="45.90533" lon="6.17413">
        <ele>1149.78</ele>
        <time>2016-06-22T20:05:19Z</time>
      </trkpt>
      <trkpt lat="45.90529" lon="6.17405">
        <ele>1146.58</ele>
        <time>2016-06-22T20:05:30Z</time>
      </trkpt>
      <trkpt lat="45.90531" lon="6.1739">
        <ele>1144.34</ele>
        <time>2016-06-22T20:05:40Z</time>
      </trkpt>
      <trkpt lat="45.9054" lon="6.17393">
        <ele>1142.28</ele>
        <time>2016-06-22T20:05:51Z</time>
      </trkpt>
      <trkpt lat="45.90545" lon="6.17393">
        <ele>1140.23</ele>
        <time>2016-06-22T20:06:01Z</time>
      </trkpt>
      <trkpt lat="45.90554" lon="6.17396">
        <ele>1137.88</ele>
        <time>2016-06-22T20:06:12Z</time>
      </trkpt>
      <trkpt lat="45.90563" lon="6.17397">
        <ele>1135.87</ele>
        <time>2016-06-22T20:06:23Z</time>
      </trkpt>
      <trkpt lat="45.90567" lon="6.17393">
        <ele>1133.65</ele>
        <time>2016-06-22T20:06:34Z</time>
      </trkpt>
      <trkpt lat="45.90569" lon="6.17384">
        <ele>1132.05</ele>
        <time>2016-06-22T20:06:45Z</time>
      </trkpt>
      <trkpt lat="45.90566" lon="6.17364">
        <ele>1129.89</ele>
        <time>2016-06-22T20:06:56Z</time>
      </trkpt>
      <trkpt lat="45.90563" lon="6.1735">
        <ele>1127.37</ele>
        <time>2016-06-22T20:07:07Z</time>
      </trkpt>
      <trkpt lat="45.90559" lon="6.17334">
        <ele>1124.05</ele>
        <time>2016-06-22T20:07:17Z</time>
      </trkpt>
      <trkpt lat="45.9055" lon="6.17325">
        <ele>1119.79</ele>
        <time>2016-06-22T20:07:28Z</time>
      </trkpt>
      <trkpt lat="45.90552" lon="6.17312">
        <ele>1116.03</ele>
        <time>2016-06-22T20:07:38Z</time>
      </trkpt>
      <trkpt lat="45.90548" lon="6.17296">
        <ele>1112.89</ele>
        <time>2016-06-22T20:07:49Z</time>
      </trkpt>
      <trkpt lat="45.9054" lon="6.1729">
        <ele>1109.69</ele>
        <time>2016-06-22T20:08:00Z</time>
      </trkpt>
      <trkpt lat="45.90543" lon="6.17286">
        <ele>1104.42</ele>
        <time>2016-06-22T20:08:11Z</time>
      </trkpt>
      <trkpt lat="45.90545" lon="6.17281">
        <ele>1099.99</ele>
        <time>2016-06-22T20:08:22Z</time>
      </trkpt>
      <trkpt lat="45.90542" lon="6.17275">
        <ele>1097.75</ele>
        <time>2016-06-22T20:08:32Z</time>
      </trkpt>
      <trkpt lat="45.90537" lon="6.17264">
        <ele>1094.58</ele>
        <time>2016-06-22T20:08:43Z</time>
      </trkpt>
      <trkpt lat="45.90546" lon="6.17257">
        <ele>1089.8</ele>
        <time>2016-06-22T20:08:53Z</time>
      </trkpt>
      <trkpt lat="45.90546" lon="6.17253">
        <ele>1084.9</ele>
        <time>2016-06-22T20:09:04Z</time>
      </trkpt>
      <trkpt lat="45.90546" lon="6.1725">
        <ele>1080.73</ele>
        <time>2016-06-22T20:09:14Z</time>
      </trkpt>
      <trkpt lat="45.90549" lon="6.17235">
        <ele>1076.23</ele>
        <time>2016-06-22T20:09:25Z</time>
      </trkpt>
      <trkpt lat="45.90558" lon="6.17238">
        <ele>1072.65</ele>
        <time>2016-06-22T20:09:35Z</time>
      </trkpt>
      <trkpt lat="45.90572" lon="6.17241">
        <ele>1067.92</ele>
        <time>2016-06-22T20:09:46Z</time>
      </trkpt>
      <trkpt lat="45.90582" lon="6.1725">
        <ele>1063.9</ele>
        <time>2016-06-22T20:09:57Z</time>
      </trkpt>
      <trkpt lat="45.90598" lon="6.17252">
        <ele>1062.13</ele>
        <time>2016-06-22T20:10:07Z</time>
      </trkpt>
      <trkpt lat="45.90611" lon="6.17263">
        <ele>1061.13</ele>
        <time>2016-06-22T20:10:17Z</time>
      </trkpt>
      <trkpt lat="45.90619" lon="6.17272">
        <ele>1061.3</ele>
        <time>2016-06-22T20:10:27Z</time>
      </trkpt>
      <trkpt lat="45.90632" lon="6.17278">
        <ele>1061.32</ele>
        <time>2016-06-22T20:10:38Z</time>
      </trkpt>
      <trkpt lat="45.90632" lon="6.17281">
        <ele>1060.14</ele>
        <time>2016-06-22T20:10:49Z</time>
      </trkpt>
      <trkpt lat="45.90642" lon="6.17287">
        <ele>1059.49</ele>
        <time>2016-06-22T20:10:59Z</time>
      </trkpt>
      <trkpt lat="45.90653" lon="6.17285">
        <ele>1057.84</ele>
        <time>2016-06-22T20:11:10Z</time>
      </trkpt>
      <trkpt lat="45.90668" lon="6.17293">
        <ele>1055.09</ele>
        <time>2016-06-22T20:11:21Z</time>
      </trkpt>
      <trkpt lat="45.90677" lon="6.17301">
        <ele>1051.91</ele>
        <time>2016-06-22T20:11:32Z</time>
      </trkpt>
      <trkpt lat="45.90685" lon="6.17308">
        <ele>1049.61</ele>
        <time>2016-06-22T20:11:43Z</time>
      </trkpt>
      <trkpt lat="45.90695" lon="6.17317">
        <ele>1048.43</ele>
        <time>2016-06-22T20:11:54Z</time>
      </trkpt>
      <trkpt lat="45.90704" lon="6.17323">
        <ele>1045.99</ele>
        <time>2016-06-22T20:12:04Z</time>
      </trkpt>
      <trkpt lat="45.90719" lon="6.17337">
        <ele>1043.28</ele>
        <time>2016-06-22T20:12:15Z</time>
      </trkpt>
      <trkpt lat="45.90726" lon="6.17357">
        <ele>1041.49</ele>
        <time>2016-06-22T20:12:26Z</time>
      </trkpt>
      <trkpt lat="45.90725" lon="6.1736">
        <ele>1038.66</ele>
        <time>2016-06-22T20:12:37Z</time>
      </trkpt>
      <trkpt lat="45.90729" lon="6.17361">
        <ele>1036.24</ele>
        <time>2016-06-22T20:12:47Z</time>
      </trkpt>
      <trkpt lat="45.90743" lon="6.17372">
        <ele>1032.93</ele>
        <time>2016-06-22T20:12:58Z</time>
      </trkpt>
      <trkpt lat="45.90748" lon="6.17372">
        <ele>1031.16</ele>
        <time>2016-06-22T20:13:09Z</time>
      </trkpt>
      <trkpt lat="45.9076" lon="6.17364">
        <ele>1028.72</ele>
        <time>2016-06-22T20:13:20Z</time>
      </trkpt>
      <trkpt lat="45.90763" lon="6.17366">
        <ele>1027.24</ele>
        <time>2016-06-22T20:13:30Z</time>
      </trkpt>
      <trkpt lat="45.90767" lon="6.1737">
        <ele>1024.13</ele>
        <time>2016-06-22T20:13:41Z</time>
      </trkpt>
      <trkpt lat="45.90773" lon="6.17367">
        <ele>1022.53</ele>
        <time>2016-06-22T20:13:52Z</time>
      </trkpt>
      <trkpt lat="45.90775" lon="6.17365">
        <ele>1020.77</ele>
        <time>2016-06-22T20:14:03Z</time>
      </trkpt>
      <trkpt lat="45.90775" lon="6.17371">
        <ele>1018.83</ele>
        <time>2016-06-22T20:14:13Z</time>
      </trkpt>
      <trkpt lat="45.90775" lon="6.1736">
        <ele>1017.28</ele>
        <time>2016-06-22T20:14:23Z</time>
      </trkpt>
      <trkpt lat="45.90782" lon="6.17346">
        <ele>1015.08</ele>
        <time>2016-06-22T20:14:34Z</time>
      </trkpt>
      <trkpt lat="45.90779" lon="6.17326">
        <ele>1014.41</ele>
        <time>2016-06-22T20:14:44Z</time>
      </trkpt>
      <trkpt lat="45.90775" lon="6.17317">
        <ele>1013.48</ele>
        <time>2016-06-22T20:14:54Z</time>
      </trkpt>
      <trkpt lat="45.90777" lon="6.17321">
        <ele>1010.24</ele>
        <time>2016-06-22T20:15:05Z</time>
      </trkpt>
      <trkpt lat="45.90784" lon="6.17325">
        <ele>1007.45</ele>
        <time>2016-06-22T20:15:16Z</time>
      </trkpt>
      <trkpt lat="45.90785" lon="6.17327">
        <ele>1005.32</ele>
        <time>2016-06-22T20:15:26Z</time>
      </trkpt>
      <trkpt lat="45.90785" lon="6.17312">
        <ele>1005.2</ele>
        <time>2016-06-22T20:15:37Z</time>
      </trkpt>
      <trkpt lat="45.90782" lon="6.17298">
        <ele>1004.22</ele>
        <time>2016-06-22T20:15:47Z</time>
      </trkpt>
      <trkpt lat="45.90773" lon="6.17285">
        <ele>1004.71</ele>
        <time>2016-06-22T20:15:58Z</time>
      </trkpt>
      <trkpt lat="45.90772" lon="6.17267">
        <ele>1003.43</ele>
        <time>2016-06-22T20:16:08Z</time>
      </trkpt>
      <trkpt lat="45.90766" lon="6.17247">
        <ele>1003.19</ele>
        <time>2016-06-22T20:16:19Z</time>
      </trkpt>
      <trkpt lat="45.90763" lon="6.17227">
        <ele>1001.72</ele>
        <time>2016-06-22T20:16:30Z</time>
      </trkpt>
      <trkpt lat="45.90759" lon="6.1721">
        <ele>1000.05</ele>
        <time>2016-06-22T20:16:41Z</time>
      </trkpt>
      <trkpt lat="45.90755" lon="6.17206">
        <ele>997.69</ele>
        <time>2016-06-22T20:16:51Z</time>
      </trkpt>
      <trkpt lat="45.90763" lon="6.17211">
        <ele>994.45</ele>
        <time>2016-06-22T20:17:02Z</time>
      </trkpt>
      <trkpt lat="45.90776" lon="6.17218">
        <ele>992.34</ele>
        <time>2016-06-22T20:17:13Z</time>
      </trkpt>
      <trkpt lat="45.90788" lon="6.17222">
        <ele>991.1</ele>
        <time>2016-06-22T20:17:24Z</time>
      </trkpt>
      <trkpt lat="45.90798" lon="6.17228">
        <ele>991.38</ele>
        <time>2016-06-22T20:17:35Z</time>
      </trkpt>
      <trkpt lat="45.90811" lon="6.17239">
        <ele>991.22</ele>
        <time>2016-06-22T20:17:46Z</time>
      </trkpt>
      <trkpt lat="45.90822" lon="6.1724">
        <ele>991.9</ele>
        <time>2016-06-22T20:17:56Z</time>
      </trkpt>
      <trkpt lat="45.90828" lon="6.1725">
        <ele>990.51</ele>
        <time>2016-06-22T20:18:07Z</time>
      </trkpt>
      <trkpt lat="45.90829" lon="6.1726">
        <ele>986.26</ele>
        <time>2016-06-22T20:18:18Z</time>
      </trkpt>
      <trkpt lat="45.90833" lon="6.17259">
        <ele>984.02</ele>
        <time>2016-06-22T20:18:29Z</time>
      </trkpt>
      <trkpt lat="45.90834" lon="6.17259">
        <ele>982.72</ele>
        <time>2016-06-22T20:18:39Z</time>
      </trkpt>
      <trkpt lat="45.90835" lon="6.17256">
        <ele>982.03</ele>
        <time>2016-06-22T20:18:50Z</time>
      </trkpt>
      <trkpt lat="45.90834" lon="6.17258">
        <ele>981.1</ele>
        <time>2016-06-22T20:19:01Z</time>
      </trkpt>
      <trkpt lat="45.90836" lon="6.17258">
        <ele>979.76</ele>
        <time>2016-06-22T20:19:11Z</time>
      </trkpt>
      <trkpt lat="45.90837" lon="6.17258">
        <ele>978.2</ele>
        <time>2016-06-22T20:19:21Z</time>
      </trkpt>
      <trkpt lat="45.90839" lon="6.17261">
        <ele>976.8</ele>
        <time>2016-06-22T20:19:32Z</time>
      </trkpt>
      <trkpt lat="45.90841" lon="6.1726">
        <ele>974.38</ele>
        <time>2016-06-22T20:19:42Z</time>
      </trkpt>
      <trkpt lat="45.90842" lon="6.1726">
        <ele>974.21</ele>
        <time>2016-06-22T20:19:53Z</time>
      </trkpt>
      <trkpt lat="45.90842" lon="6.1726">
        <ele>974.85</ele>
        <time>2016-06-22T20:20:03Z</time>
      </trkpt>
      <trkpt lat="45.90842" lon="6.1726">
        <ele>974.97</ele>
        <time>2016-06-22T20:20:14Z</time>
      </trkpt>
      <trkpt lat="45.90842" lon="6.1726">
        <ele>975.07</ele>
        <time>2016-06-22T20:20:24Z</time>
      </trkpt>
      <trkpt lat="45.90841" lon="6.1726">
        <ele>975.26</ele>
        <time>2016-06-22T20:20:35Z</time>
      </trkpt>
      <trkpt lat="45.90841" lon="6.1726">
        <ele>975.44</ele>
        <time>2016-06-22T20:20:45Z</time>
      </trkpt>
      <trkpt lat="45.90837" lon="6.17268">
        <ele>976.11</ele>
        <time>2016-06-22T20:20:56Z</time>
      </trkpt>
      <trkpt lat="45.90835" lon="6.17269">
        <ele>976.82</ele>
        <time>2016-06-22T20:21:07Z</time>
      </trkpt>
      <trkpt lat="45.90835" lon="6.17269">
        <ele>976.57</ele>
        <time>2016-06-22T20:21:18Z</time>
      </trkpt>
      <trkpt lat="45.90835" lon="6.17269">
        <ele>975.41</ele>
        <time>2016-06-22T20:21:28Z</time>
      </trkpt>
      <trkpt lat="45.90835" lon="6.17268">
        <ele>975.43</ele>
        <time>2016-06-22T20:21:39Z</time>
      </trkpt>
      <trkpt lat="45.90835" lon="6.17268">
        <ele>975.36</ele>
        <time>2016-06-22T20:21:49Z</time>
      </trkpt>
      <trkpt lat="45.90834" lon="6.1727">
        <ele>974.58</ele>
        <time>2016-06-22T20:22:00Z</time>
      </trkpt>
      <trkpt lat="45.90834" lon="6.1727">
        <ele>974.34</ele>
        <time>2016-06-22T20:22:10Z</time>
      </trkpt>
      <trkpt lat="45.90834" lon="6.1727">
        <ele>974.04</ele>
        <time>2016-06-22T20:22:21Z</time>
      </trkpt>
      <trkpt lat="45.90834" lon="6.1727">
        <ele>973.84</ele>
        <time>2016-06-22T20:22:32Z</time>
      </trkpt>
      <trkpt lat="45.90834" lon="6.1727">
        <ele>973.69</ele>
        <time>2016-06-22T20:22:43Z</time>
      </trkpt>
      <trkpt lat="45.90834" lon="6.1727">
        <ele>973.41</ele>
        <time>2016-06-22T20:22:54Z</time>
      </trkpt>
      <trkpt lat="45.90834" lon="6.1727">
        <ele>973.09</ele>
        <time>2016-06-22T20:23:04Z</time>
      </trkpt>
      <trkpt lat="45.90834" lon="6.1727">
        <ele>972.67</ele>
        <time>2016-06-22T20:23:15Z</time>
      </trkpt>
      <trkpt lat="45.90834" lon="6.1727">
        <ele>971.71</ele>
        <time>2016-06-22T20:23:25Z</time>
      </trkpt>
      <trkpt lat="45.90833" lon="6.17266">
        <ele>971.64</ele>
        <time>2016-06-22T20:23:35Z</time>
      </trkpt>
      <trkpt lat="45.90833" lon="6.17266">
        <ele>971.63</ele>
        <time>2016-06-22T20:23:46Z</time>
      </trkpt>
      <trkpt lat="45.90833" lon="6.17266">
        <ele>971.25</ele>
        <time>2016-06-22T20:23:56Z</time>
      </trkpt>
      <trkpt lat="45.90833" lon="6.17265">
        <ele>971.07</ele>
        <time>2016-06-22T20:24:07Z</time>
      </trkpt>
      <trkpt lat="45.90833" lon="6.17265">
        <ele>971.12</ele>
        <time>2016-06-22T20:24:17Z</time>
      </trkpt>
      <trkpt lat="45.90833" lon="6.17265">
        <ele>971.54</ele>
        <time>2016-06-22T20:24:28Z</time>
      </trkpt>
      <trkpt lat="45.90833" lon="6.17265">
        <ele>973.07</ele>
        <time>2016-06-22T20:24:39Z</time>
      </trkpt>
      <trkpt lat="45.90833" lon="6.17265">
        <ele>973.24</ele>
        <time>2016-06-22T20:24:50Z</time>
      </trkpt>
      <trkpt lat="45.90833" lon="6.17265">
        <ele>973.17</ele>
        <time>2016-06-22T20:25:00Z</time>
      </trkpt>
      <trkpt lat="45.90835" lon="6.17264">
        <ele>971.53</ele>
        <time>2016-06-22T20:25:11Z</time>
      </trkpt>
      <trkpt lat="45.9083" lon="6.17262">
        <ele>971.04</ele>
        <time>2016-06-22T20:25:21Z</time>
      </trkpt>
      <trkpt lat="45.9083" lon="6.17262">
        <ele>970.7</ele>
        <time>2016-06-22T20:25:32Z</time>
      </trkpt>
      <trkpt lat="45.9083" lon="6.1726">
        <ele>970.08</ele>
        <time>2016-06-22T20:25:43Z</time>
      </trkpt>
      <trkpt lat="45.90832" lon="6.17256">
        <ele>969.2</ele>
        <time>2016-06-22T20:25:53Z</time>
      </trkpt>
      <trkpt lat="45.90832" lon="6.17259">
        <ele>970.14</ele>
        <time>2016-06-22T20:26:04Z</time>
      </trkpt>
      <trkpt lat="45.90831" lon="6.17261">
        <ele>970.81</ele>
        <time>2016-06-22T20:26:14Z</time>
      </trkpt>
      <trkpt lat="45.90831" lon="6.17261">
        <ele>970.97</ele>
        <time>2016-06-22T20:26:24Z</time>
      </trkpt>
      <trkpt lat="45.90831" lon="6.1726">
        <ele>970.35</ele>
        <time>2016-06-22T20:26:35Z</time>
      </trkpt>
      <trkpt lat="45.90831" lon="6.1726">
        <ele>970.24</ele>
        <time>2016-06-22T20:26:45Z</time>
      </trkpt>
      <trkpt lat="45.90831" lon="6.1726">
        <ele>970.41</ele>
        <time>2016-06-22T20:26:56Z</time>
      </trkpt>
      <trkpt lat="45.90831" lon="6.1726">
        <ele>970.71</ele>
        <time>2016-06-22T20:27:06Z</time>
      </trkpt>
      <trkpt lat="45.90831" lon="6.1726">
        <ele>970.76</ele>
        <time>2016-06-22T20:27:17Z</time>
      </trkpt>
      <trkpt lat="45.90829" lon="6.17262">
        <ele>970.94</ele>
        <time>2016-06-22T20:27:28Z</time>
      </trkpt>
      <trkpt lat="45.90828" lon="6.17264">
        <ele>971.02</ele>
        <time>2016-06-22T20:27:38Z</time>
      </trkpt>
      <trkpt lat="45.90829" lon="6.17276">
        <ele>971.38</ele>
        <time>2016-06-22T20:27:49Z</time>
      </trkpt>
      <trkpt lat="45.90829" lon="6.17275">
        <ele>971.82</ele>
        <time>2016-06-22T20:27:59Z</time>
      </trkpt>
      <trkpt lat="45.90831" lon="6.17273">
        <ele>971.74</ele>
        <time>2016-06-22T20:28:09Z</time>
      </trkpt>
      <trkpt lat="45.90832" lon="6.17273">
        <ele>971.48</ele>
        <time>2016-06-22T20:28:20Z</time>
      </trkpt>
      <trkpt lat="45.90837" lon="6.17276">
        <ele>972.31</ele>
        <time>2016-06-22T20:28:30Z</time>
      </trkpt>
      <trkpt lat="45.90838" lon="6.17277">
        <ele>972.7</ele>
        <time>2016-06-22T20:28:41Z</time>
      </trkpt>
      <trkpt lat="45.90837" lon="6.17276">
        <ele>974.92</ele>
        <time>2016-06-22T20:28:52Z</time>
      </trkpt>
      <trkpt lat="45.90837" lon="6.17276">
        <ele>976.57</ele>
        <time>2016-06-22T20:29:03Z</time>
      </trkpt>
      <trkpt lat="45.90837" lon="6.17274">
        <ele>976.75</ele>
        <time>2016-06-22T20:29:14Z</time>
      </trkpt>
      <trkpt lat="45.90837" lon="6.17274">
        <ele>976.25</ele>
        <time>2016-06-22T20:29:24Z</time>
      </trkpt>
      <trkpt lat="45.90838" lon="6.17274">
        <ele>974.92</ele>
        <time>2016-06-22T20:29:35Z</time>
      </trkpt>
      <trkpt lat="45.90838" lon="6.17274">
        <ele>974.71</ele>
        <time>2016-06-22T20:29:45Z</time>
      </trkpt>
      <trkpt lat="45.90838" lon="6.17274">
        <ele>974.23</ele>
        <time>2016-06-22T20:29:56Z</time>
      </trkpt>
      <trkpt lat="45.90838" lon="6.17274">
        <ele>974.02</ele>
        <time>2016-06-22T20:30:07Z</time>
      </trkpt>
      <trkpt lat="45.90838" lon="6.17274">
        <ele>974.11</ele>
        <time>2016-06-22T20:30:18Z</time>
      </trkpt>
      <trkpt lat="45.90838" lon="6.17274">
        <ele>974.1</ele>
        <time>2016-06-22T20:30:28Z</time>
      </trkpt>
      <trkpt lat="45.90837" lon="6.17274">
        <ele>973.73</ele>
        <time>2016-06-22T20:30:39Z</time>
      </trkpt>
      <trkpt lat="45.90837" lon="6.17274">
        <ele>973.21</ele>
        <time>2016-06-22T20:30:50Z</time>
      </trkpt>
      <trkpt lat="45.90837" lon="6.17274">
        <ele>973.17</ele>
        <time>2016-06-22T20:31:01Z</time>
      </trkpt>
      <trkpt lat="45.90837" lon="6.17274">
        <ele>972.97</ele>
        <time>2016-06-22T20:31:12Z</time>
      </trkpt>
      <trkpt lat="45.90837" lon="6.17274">
        <ele>972.94</ele>
        <time>2016-06-22T20:31:23Z</time>
      </trkpt>
      <trkpt lat="45.90837" lon="6.17274">
        <ele>972.77</ele>
        <time>2016-06-22T20:31:33Z</time>
      </trkpt>
      <trkpt lat="45.90837" lon="6.17274">
        <ele>972.49</ele>
        <time>2016-06-22T20:31:44Z</time>
      </trkpt>
      <trkpt lat="45.90836" lon="6.17272">
        <ele>971.61</ele>
        <time>2016-06-22T20:31:54Z</time>
      </trkpt>
      <trkpt lat="45.90827" lon="6.17243">
        <ele>971.84</ele>
        <time>2016-06-22T20:32:05Z</time>
      </trkpt>
      <trkpt lat="45.90825" lon="6.17231">
        <ele>972.35</ele>
        <time>2016-06-22T20:32:15Z</time>
      </trkpt>
      <trkpt lat="45.9082" lon="6.17216">
        <ele>972.48</ele>
        <time>2016-06-22T20:32:25Z</time>
      </trkpt>
      <trkpt lat="45.90811" lon="6.17207">
        <ele>971.24</ele>
        <time>2016-06-22T20:32:36Z</time>
      </trkpt>
      <trkpt lat="45.90801" lon="6.17197">
        <ele>970.13</ele>
        <time>2016-06-22T20:32:47Z</time>
      </trkpt>
      <trkpt lat="45.90791" lon="6.17188">
        <ele>970.04</ele>
        <time>2016-06-22T20:32:57Z</time>
      </trkpt>
      <trkpt lat="45.90777" lon="6.1717">
        <ele>970.74</ele>
        <time>2016-06-22T20:33:07Z</time>
      </trkpt>
      <trkpt lat="45.90764" lon="6.1715">
        <ele>970.66</ele>
        <time>2016-06-22T20:33:18Z</time>
      </trkpt>
      <trkpt lat="45.90755" lon="6.17139">
        <ele>969.84</ele>
        <time>2016-06-22T20:33:28Z</time>
      </trkpt>
      <trkpt lat="45.9074" lon="6.17118">
        <ele>968.22</ele>
        <time>2016-06-22T20:33:39Z</time>
      </trkpt>
      <trkpt lat="45.90732" lon="6.17104">
        <ele>966.91</ele>
        <time>2016-06-22T20:33:50Z</time>
      </trkpt>
      <trkpt lat="45.90728" lon="6.17095">
        <ele>964.81</ele>
        <time>2016-06-22T20:34:00Z</time>
      </trkpt>
      <trkpt lat="45.90721" lon="6.17086">
        <ele>962.41</ele>
        <time>2016-06-22T20:34:11Z</time>
      </trkpt>
      <trkpt lat="45.90709" lon="6.17081">
        <ele>959.58</ele>
        <time>2016-06-22T20:34:21Z</time>
      </trkpt>
      <trkpt lat="45.90697" lon="6.17079">
        <ele>955.53</ele>
        <time>2016-06-22T20:34:32Z</time>
      </trkpt>
      <trkpt lat="45.90703" lon="6.17063">
        <ele>949.94</ele>
        <time>2016-06-22T20:34:43Z</time>
      </trkpt>
      <trkpt lat="45.90713" lon="6.1706">
        <ele>946.98</ele>
        <time>2016-06-22T20:34:53Z</time>
      </trkpt>
      <trkpt lat="45.90711" lon="6.17056">
        <ele>943.9</ele>
        <time>2016-06-22T20:35:04Z</time>
      </trkpt>
      <trkpt lat="45.90702" lon="6.17054">
        <ele>941.32</ele>
        <time>2016-06-22T20:35:15Z</time>
      </trkpt>
      <trkpt lat="45.90701" lon="6.17055">
        <ele>937</ele>
        <time>2016-06-22T20:35:25Z</time>
      </trkpt>
      <trkpt lat="45.90709" lon="6.17055">
        <ele>933.05</ele>
        <time>2016-06-22T20:35:36Z</time>
      </trkpt>
      <trkpt lat="45.90714" lon="6.17036">
        <ele>931.01</ele>
        <time>2016-06-22T20:35:46Z</time>
      </trkpt>
      <trkpt lat="45.90704" lon="6.17024">
        <ele>928.65</ele>
        <time>2016-06-22T20:35:57Z</time>
      </trkpt>
      <trkpt lat="45.90695" lon="6.17027">
        <ele>926.6</ele>
        <time>2016-06-22T20:36:08Z</time>
      </trkpt>
      <trkpt lat="45.90689" lon="6.17027">
        <ele>924.57</ele>
        <time>2016-06-22T20:36:18Z</time>
      </trkpt>
      <trkpt lat="45.90686" lon="6.17029">
        <ele>920.93</ele>
        <time>2016-06-22T20:36:28Z</time>
      </trkpt>
      <trkpt lat="45.9069" lon="6.17015">
        <ele>916.64</ele>
        <time>2016-06-22T20:36:39Z</time>
      </trkpt>
      <trkpt lat="45.90688" lon="6.17004">
        <ele>913.31</ele>
        <time>2016-06-22T20:36:50Z</time>
      </trkpt>
      <trkpt lat="45.90689" lon="6.17001">
        <ele>910.71</ele>
        <time>2016-06-22T20:37:01Z</time>
      </trkpt>
      <trkpt lat="45.90689" lon="6.16996">
        <ele>907.86</ele>
        <time>2016-06-22T20:37:12Z</time>
      </trkpt>
      <trkpt lat="45.9069" lon="6.16989">
        <ele>904.12</ele>
        <time>2016-06-22T20:37:23Z</time>
      </trkpt>
      <trkpt lat="45.90692" lon="6.16989">
        <ele>901.14</ele>
        <time>2016-06-22T20:37:33Z</time>
      </trkpt>
      <trkpt lat="45.90684" lon="6.16992">
        <ele>898.88</ele>
        <time>2016-06-22T20:37:44Z</time>
      </trkpt>
      <trkpt lat="45.90672" lon="6.16988">
        <ele>898.88</ele>
        <time>2016-06-22T20:37:55Z</time>
      </trkpt>
      <trkpt lat="45.90664" lon="6.16982">
        <ele>898.51</ele>
        <time>2016-06-22T20:38:06Z</time>
      </trkpt>
      <trkpt lat="45.90655" lon="6.16977">
        <ele>897.19</ele>
        <time>2016-06-22T20:38:16Z</time>
      </trkpt>
      <trkpt lat="45.90634" lon="6.16953">
        <ele>896.27</ele>
        <time>2016-06-22T20:38:27Z</time>
      </trkpt>
      <trkpt lat="45.90625" lon="6.1694">
        <ele>894.99</ele>
        <time>2016-06-22T20:38:37Z</time>
      </trkpt>
      <trkpt lat="45.90622" lon="6.16936">
        <ele>893.09</ele>
        <time>2016-06-22T20:38:48Z</time>
      </trkpt>
      <trkpt lat="45.90633" lon="6.16935">
        <ele>890.98</ele>
        <time>2016-06-22T20:38:58Z</time>
      </trkpt>
      <trkpt lat="45.9064" lon="6.16935">
        <ele>888.79</ele>
        <time>2016-06-22T20:39:09Z</time>
      </trkpt>
      <trkpt lat="45.90653" lon="6.16928">
        <ele>886.34</ele>
        <time>2016-06-22T20:39:19Z</time>
      </trkpt>
      <trkpt lat="45.90663" lon="6.16922">
        <ele>883.06</ele>
        <time>2016-06-22T20:39:30Z</time>
      </trkpt>
      <trkpt lat="45.90667" lon="6.16927">
        <ele>880.75</ele>
        <time>2016-06-22T20:39:40Z</time>
      </trkpt>
      <trkpt lat="45.90668" lon="6.16906">
        <ele>876.8</ele>
        <time>2016-06-22T20:39:50Z</time>
      </trkpt>
      <trkpt lat="45.90681" lon="6.16882">
        <ele>870.88</ele>
        <time>2016-06-22T20:40:01Z</time>
      </trkpt>
      <trkpt lat="45.90699" lon="6.16876">
        <ele>864.55</ele>
        <time>2016-06-22T20:40:11Z</time>
      </trkpt>
      <trkpt lat="45.90711" lon="6.16855">
        <ele>857.42</ele>
        <time>2016-06-22T20:40:22Z</time>
      </trkpt>
      <trkpt lat="45.90716" lon="6.16843">
        <ele>852.51</ele>
        <time>2016-06-22T20:40:33Z</time>
      </trkpt>
      <trkpt lat="45.90729" lon="6.1683">
        <ele>849.86</ele>
        <time>2016-06-22T20:40:43Z</time>
      </trkpt>
      <trkpt lat="45.90734" lon="6.16826">
        <ele>847.6</ele>
        <time>2016-06-22T20:40:54Z</time>
      </trkpt>
      <trkpt lat="45.90738" lon="6.16815">
        <ele>846.87</ele>
        <time>2016-06-22T20:41:05Z</time>
      </trkpt>
      <trkpt lat="45.90732" lon="6.16816">
        <ele>845.68</ele>
        <time>2016-06-22T20:41:16Z</time>
      </trkpt>
      <trkpt lat="45.90731" lon="6.16817">
        <ele>844.61</ele>
        <time>2016-06-22T20:41:27Z</time>
      </trkpt>
      <trkpt lat="45.90731" lon="6.16815">
        <ele>844.12</ele>
        <time>2016-06-22T20:41:37Z</time>
      </trkpt>
      <trkpt lat="45.90732" lon="6.16813">
        <ele>843.18</ele>
        <time>2016-06-22T20:41:48Z</time>
      </trkpt>
      <trkpt lat="45.90734" lon="6.16815">
        <ele>842.7</ele>
        <time>2016-06-22T20:41:59Z</time>
      </trkpt>
      <trkpt lat="45.90734" lon="6.16816">
        <ele>841.44</ele>
        <time>2016-06-22T20:42:10Z</time>
      </trkpt>
      <trkpt lat="45.90735" lon="6.16818">
        <ele>840.98</ele>
        <time>2016-06-22T20:42:21Z</time>
      </trkpt>
      <trkpt lat="45.90734" lon="6.16822">
        <ele>840.85</ele>
        <time>2016-06-22T20:42:32Z</time>
      </trkpt>
      <trkpt lat="45.90736" lon="6.16823">
        <ele>840.79</ele>
        <time>2016-06-22T20:42:42Z</time>
      </trkpt>
      <trkpt lat="45.90734" lon="6.16819">
        <ele>841.02</ele>
        <time>2016-06-22T20:42:53Z</time>
      </trkpt>
      <trkpt lat="45.90733" lon="6.16817">
        <ele>841.92</ele>
        <time>2016-06-22T20:43:03Z</time>
      </trkpt>
      <trkpt lat="45.90731" lon="6.16815">
        <ele>842.77</ele>
        <time>2016-06-22T20:43:13Z</time>
      </trkpt>
      <trkpt lat="45.90729" lon="6.16818">
        <ele>842.67</ele>
        <time>2016-06-22T20:43:24Z</time>
      </trkpt>
      <trkpt lat="45.90728" lon="6.16816">
        <ele>842.06</ele>
        <time>2016-06-22T20:43:34Z</time>
      </trkpt>
      <trkpt lat="45.9073" lon="6.16815">
        <ele>842.37</ele>
        <time>2016-06-22T20:43:45Z</time>
      </trkpt>
      <trkpt lat="45.90729" lon="6.16813">
        <ele>842.8</ele>
        <time>2016-06-22T20:43:55Z</time>
      </trkpt>
      <trkpt lat="45.90729" lon="6.16817">
        <ele>842.58</ele>
        <time>2016-06-22T20:44:06Z</time>
      </trkpt>
      <trkpt lat="45.90732" lon="6.16825">
        <ele>842.95</ele>
        <time>2016-06-22T20:44:17Z</time>
      </trkpt>
      <trkpt lat="45.90723" lon="6.16822">
        <ele>844.14</ele>
        <time>2016-06-22T20:44:28Z</time>
      </trkpt>
      <trkpt lat="45.90713" lon="6.1682">
        <ele>844.59</ele>
        <time>2016-06-22T20:44:38Z</time>
      </trkpt>
      <trkpt lat="45.907" lon="6.16824">
        <ele>844.59</ele>
        <time>2016-06-22T20:44:49Z</time>
      </trkpt>
      <trkpt lat="45.90685" lon="6.1683">
        <ele>843.37</ele>
        <time>2016-06-22T20:44:59Z</time>
      </trkpt>
      <trkpt lat="45.9067" lon="6.16839">
        <ele>841.85</ele>
        <time>2016-06-22T20:45:09Z</time>
      </trkpt>
      <trkpt lat="45.90665" lon="6.16853">
        <ele>839.09</ele>
        <time>2016-06-22T20:45:20Z</time>
      </trkpt>
      <trkpt lat="45.90671" lon="6.16838">
        <ele>834.86</ele>
        <time>2016-06-22T20:45:30Z</time>
      </trkpt>
      <trkpt lat="45.90681" lon="6.16816">
        <ele>830.79</ele>
        <time>2016-06-22T20:45:41Z</time>
      </trkpt>
      <trkpt lat="45.90694" lon="6.16807">
        <ele>827.34</ele>
        <time>2016-06-22T20:45:51Z</time>
      </trkpt>
      <trkpt lat="45.90695" lon="6.16803">
        <ele>824.75</ele>
        <time>2016-06-22T20:46:02Z</time>
      </trkpt>
      <trkpt lat="45.90682" lon="6.16807">
        <ele>824.07</ele>
        <time>2016-06-22T20:46:12Z</time>
      </trkpt>
      <trkpt lat="45.90665" lon="6.16807">
        <ele>823.49</ele>
        <time>2016-06-22T20:46:23Z</time>
      </trkpt>
      <trkpt lat="45.90653" lon="6.16813">
        <ele>821.73</ele>
        <time>2016-06-22T20:46:34Z</time>
      </trkpt>
      <trkpt lat="45.90663" lon="6.16796">
        <ele>819.22</ele>
        <time>2016-06-22T20:46:45Z</time>
      </trkpt>
      <trkpt lat="45.90672" lon="6.16783">
        <ele>816.3</ele>
        <time>2016-06-22T20:46:56Z</time>
      </trkpt>
      <trkpt lat="45.90672" lon="6.16776">
        <ele>814.19</ele>
        <time>2016-06-22T20:47:06Z</time>
      </trkpt>
      <trkpt lat="45.90665" lon="6.16773">
        <ele>812.59</ele>
        <time>2016-06-22T20:47:16Z</time>
      </trkpt>
      <trkpt lat="45.90654" lon="6.1678">
        <ele>811.61</ele>
        <time>2016-06-22T20:47:27Z</time>
      </trkpt>
      <trkpt lat="45.90645" lon="6.16786">
        <ele>811.03</ele>
        <time>2016-06-22T20:47:37Z</time>
      </trkpt>
      <trkpt lat="45.90646" lon="6.16783">
        <ele>809.22</ele>
        <time>2016-06-22T20:47:48Z</time>
      </trkpt>
      <trkpt lat="45.90652" lon="6.16774">
        <ele>806.21</ele>
        <time>2016-06-22T20:47:59Z</time>
      </trkpt>
      <trkpt lat="45.90665" lon="6.1675">
        <ele>802.07</ele>
        <time>2016-06-22T20:48:10Z</time>
      </trkpt>
      <trkpt lat="45.90678" lon="6.1675">
        <ele>798.95</ele>
        <time>2016-06-22T20:48:21Z</time>
      </trkpt>
      <trkpt lat="45.90689" lon="6.16745">
        <ele>796.12</ele>
        <time>2016-06-22T20:48:32Z</time>
      </trkpt>
      <trkpt lat="45.90692" lon="6.16728">
        <ele>793.7</ele>
        <time>2016-06-22T20:48:42Z</time>
      </trkpt>
      <trkpt lat="45.90681" lon="6.1671">
        <ele>791.77</ele>
        <time>2016-06-22T20:48:53Z</time>
      </trkpt>
      <trkpt lat="45.90672" lon="6.16706">
        <ele>790.6</ele>
        <time>2016-06-22T20:49:03Z</time>
      </trkpt>
      <trkpt lat="45.90657" lon="6.16702">
        <ele>789.97</ele>
        <time>2016-06-22T20:49:14Z</time>
      </trkpt>
      <trkpt lat="45.90642" lon="6.16708">
        <ele>789.02</ele>
        <time>2016-06-22T20:49:25Z</time>
      </trkpt>
      <trkpt lat="45.90632" lon="6.16714">
        <ele>788.21</ele>
        <time>2016-06-22T20:49:35Z</time>
      </trkpt>
      <trkpt lat="45.90629" lon="6.16711">
        <ele>785.11</ele>
        <time>2016-06-22T20:49:45Z</time>
      </trkpt>
      <trkpt lat="45.90638" lon="6.167">
        <ele>780.13</ele>
        <time>2016-06-22T20:49:56Z</time>
      </trkpt>
      <trkpt lat="45.90635" lon="6.16697">
        <ele>775.89</ele>
        <time>2016-06-22T20:50:07Z</time>
      </trkpt>
      <trkpt lat="45.90625" lon="6.16701">
        <ele>773.15</ele>
        <time>2016-06-22T20:50:17Z</time>
      </trkpt>
      <trkpt lat="45.90614" lon="6.16704">
        <ele>771.38</ele>
        <time>2016-06-22T20:50:27Z</time>
      </trkpt>
      <trkpt lat="45.90613" lon="6.16699">
        <ele>769.29</ele>
        <time>2016-06-22T20:50:38Z</time>
      </trkpt>
      <trkpt lat="45.90616" lon="6.16685">
        <ele>767.32</ele>
        <time>2016-06-22T20:50:48Z</time>
      </trkpt>
      <trkpt lat="45.90623" lon="6.16657">
        <ele>759.06</ele>
        <time>2016-06-22T20:51:19Z</time>
      </trkpt>
      <trkpt lat="45.90624" lon="6.16658">
        <ele>757.52</ele>
        <time>2016-06-22T20:51:29Z</time>
      </trkpt>
      <trkpt lat="45.90628" lon="6.16658">
        <ele>749.95</ele>
        <time>2016-06-22T20:52:01Z</time>
      </trkpt>
      <trkpt lat="45.90626" lon="6.16656">
        <ele>748.41</ele>
        <time>2016-06-22T20:52:12Z</time>
      </trkpt>
      <trkpt lat="45.90625" lon="6.16655">
        <ele>746.96</ele>
        <time>2016-06-22T20:52:22Z</time>
      </trkpt>
      <trkpt lat="45.90624" lon="6.16653">
        <ele>746.22</ele>
        <time>2016-06-22T20:52:33Z</time>
      </trkpt>
      <trkpt lat="45.90623" lon="6.16653">
        <ele>746.03</ele>
        <time>2016-06-22T20:52:43Z</time>
      </trkpt>
      <trkpt lat="45.90621" lon="6.16652">
        <ele>745.92</ele>
        <time>2016-06-22T20:52:53Z</time>
      </trkpt>
      <trkpt lat="45.90621" lon="6.16652">
        <ele>745.49</ele>
        <time>2016-06-22T20:53:04Z</time>
      </trkpt>
      <trkpt lat="45.90621" lon="6.16652">
        <ele>745.34</ele>
        <time>2016-06-22T20:53:15Z</time>
      </trkpt>
      <trkpt lat="45.90621" lon="6.16652">
        <ele>745.23</ele>
        <time>2016-06-22T20:53:26Z</time>
      </trkpt>
      <trkpt lat="45.9062" lon="6.16653">
        <ele>745.26</ele>
        <time>2016-06-22T20:53:37Z</time>
      </trkpt>
      <trkpt lat="45.90608" lon="6.16657">
        <ele>745.48</ele>
        <time>2016-06-22T20:53:47Z</time>
      </trkpt>
      <trkpt lat="45.90601" lon="6.16663">
        <ele>745.56</ele>
        <time>2016-06-22T20:53:57Z</time>
      </trkpt>
      <trkpt lat="45.90587" lon="6.16663">
        <ele>747.15</ele>
        <time>2016-06-22T20:54:18Z</time>
      </trkpt>
      <trkpt lat="45.90582" lon="6.16656">
        <ele>747.63</ele>
        <time>2016-06-22T20:54:29Z</time>
      </trkpt>
      <trkpt lat="45.90571" lon="6.16643">
        <ele>748.08</ele>
        <time>2016-06-22T20:54:40Z</time>
      </trkpt>
      <trkpt lat="45.90554" lon="6.16621">
        <ele>747.55</ele>
        <time>2016-06-22T20:54:51Z</time>
      </trkpt>
      <trkpt lat="45.90542" lon="6.16615">
        <ele>745.42</ele>
        <time>2016-06-22T20:55:02Z</time>
      </trkpt>
      <trkpt lat="45.90538" lon="6.16618">
        <ele>742.61</ele>
        <time>2016-06-22T20:55:12Z</time>
      </trkpt>
      <trkpt lat="45.90538" lon="6.16618">
        <ele>737.29</ele>
        <time>2016-06-22T20:55:23Z</time>
      </trkpt>
      <trkpt lat="45.90537" lon="6.16614">
        <ele>732.79</ele>
        <time>2016-06-22T20:55:34Z</time>
      </trkpt>
      <trkpt lat="45.90521" lon="6.16601">
        <ele>730.11</ele>
        <time>2016-06-22T20:55:45Z</time>
      </trkpt>
      <trkpt lat="45.90512" lon="6.16597">
        <ele>727.76</ele>
        <time>2016-06-22T20:55:56Z</time>
      </trkpt>
      <trkpt lat="45.90501" lon="6.16584">
        <ele>725.64</ele>
        <time>2016-06-22T20:56:07Z</time>
      </trkpt>
      <trkpt lat="45.90497" lon="6.16574">
        <ele>723.75</ele>
        <time>2016-06-22T20:56:17Z</time>
      </trkpt>
      <trkpt lat="45.90489" lon="6.16565">
        <ele>722.12</ele>
        <time>2016-06-22T20:56:27Z</time>
      </trkpt>
      <trkpt lat="45.90473" lon="6.16554">
        <ele>720.84</ele>
        <time>2016-06-22T20:56:38Z</time>
      </trkpt>
      <trkpt lat="45.90472" lon="6.16545">
        <ele>719.56</ele>
        <time>2016-06-22T20:56:48Z</time>
      </trkpt>
      <trkpt lat="45.9048" lon="6.16548">
        <ele>716.74</ele>
        <time>2016-06-22T20:56:59Z</time>
      </trkpt>
      <trkpt lat="45.90501" lon="6.16552">
        <ele>712.97</ele>
        <time>2016-06-22T20:57:10Z</time>
      </trkpt>
      <trkpt lat="45.90508" lon="6.16552">
        <ele>710.15</ele>
        <time>2016-06-22T20:57:21Z</time>
      </trkpt>
      <trkpt lat="45.90522" lon="6.16551">
        <ele>707.13</ele>
        <time>2016-06-22T20:57:31Z</time>
      </trkpt>
      <trkpt lat="45.90529" lon="6.16539">
        <ele>703.32</ele>
        <time>2016-06-22T20:57:42Z</time>
      </trkpt>
      <trkpt lat="45.90532" lon="6.1654">
        <ele>699.33</ele>
        <time>2016-06-22T20:57:53Z</time>
      </trkpt>
      <trkpt lat="45.90536" lon="6.16546">
        <ele>694.98</ele>
        <time>2016-06-22T20:58:03Z</time>
      </trkpt>
      <trkpt lat="45.90548" lon="6.16545">
        <ele>691.16</ele>
        <time>2016-06-22T20:58:14Z</time>
      </trkpt>
      <trkpt lat="45.90555" lon="6.16542">
        <ele>688.72</ele>
        <time>2016-06-22T20:58:24Z</time>
      </trkpt>
      <trkpt lat="45.90554" lon="6.16539">
        <ele>686.32</ele>
        <time>2016-06-22T20:58:35Z</time>
      </trkpt>
      <trkpt lat="45.90553" lon="6.16539">
        <ele>683.91</ele>
        <time>2016-06-22T20:58:46Z</time>
      </trkpt>
      <trkpt lat="45.90548" lon="6.16531">
        <ele>680.96</ele>
        <time>2016-06-22T20:58:57Z</time>
      </trkpt>
      <trkpt lat="45.9055" lon="6.16531">
        <ele>678.67</ele>
        <time>2016-06-22T20:59:08Z</time>
      </trkpt>
      <trkpt lat="45.90546" lon="6.16527">
        <ele>675.64</ele>
        <time>2016-06-22T20:59:19Z</time>
      </trkpt>
      <trkpt lat="45.90552" lon="6.16524">
        <ele>673.12</ele>
        <time>2016-06-22T20:59:29Z</time>
      </trkpt>
      <trkpt lat="45.90547" lon="6.16517">
        <ele>671.07</ele>
        <time>2016-06-22T20:59:40Z</time>
      </trkpt>
      <trkpt lat="45.9054" lon="6.16507">
        <ele>669.04</ele>
        <time>2016-06-22T20:59:51Z</time>
      </trkpt>
      <trkpt lat="45.90537" lon="6.16506">
        <ele>666.13</ele>
        <time>2016-06-22T21:00:02Z</time>
      </trkpt>
      <trkpt lat="45.90533" lon="6.16502">
        <ele>662.51</ele>
        <time>2016-06-22T21:00:13Z</time>
      </trkpt>
      <trkpt lat="45.9053" lon="6.16497">
        <ele>659.87</ele>
        <time>2016-06-22T21:00:23Z</time>
      </trkpt>
      <trkpt lat="45.90526" lon="6.16492">
        <ele>656.5</ele>
        <time>2016-06-22T21:00:33Z</time>
      </trkpt>
      <trkpt lat="45.90522" lon="6.16484">
        <ele>652.56</ele>
        <time>2016-06-22T21:00:44Z</time>
      </trkpt>
      <trkpt lat="45.90515" lon="6.16474">
        <ele>649.1</ele>
        <time>2016-06-22T21:00:55Z</time>
      </trkpt>
      <trkpt lat="45.9051" lon="6.16471">
        <ele>646.39</ele>
        <time>2016-06-22T21:01:05Z</time>
      </trkpt>
      <trkpt lat="45.90507" lon="6.16467">
        <ele>644.27</ele>
        <time>2016-06-22T21:01:16Z</time>
      </trkpt>
      <trkpt lat="45.90499" lon="6.16455">
        <ele>642.22</ele>
        <time>2016-06-22T21:01:27Z</time>
      </trkpt>
      <trkpt lat="45.90491" lon="6.16453">
        <ele>639.94</ele>
        <time>2016-06-22T21:01:37Z</time>
      </trkpt>
      <trkpt lat="45.90489" lon="6.16457">
        <ele>635.9</ele>
        <time>2016-06-22T21:01:48Z</time>
      </trkpt>
      <trkpt lat="45.90488" lon="6.16451">
        <ele>632.16</ele>
        <time>2016-06-22T21:01:58Z</time>
      </trkpt>
      <trkpt lat="45.90483" lon="6.16447">
        <ele>628.23</ele>
        <time>2016-06-22T21:02:09Z</time>
      </trkpt>
      <trkpt lat="45.9047" lon="6.16437">
        <ele>624.65</ele>
        <time>2016-06-22T21:02:19Z</time>
      </trkpt>
      <trkpt lat="45.90461" lon="6.1642">
        <ele>617.27</ele>
        <time>2016-06-22T21:02:51Z</time>
      </trkpt>
      <trkpt lat="45.90468" lon="6.16418">
        <ele>614.86</ele>
        <time>2016-06-22T21:03:02Z</time>
      </trkpt>
      <trkpt lat="45.90482" lon="6.16406">
        <ele>611.17</ele>
        <time>2016-06-22T21:03:13Z</time>
      </trkpt>
      <trkpt lat="45.90491" lon="6.16401">
        <ele>606.93</ele>
        <time>2016-06-22T21:03:24Z</time>
      </trkpt>
      <trkpt lat="45.9051" lon="6.16404">
        <ele>603.19</ele>
        <time>2016-06-22T21:03:35Z</time>
      </trkpt>
      <trkpt lat="45.90513" lon="6.164">
        <ele>600.71</ele>
        <time>2016-06-22T21:03:46Z</time>
      </trkpt>
      <trkpt lat="45.90515" lon="6.16401">
        <ele>599.61</ele>
        <time>2016-06-22T21:03:57Z</time>
      </trkpt>
      <trkpt lat="45.9052" lon="6.164">
        <ele>600.18</ele>
        <time>2016-06-22T21:04:08Z</time>
      </trkpt>
      <trkpt lat="45.90515" lon="6.16395">
        <ele>600</ele>
        <time>2016-06-22T21:04:19Z</time>
      </trkpt>
      <trkpt lat="45.90515" lon="6.164">
        <ele>598.19</ele>
        <time>2016-06-22T21:04:30Z</time>
      </trkpt>
      <trkpt lat="45.9052" lon="6.16405">
        <ele>596.42</ele>
        <time>2016-06-22T21:04:41Z</time>
      </trkpt>
      <trkpt lat="45.9052" lon="6.16404">
        <ele>594.4</ele>
        <time>2016-06-22T21:04:51Z</time>
      </trkpt>
      <trkpt lat="45.90518" lon="6.16406">
        <ele>591.93</ele>
        <time>2016-06-22T21:05:01Z</time>
      </trkpt>
      <trkpt lat="45.90518" lon="6.16406">
        <ele>591.39</ele>
        <time>2016-06-22T21:05:12Z</time>
      </trkpt>
      <trkpt lat="45.90518" lon="6.16406">
        <ele>591.19</ele>
        <time>2016-06-22T21:05:22Z</time>
      </trkpt>
      <trkpt lat="45.90518" lon="6.16406">
        <ele>590.92</ele>
        <time>2016-06-22T21:05:32Z</time>
      </trkpt>
      <trkpt lat="45.90518" lon="6.16406">
        <ele>590.72</ele>
        <time>2016-06-22T21:05:43Z</time>
      </trkpt>
      <trkpt lat="45.90518" lon="6.16406">
        <ele>590.59</ele>
        <time>2016-06-22T21:05:54Z</time>
      </trkpt>
      <trkpt lat="45.90519" lon="6.16406">
        <ele>590.21</ele>
        <time>2016-06-22T21:06:05Z</time>
      </trkpt>
      <trkpt lat="45.90519" lon="6.16406">
        <ele>589.97</ele>
        <time>2016-06-22T21:06:16Z</time>
      </trkpt>
      <trkpt lat="45.90518" lon="6.16405">
        <ele>589.47</ele>
        <time>2016-06-22T21:06:27Z</time>
      </trkpt>
      <trkpt lat="45.90514" lon="6.16403">
        <ele>589.01</ele>
        <time>2016-06-22T21:06:38Z</time>
      </trkpt>
      <trkpt lat="45.90515" lon="6.16404">
        <ele>588.78</ele>
        <time>2016-06-22T21:06:48Z</time>
      </trkpt>
      <trkpt lat="45.90515" lon="6.16404">
        <ele>588.39</ele>
        <time>2016-06-22T21:06:59Z</time>
      </trkpt>
      <trkpt lat="45.90515" lon="6.16404">
        <ele>588.25</ele>
        <time>2016-06-22T21:07:10Z</time>
      </trkpt>
      <trkpt lat="45.90515" lon="6.16404">
        <ele>587.96</ele>
        <time>2016-06-22T21:07:21Z</time>
      </trkpt>
      <trkpt lat="45.90515" lon="6.16404">
        <ele>587.9</ele>
        <time>2016-06-22T21:07:32Z</time>
      </trkpt>
      <trkpt lat="45.90515" lon="6.16404">
        <ele>587.46</ele>
        <time>2016-06-22T21:07:43Z</time>
      </trkpt>
      <trkpt lat="45.90515" lon="6.16404">
        <ele>586.96</ele>
        <time>2016-06-22T21:07:54Z</time>
      </trkpt>
      <trkpt lat="45.90515" lon="6.16404">
        <ele>586.49</ele>
        <time>2016-06-22T21:08:05Z</time>
      </trkpt>
      <trkpt lat="45.90515" lon="6.16404">
        <ele>585.86</ele>
        <time>2016-06-22T21:08:16Z</time>
      </trkpt>
      <trkpt lat="45.90515" lon="6.16404">
        <ele>585.6</ele>
        <time>2016-06-22T21:08:27Z</time>
      </trkpt>
      <trkpt lat="45.90515" lon="6.16404">
        <ele>585.35</ele>
        <time>2016-06-22T21:08:38Z</time>
      </trkpt>
      <trkpt lat="45.90515" lon="6.16404">
        <ele>585.03</ele>
        <time>2016-06-22T21:08:49Z</time>
      </trkpt>
      <trkpt lat="45.90515" lon="6.16404">
        <ele>585</ele>
        <time>2016-06-22T21:09:00Z</time>
      </trkpt>
      <trkpt lat="45.90515" lon="6.16404">
        <ele>585.24</ele>
        <time>2016-06-22T21:09:11Z</time>
      </trkpt>
      <trkpt lat="45.90515" lon="6.16404">
        <ele>585.19</ele>
        <time>2016-06-22T21:09:22Z</time>
      </trkpt>
      <trkpt lat="45.90515" lon="6.16404">
        <ele>585.07</ele>
        <time>2016-06-22T21:09:33Z</time>
      </trkpt>
      <trkpt lat="45.90515" lon="6.16404">
        <ele>585.01</ele>
        <time>2016-06-22T21:09:43Z</time>
      </trkpt>
      <trkpt lat="45.90515" lon="6.16404">
        <ele>584.99</ele>
        <time>2016-06-22T21:09:54Z</time>
      </trkpt>
      <trkpt lat="45.90515" lon="6.16404">
        <ele>584.84</ele>
        <time>2016-06-22T21:10:04Z</time>
      </trkpt>
      <trkpt lat="45.90515" lon="6.16404">
        <ele>584.69</ele>
        <time>2016-06-22T21:10:14Z</time>
      </trkpt>
      <trkpt lat="45.90515" lon="6.16404">
        <ele>584.72</ele>
        <time>2016-06-22T21:10:25Z</time>
      </trkpt>
      <trkpt lat="45.90515" lon="6.16404">
        <ele>584.59</ele>
        <time>2016-06-22T21:10:36Z</time>
      </trkpt>
      <trkpt lat="45.90515" lon="6.16404">
        <ele>584.44</ele>
        <time>2016-06-22T21:10:46Z</time>
      </trkpt>
      <trkpt lat="45.90515" lon="6.16404">
        <ele>584.3</ele>
        <time>2016-06-22T21:10:57Z</time>
      </trkpt>
      <trkpt lat="45.90515" lon="6.16404">
        <ele>584.42</ele>
        <time>2016-06-22T21:11:08Z</time>
      </trkpt>
      <trkpt lat="45.90515" lon="6.16404">
        <ele>584.65</ele>
        <time>2016-06-22T21:11:19Z</time>
      </trkpt>
      <trkpt lat="45.90515" lon="6.16404">
        <ele>584.75</ele>
        <time>2016-06-22T21:11:29Z</time>
      </trkpt>
      <trkpt lat="45.90515" lon="6.16404">
        <ele>584.77</ele>
        <time>2016-06-22T21:11:40Z</time>
      </trkpt>
      <trkpt lat="45.90515" lon="6.16404">
        <ele>584.77</ele>
        <time>2016-06-22T21:11:50Z</time>
      </trkpt>
      <trkpt lat="45.90515" lon="6.16404">
        <ele>584.63</ele>
        <time>2016-06-22T21:12:00Z</time>
      </trkpt>
      <trkpt lat="45.90516" lon="6.16404">
        <ele>584.62</ele>
        <time>2016-06-22T21:12:11Z</time>
      </trkpt>
      <trkpt lat="45.90516" lon="6.16404">
        <ele>585.1</ele>
        <time>2016-06-22T21:12:22Z</time>
      </trkpt>
      <trkpt lat="45.90516" lon="6.16404">
        <ele>585.26</ele>
        <time>2016-06-22T21:12:32Z</time>
      </trkpt>
      <trkpt lat="45.90516" lon="6.16404">
        <ele>585.09</ele>
        <time>2016-06-22T21:12:43Z</time>
      </trkpt>
      <trkpt lat="45.90516" lon="6.16404">
        <ele>584.95</ele>
        <time>2016-06-22T21:12:54Z</time>
      </trkpt>
      <trkpt lat="45.90516" lon="6.16404">
        <ele>585.03</ele>
        <time>2016-06-22T21:13:04Z</time>
      </trkpt>
      <trkpt lat="45.90516" lon="6.16402">
        <ele>585.64</ele>
        <time>2016-06-22T21:13:15Z</time>
      </trkpt>
      <trkpt lat="45.90513" lon="6.16395">
        <ele>587.04</ele>
        <time>2016-06-22T21:13:25Z</time>
      </trkpt>
      <trkpt lat="45.9048" lon="6.16358">
        <ele>589.05</ele>
        <time>2016-06-22T21:13:57Z</time>
      </trkpt>
      <trkpt lat="45.90469" lon="6.16342">
        <ele>588.52</ele>
        <time>2016-06-22T21:14:08Z</time>
      </trkpt>
      <trkpt lat="45.90464" lon="6.16334">
        <ele>585.97</ele>
        <time>2016-06-22T21:14:19Z</time>
      </trkpt>
      <trkpt lat="45.90466" lon="6.16319">
        <ele>581.83</ele>
        <time>2016-06-22T21:14:30Z</time>
      </trkpt>
      <trkpt lat="45.90464" lon="6.16289">
        <ele>576.86</ele>
        <time>2016-06-22T21:14:41Z</time>
      </trkpt>
      <trkpt lat="45.90462" lon="6.16257">
        <ele>571.25</ele>
        <time>2016-06-22T21:14:52Z</time>
      </trkpt>
      <trkpt lat="45.9046" lon="6.16237">
        <ele>565.27</ele>
        <time>2016-06-22T21:15:03Z</time>
      </trkpt>
      <trkpt lat="45.90461" lon="6.16221">
        <ele>560.08</ele>
        <time>2016-06-22T21:15:13Z</time>
      </trkpt>
      <trkpt lat="45.90456" lon="6.16193">
        <ele>554.83</ele>
        <time>2016-06-22T21:15:24Z</time>
      </trkpt>
      <trkpt lat="45.9045" lon="6.16176">
        <ele>551.43</ele>
        <time>2016-06-22T21:15:34Z</time>
      </trkpt>
      <trkpt lat="45.9044" lon="6.16159">
        <ele>547.37</ele>
        <time>2016-06-22T21:15:44Z</time>
      </trkpt>
      <trkpt lat="45.90432" lon="6.1614">
        <ele>542.7</ele>
        <time>2016-06-22T21:15:55Z</time>
      </trkpt>
      <trkpt lat="45.90417" lon="6.16124">
        <ele>537.51</ele>
        <time>2016-06-22T21:16:06Z</time>
      </trkpt>
      <trkpt lat="45.9041" lon="6.16104">
        <ele>532.75</ele>
        <time>2016-06-22T21:16:16Z</time>
      </trkpt>
      <trkpt lat="45.90401" lon="6.16088">
        <ele>529.24</ele>
        <time>2016-06-22T21:16:27Z</time>
      </trkpt>
      <trkpt lat="45.90393" lon="6.16058">
        <ele>524.23</ele>
        <time>2016-06-22T21:16:38Z</time>
      </trkpt>
      <trkpt lat="45.90389" lon="6.16041">
        <ele>520.11</ele>
        <time>2016-06-22T21:16:48Z</time>
      </trkpt>
      <trkpt lat="45.90392" lon="6.16011">
        <ele>517.13</ele>
        <time>2016-06-22T21:16:59Z</time>
      </trkpt>
      <trkpt lat="45.90394" lon="6.15992">
        <ele>515.02</ele>
        <time>2016-06-22T21:17:10Z</time>
      </trkpt>
      <trkpt lat="45.90379" lon="6.15983">
        <ele>513.45</ele>
        <time>2016-06-22T21:17:20Z</time>
      </trkpt>
      <trkpt lat="45.9036" lon="6.15985">
        <ele>510.27</ele>
        <time>2016-06-22T21:17:31Z</time>
      </trkpt>
      <trkpt lat="45.90355" lon="6.15985">
        <ele>507.35</ele>
        <time>2016-06-22T21:17:41Z</time>
      </trkpt>
      <trkpt lat="45.90354" lon="6.15978">
        <ele>505.42</ele>
        <time>2016-06-22T21:17:52Z</time>
      </trkpt>
      <trkpt lat="45.90356" lon="6.15974">
        <ele>503.24</ele>
        <time>2016-06-22T21:18:02Z</time>
      </trkpt>
      <trkpt lat="45.90356" lon="6.15974">
        <ele>502.25</ele>
        <time>2016-06-22T21:18:13Z</time>
      </trkpt>
      <trkpt lat="45.90352" lon="6.15973">
        <ele>501.07</ele>
        <time>2016-06-22T21:18:24Z</time>
      </trkpt>
      <trkpt lat="45.90351" lon="6.15973">
        <ele>501.14</ele>
        <time>2016-06-22T21:18:34Z</time>
      </trkpt>
      <trkpt lat="45.90354" lon="6.15972">
        <ele>501.17</ele>
        <time>2016-06-22T21:18:45Z</time>
      </trkpt>
      <trkpt lat="45.90356" lon="6.15968">
        <ele>501.07</ele>
        <time>2016-06-22T21:18:56Z</time>
      </trkpt>
      <trkpt lat="45.90356" lon="6.15969">
        <ele>501.14</ele>
        <time>2016-06-22T21:19:06Z</time>
      </trkpt>
      <trkpt lat="45.90356" lon="6.15967">
        <ele>501.1</ele>
        <time>2016-06-22T21:19:17Z</time>
      </trkpt>
      <trkpt lat="45.90353" lon="6.15972">
        <ele>500.36</ele>
        <time>2016-06-22T21:19:27Z</time>
      </trkpt>
      <trkpt lat="45.90356" lon="6.15968">
        <ele>500.24</ele>
        <time>2016-06-22T21:19:38Z</time>
      </trkpt>
      <trkpt lat="45.90356" lon="6.1597">
        <ele>499.96</ele>
        <time>2016-06-22T21:19:49Z</time>
      </trkpt>
      <trkpt lat="45.90357" lon="6.15986">
        <ele>499.76</ele>
        <time>2016-06-22T21:20:00Z</time>
      </trkpt>
      <trkpt lat="45.90357" lon="6.15987">
        <ele>499.79</ele>
        <time>2016-06-22T21:20:11Z</time>
      </trkpt>
      <trkpt lat="45.90357" lon="6.15986">
        <ele>499.83</ele>
        <time>2016-06-22T21:20:22Z</time>
      </trkpt>
      <trkpt lat="45.90358" lon="6.15985">
        <ele>499.9</ele>
        <time>2016-06-22T21:20:32Z</time>
      </trkpt>
      <trkpt lat="45.90359" lon="6.15986">
        <ele>500.02</ele>
        <time>2016-06-22T21:20:43Z</time>
      </trkpt>
      <trkpt lat="45.90359" lon="6.15984">
        <ele>500.06</ele>
        <time>2016-06-22T21:20:53Z</time>
      </trkpt>
      <trkpt lat="45.90357" lon="6.15983">
        <ele>500.04</ele>
        <time>2016-06-22T21:21:04Z</time>
      </trkpt>
      <trkpt lat="45.90355" lon="6.15981">
        <ele>499.96</ele>
        <time>2016-06-22T21:21:15Z</time>
      </trkpt>
      <trkpt lat="45.90355" lon="6.15978">
        <ele>499.72</ele>
        <time>2016-06-22T21:21:26Z</time>
      </trkpt>
      <trkpt lat="45.90355" lon="6.15977">
        <ele>499.42</ele>
        <time>2016-06-22T21:21:36Z</time>
      </trkpt>
      <trkpt lat="45.90353" lon="6.15978">
        <ele>499.2</ele>
        <time>2016-06-22T21:21:47Z</time>
      </trkpt>
      <trkpt lat="45.90354" lon="6.15975">
        <ele>499.08</ele>
        <time>2016-06-22T21:21:57Z</time>
      </trkpt>
      <trkpt lat="45.90353" lon="6.15976">
        <ele>499.03</ele>
        <time>2016-06-22T21:22:07Z</time>
      </trkpt>
      <trkpt lat="45.90355" lon="6.15978">
        <ele>499.25</ele>
        <time>2016-06-22T21:22:18Z</time>
      </trkpt>
      <trkpt lat="45.90356" lon="6.15982">
        <ele>499.74</ele>
        <time>2016-06-22T21:22:28Z</time>
      </trkpt>
      <trkpt lat="45.90357" lon="6.15983">
        <ele>500.77</ele>
        <time>2016-06-22T21:22:39Z</time>
      </trkpt>
      <trkpt lat="45.90357" lon="6.15988">
        <ele>501.53</ele>
        <time>2016-06-22T21:22:49Z</time>
      </trkpt>
      <trkpt lat="45.90354" lon="6.15989">
        <ele>501.98</ele>
        <time>2016-06-22T21:23:00Z</time>
      </trkpt>
      <trkpt lat="45.90349" lon="6.15984">
        <ele>501.52</ele>
        <time>2016-06-22T21:23:11Z</time>
      </trkpt>
      <trkpt lat="45.90348" lon="6.15981">
        <ele>500.03</ele>
        <time>2016-06-22T21:23:21Z</time>
      </trkpt>
      <trkpt lat="45.90349" lon="6.1598">
        <ele>499.58</ele>
        <time>2016-06-22T21:23:32Z</time>
      </trkpt>
      <trkpt lat="45.90353" lon="6.15975">
        <ele>499.53</ele>
        <time>2016-06-22T21:23:42Z</time>
      </trkpt>
      <trkpt lat="45.90357" lon="6.15975">
        <ele>499.54</ele>
        <time>2016-06-22T21:23:53Z</time>
      </trkpt>
      <trkpt lat="45.90358" lon="6.15975">
        <ele>499.66</ele>
        <time>2016-06-22T21:24:04Z</time>
      </trkpt>
      <trkpt lat="45.90357" lon="6.15975">
        <ele>499.69</ele>
        <time>2016-06-22T21:24:14Z</time>
      </trkpt>
      <trkpt lat="45.90358" lon="6.15976">
        <ele>499.77</ele>
        <time>2016-06-22T21:24:25Z</time>
      </trkpt>
      <trkpt lat="45.90357" lon="6.15977">
        <ele>499.81</ele>
        <time>2016-06-22T21:24:36Z</time>
      </trkpt>
      <trkpt lat="45.90353" lon="6.15977">
        <ele>499.86</ele>
        <time>2016-06-22T21:24:46Z</time>
      </trkpt>
      <trkpt lat="45.90346" lon="6.1598">
        <ele>499.66</ele>
        <time>2016-06-22T21:24:57Z</time>
      </trkpt>
      <trkpt lat="45.90349" lon="6.15974">
        <ele>498.51</ele>
        <time>2016-06-22T21:25:08Z</time>
      </trkpt>
      <trkpt lat="45.90355" lon="6.15979">
        <ele>498.37</ele>
        <time>2016-06-22T21:25:18Z</time>
      </trkpt>
      <trkpt lat="45.90351" lon="6.15971">
        <ele>497.97</ele>
        <time>2016-06-22T21:25:50Z</time>
      </trkpt>
      <trkpt lat="45.90353" lon="6.1597">
        <ele>498.07</ele>
        <time>2016-06-22T21:26:00Z</time>
      </trkpt>
      <trkpt lat="45.90354" lon="6.15971">
        <ele>497.72</ele>
        <time>2016-06-22T21:26:11Z</time>
      </trkpt>
      <trkpt lat="45.90354" lon="6.15971">
        <ele>497.3</ele>
        <time>2016-06-22T21:26:21Z</time>
      </trkpt>
      <trkpt lat="45.90354" lon="6.1597">
        <ele>497.24</ele>
        <time>2016-06-22T21:26:32Z</time>
      </trkpt>
    </trkseg>
  </trk>
</gpx>